<?xml version="1.0" encoding="UTF-8" standalone="no" ?>
<gpx xmlns="http://www.topografix.com/GPX/1/1" xmlns:xsi="http://www.w3.org/2001/XMLSchema-instance" xsi:schemaLocation="http://www.topografix.com/GPX/1/1 http://www.topografix.com/GPX/1/1/gpx.xsd" version="1.1" creator="VisuGPX - https://www.visugpx.com">
  <metadata>
    <name>VTT - Sur les spéciales de Théoule</name>
    <desc><![CDATA[Limage des spé du rallye de Théoule]]></desc>
  </metadata>
  <trk>
    <name><![CDATA[Untitled]]></name>
    <trkseg>
      <trkpt lat="43.50857" lon="6.94126">
        <ele>6</ele>
        <time>2011-12-09T08:52:20.000Z</time>
      </trkpt>
      <trkpt lat="43.50853" lon="6.94127">
        <ele>6.4000000953674</ele>
        <time>2011-12-09T08:52:24.000Z</time>
      </trkpt>
      <trkpt lat="43.50852" lon="6.9413">
        <ele>6.5999999046326</ele>
        <time>2011-12-09T08:52:25.000Z</time>
      </trkpt>
      <trkpt lat="43.50841" lon="6.94143">
        <ele>7</ele>
        <time>2011-12-09T08:52:30.000Z</time>
      </trkpt>
      <trkpt lat="43.50836" lon="6.94144">
        <ele>7.5999999046326</ele>
        <time>2011-12-09T08:52:32.000Z</time>
      </trkpt>
      <trkpt lat="43.50834" lon="6.9414">
        <ele>7.8000001907349</ele>
        <time>2011-12-09T08:52:33.000Z</time>
      </trkpt>
      <trkpt lat="43.50835" lon="6.94125">
        <ele>8.3999996185303</ele>
        <time>2011-12-09T08:52:36.000Z</time>
      </trkpt>
      <trkpt lat="43.50835" lon="6.94119">
        <ele>8.6000003814697</ele>
        <time>2011-12-09T08:52:37.000Z</time>
      </trkpt>
      <trkpt lat="43.50839" lon="6.94074">
        <ele>8.8000001907349</ele>
        <time>2011-12-09T08:52:46.000Z</time>
      </trkpt>
      <trkpt lat="43.50841" lon="6.94069">
        <ele>8.3999996185303</ele>
        <time>2011-12-09T08:52:50.000Z</time>
      </trkpt>
      <trkpt lat="43.5084" lon="6.94067">
        <ele>8.6000003814697</ele>
        <time>2011-12-09T08:52:53.000Z</time>
      </trkpt>
      <trkpt lat="43.50838" lon="6.94061">
        <ele>8.3999996185303</ele>
        <time>2011-12-09T08:52:55.000Z</time>
      </trkpt>
      <trkpt lat="43.50829" lon="6.94031">
        <ele>7.8000001907349</ele>
        <time>2011-12-09T08:53:01.000Z</time>
      </trkpt>
      <trkpt lat="43.50834" lon="6.94011">
        <ele>6.5999999046326</ele>
        <time>2011-12-09T08:53:05.000Z</time>
      </trkpt>
      <trkpt lat="43.50845" lon="6.93984">
        <ele>5.4000000953674</ele>
        <time>2011-12-09T08:53:11.000Z</time>
      </trkpt>
      <trkpt lat="43.50845" lon="6.93966">
        <ele>5.5999999046326</ele>
        <time>2011-12-09T08:53:16.000Z</time>
      </trkpt>
      <trkpt lat="43.50851" lon="6.9396">
        <ele>5.4000000953674</ele>
        <time>2011-12-09T08:53:20.000Z</time>
      </trkpt>
      <trkpt lat="43.50859" lon="6.93961">
        <ele>4.8000001907349</ele>
        <time>2011-12-09T08:53:25.000Z</time>
      </trkpt>
      <trkpt lat="43.50859" lon="6.93958">
        <ele>4.8000001907349</ele>
        <time>2011-12-09T08:53:29.000Z</time>
      </trkpt>
      <trkpt lat="43.50853" lon="6.93951">
        <ele>5.1999998092651</ele>
        <time>2011-12-09T08:53:31.000Z</time>
      </trkpt>
      <trkpt lat="43.5083" lon="6.9393">
        <ele>7.5999999046326</ele>
        <time>2011-12-09T08:53:36.000Z</time>
      </trkpt>
      <trkpt lat="43.50818" lon="6.93909">
        <ele>10.800000190735</ele>
        <time>2011-12-09T08:53:40.000Z</time>
      </trkpt>
      <trkpt lat="43.50823" lon="6.93892">
        <ele>10.199999809265</ele>
        <time>2011-12-09T08:53:43.000Z</time>
      </trkpt>
      <trkpt lat="43.50827" lon="6.93881">
        <ele>9.3999996185303</ele>
        <time>2011-12-09T08:53:45.000Z</time>
      </trkpt>
      <trkpt lat="43.50837" lon="6.9386">
        <ele>8.1999998092651</ele>
        <time>2011-12-09T08:53:49.000Z</time>
      </trkpt>
      <trkpt lat="43.50857" lon="6.93831">
        <ele>8.1999998092651</ele>
        <time>2011-12-09T08:53:56.000Z</time>
      </trkpt>
      <trkpt lat="43.50859" lon="6.93829">
        <ele>8.3999996185303</ele>
        <time>2011-12-09T08:53:57.000Z</time>
      </trkpt>
      <trkpt lat="43.50868" lon="6.9382">
        <ele>8.6000003814697</ele>
        <time>2011-12-09T08:54:01.000Z</time>
      </trkpt>
      <trkpt lat="43.50873" lon="6.93817">
        <ele>8.6000003814697</ele>
        <time>2011-12-09T08:54:03.000Z</time>
      </trkpt>
      <trkpt lat="43.5088" lon="6.93816">
        <ele>8.3999996185303</ele>
        <time>2011-12-09T08:54:05.000Z</time>
      </trkpt>
      <trkpt lat="43.5088" lon="6.93814">
        <ele>8.6000003814697</ele>
        <time>2011-12-09T08:54:06.000Z</time>
      </trkpt>
      <trkpt lat="43.50876" lon="6.93815">
        <ele>8.6000003814697</ele>
        <time>2011-12-09T08:54:09.000Z</time>
      </trkpt>
      <trkpt lat="43.50871" lon="6.93819">
        <ele>8.6000003814697</ele>
        <time>2011-12-09T08:54:11.000Z</time>
      </trkpt>
      <trkpt lat="43.50871" lon="6.93821">
        <ele>8.6000003814697</ele>
        <time>2011-12-09T08:54:13.000Z</time>
      </trkpt>
      <trkpt lat="43.50873" lon="6.9382">
        <ele>8.3999996185303</ele>
        <time>2011-12-09T08:54:24.000Z</time>
      </trkpt>
      <trkpt lat="43.50871" lon="6.93818">
        <ele>8.6000003814697</ele>
        <time>2011-12-09T08:54:26.000Z</time>
      </trkpt>
      <trkpt lat="43.50867" lon="6.9382">
        <ele>8.6000003814697</ele>
        <time>2011-12-09T08:54:29.000Z</time>
      </trkpt>
      <trkpt lat="43.5086" lon="6.93822">
        <ele>8.8000001907349</ele>
        <time>2011-12-09T08:54:34.000Z</time>
      </trkpt>
      <trkpt lat="43.50859" lon="6.93819">
        <ele>9</ele>
        <time>2011-12-09T08:54:35.000Z</time>
      </trkpt>
      <trkpt lat="43.50854" lon="6.93808">
        <ele>10</ele>
        <time>2011-12-09T08:54:38.000Z</time>
      </trkpt>
      <trkpt lat="43.50846" lon="6.938">
        <ele>10.800000190735</ele>
        <time>2011-12-09T08:54:42.000Z</time>
      </trkpt>
      <trkpt lat="43.50844" lon="6.93792">
        <ele>11.60000038147</ele>
        <time>2011-12-09T08:54:47.000Z</time>
      </trkpt>
      <trkpt lat="43.50796" lon="6.9372">
        <ele>20.39999961853</ele>
        <time>2011-12-09T08:55:06.000Z</time>
      </trkpt>
      <trkpt lat="43.50791" lon="6.93707">
        <ele>20.60000038147</ele>
        <time>2011-12-09T08:55:08.000Z</time>
      </trkpt>
      <trkpt lat="43.50786" lon="6.93701">
        <ele>20.799999237061</ele>
        <time>2011-12-09T08:55:09.000Z</time>
      </trkpt>
      <trkpt lat="43.50778" lon="6.93686">
        <ele>20.799999237061</ele>
        <time>2011-12-09T08:55:12.000Z</time>
      </trkpt>
      <trkpt lat="43.50776" lon="6.93682">
        <ele>20.60000038147</ele>
        <time>2011-12-09T08:55:13.000Z</time>
      </trkpt>
      <trkpt lat="43.50772" lon="6.93666">
        <ele>20</ele>
        <time>2011-12-09T08:55:16.000Z</time>
      </trkpt>
      <trkpt lat="43.50769" lon="6.93656">
        <ele>20</ele>
        <time>2011-12-09T08:55:18.000Z</time>
      </trkpt>
      <trkpt lat="43.5076" lon="6.93627">
        <ele>19.200000762939</ele>
        <time>2011-12-09T08:55:24.000Z</time>
      </trkpt>
      <trkpt lat="43.50751" lon="6.93607">
        <ele>17.60000038147</ele>
        <time>2011-12-09T08:55:28.000Z</time>
      </trkpt>
      <trkpt lat="43.50746" lon="6.93593">
        <ele>18.200000762939</ele>
        <time>2011-12-09T08:55:31.000Z</time>
      </trkpt>
      <trkpt lat="43.50732" lon="6.93578">
        <ele>22.60000038147</ele>
        <time>2011-12-09T08:55:36.000Z</time>
      </trkpt>
      <trkpt lat="43.50722" lon="6.9356">
        <ele>25.799999237061</ele>
        <time>2011-12-09T08:55:41.000Z</time>
      </trkpt>
      <trkpt lat="43.50708" lon="6.93533">
        <ele>28.39999961853</ele>
        <time>2011-12-09T08:55:48.000Z</time>
      </trkpt>
      <trkpt lat="43.50696" lon="6.93515">
        <ele>29</ele>
        <time>2011-12-09T08:55:53.000Z</time>
      </trkpt>
      <trkpt lat="43.50685" lon="6.93495">
        <ele>28.60000038147</ele>
        <time>2011-12-09T08:55:59.000Z</time>
      </trkpt>
      <trkpt lat="43.5068" lon="6.93476">
        <ele>29.799999237061</ele>
        <time>2011-12-09T08:56:05.000Z</time>
      </trkpt>
      <trkpt lat="43.50675" lon="6.9348">
        <ele>30</ele>
        <time>2011-12-09T08:56:08.000Z</time>
      </trkpt>
      <trkpt lat="43.50676" lon="6.93492">
        <ele>29.39999961853</ele>
        <time>2011-12-09T08:56:12.000Z</time>
      </trkpt>
      <trkpt lat="43.50679" lon="6.93497">
        <ele>29.200000762939</ele>
        <time>2011-12-09T08:56:14.000Z</time>
      </trkpt>
      <trkpt lat="43.50682" lon="6.9351">
        <ele>30.200000762939</ele>
        <time>2011-12-09T08:56:19.000Z</time>
      </trkpt>
      <trkpt lat="43.50687" lon="6.93531">
        <ele>32.200000762939</ele>
        <time>2011-12-09T08:56:27.000Z</time>
      </trkpt>
      <trkpt lat="43.50692" lon="6.93546">
        <ele>33</ele>
        <time>2011-12-09T08:56:33.000Z</time>
      </trkpt>
      <trkpt lat="43.50694" lon="6.93564">
        <ele>34.200000762939</ele>
        <time>2011-12-09T08:56:40.000Z</time>
      </trkpt>
      <trkpt lat="43.50694" lon="6.93572">
        <ele>35</ele>
        <time>2011-12-09T08:56:45.000Z</time>
      </trkpt>
      <trkpt lat="43.50699" lon="6.93589">
        <ele>34.799999237061</ele>
        <time>2011-12-09T08:56:54.000Z</time>
      </trkpt>
      <trkpt lat="43.50705" lon="6.93595">
        <ele>33.200000762939</ele>
        <time>2011-12-09T08:56:59.000Z</time>
      </trkpt>
      <trkpt lat="43.50711" lon="6.93608">
        <ele>31.799999237061</ele>
        <time>2011-12-09T08:57:07.000Z</time>
      </trkpt>
      <trkpt lat="43.50717" lon="6.93623">
        <ele>30.60000038147</ele>
        <time>2011-12-09T08:57:15.000Z</time>
      </trkpt>
      <trkpt lat="43.50721" lon="6.93637">
        <ele>30.39999961853</ele>
        <time>2011-12-09T08:57:22.000Z</time>
      </trkpt>
      <trkpt lat="43.50725" lon="6.93652">
        <ele>29.799999237061</ele>
        <time>2011-12-09T08:57:29.000Z</time>
      </trkpt>
      <trkpt lat="43.50729" lon="6.93674">
        <ele>29.60000038147</ele>
        <time>2011-12-09T08:57:38.000Z</time>
      </trkpt>
      <trkpt lat="43.50735" lon="6.93689">
        <ele>28.200000762939</ele>
        <time>2011-12-09T08:57:44.000Z</time>
      </trkpt>
      <trkpt lat="43.50738" lon="6.93707">
        <ele>28.39999961853</ele>
        <time>2011-12-09T08:57:52.000Z</time>
      </trkpt>
      <trkpt lat="43.50737" lon="6.93714">
        <ele>29</ele>
        <time>2011-12-09T08:57:55.000Z</time>
      </trkpt>
      <trkpt lat="43.50737" lon="6.93718">
        <ele>29.39999961853</ele>
        <time>2011-12-09T08:57:57.000Z</time>
      </trkpt>
      <trkpt lat="43.50739" lon="6.93733">
        <ele>30</ele>
        <time>2011-12-09T08:58:04.000Z</time>
      </trkpt>
      <trkpt lat="43.50737" lon="6.93751">
        <ele>31.60000038147</ele>
        <time>2011-12-09T08:58:13.000Z</time>
      </trkpt>
      <trkpt lat="43.50733" lon="6.93767">
        <ele>32</ele>
        <time>2011-12-09T08:58:21.000Z</time>
      </trkpt>
      <trkpt lat="43.50725" lon="6.93773">
        <ele>33</ele>
        <time>2011-12-09T08:58:27.000Z</time>
      </trkpt>
      <trkpt lat="43.50714" lon="6.93768">
        <ele>34.799999237061</ele>
        <time>2011-12-09T08:58:34.000Z</time>
      </trkpt>
      <trkpt lat="43.50703" lon="6.93757">
        <ele>37.400001525879</ele>
        <time>2011-12-09T08:58:42.000Z</time>
      </trkpt>
      <trkpt lat="43.50696" lon="6.93748">
        <ele>39.400001525879</ele>
        <time>2011-12-09T08:58:48.000Z</time>
      </trkpt>
      <trkpt lat="43.50687" lon="6.93738">
        <ele>41.799999237061</ele>
        <time>2011-12-09T08:58:56.000Z</time>
      </trkpt>
      <trkpt lat="43.50677" lon="6.93726">
        <ele>45</ele>
        <time>2011-12-09T08:59:04.000Z</time>
      </trkpt>
      <trkpt lat="43.50668" lon="6.93714">
        <ele>48.599998474121</ele>
        <time>2011-12-09T08:59:12.000Z</time>
      </trkpt>
      <trkpt lat="43.50656" lon="6.93699">
        <ele>52</ele>
        <time>2011-12-09T08:59:22.000Z</time>
      </trkpt>
      <trkpt lat="43.50642" lon="6.93685">
        <ele>56</ele>
        <time>2011-12-09T08:59:32.000Z</time>
      </trkpt>
      <trkpt lat="43.5063" lon="6.93674">
        <ele>59.799999237061</ele>
        <time>2011-12-09T08:59:41.000Z</time>
      </trkpt>
      <trkpt lat="43.50619" lon="6.93664">
        <ele>63.200000762939</ele>
        <time>2011-12-09T08:59:49.000Z</time>
      </trkpt>
      <trkpt lat="43.50608" lon="6.93656">
        <ele>65.800003051758</ele>
        <time>2011-12-09T08:59:57.000Z</time>
      </trkpt>
      <trkpt lat="43.50599" lon="6.9365">
        <ele>68.400001525879</ele>
        <time>2011-12-09T09:00:04.000Z</time>
      </trkpt>
      <trkpt lat="43.50588" lon="6.93648">
        <ele>71.400001525879</ele>
        <time>2011-12-09T09:00:12.000Z</time>
      </trkpt>
      <trkpt lat="43.50576" lon="6.93646">
        <ele>72.599998474121</ele>
        <time>2011-12-09T09:00:20.000Z</time>
      </trkpt>
      <trkpt lat="43.5056" lon="6.93646">
        <ele>72.400001525879</ele>
        <time>2011-12-09T09:00:29.000Z</time>
      </trkpt>
      <trkpt lat="43.50557" lon="6.93646">
        <ele>72.199996948242</ele>
        <time>2011-12-09T09:00:31.000Z</time>
      </trkpt>
      <trkpt lat="43.50555" lon="6.93643">
        <ele>72.800003051758</ele>
        <time>2011-12-09T09:00:34.000Z</time>
      </trkpt>
      <trkpt lat="43.50556" lon="6.93637">
        <ele>74</ele>
        <time>2011-12-09T09:00:37.000Z</time>
      </trkpt>
      <trkpt lat="43.50557" lon="6.93633">
        <ele>74.599998474121</ele>
        <time>2011-12-09T09:00:39.000Z</time>
      </trkpt>
      <trkpt lat="43.50569" lon="6.93628">
        <ele>75.400001525879</ele>
        <time>2011-12-09T09:00:46.000Z</time>
      </trkpt>
      <trkpt lat="43.50577" lon="6.93623">
        <ele>76</ele>
        <time>2011-12-09T09:00:52.000Z</time>
      </trkpt>
      <trkpt lat="43.50589" lon="6.93617">
        <ele>74.599998474121</ele>
        <time>2011-12-09T09:01:00.000Z</time>
      </trkpt>
      <trkpt lat="43.50602" lon="6.93612">
        <ele>71</ele>
        <time>2011-12-09T09:01:09.000Z</time>
      </trkpt>
      <trkpt lat="43.50605" lon="6.93609">
        <ele>70.199996948242</ele>
        <time>2011-12-09T09:01:12.000Z</time>
      </trkpt>
      <trkpt lat="43.50604" lon="6.93604">
        <ele>70.800003051758</ele>
        <time>2011-12-09T09:01:15.000Z</time>
      </trkpt>
      <trkpt lat="43.50597" lon="6.93601">
        <ele>73.599998474121</ele>
        <time>2011-12-09T09:01:20.000Z</time>
      </trkpt>
      <trkpt lat="43.50596" lon="6.93601">
        <ele>74</ele>
        <time>2011-12-09T09:01:21.000Z</time>
      </trkpt>
      <trkpt lat="43.50586" lon="6.936">
        <ele>77.800003051758</ele>
        <time>2011-12-09T09:01:27.000Z</time>
      </trkpt>
      <trkpt lat="43.50573" lon="6.93596">
        <ele>80</ele>
        <time>2011-12-09T09:01:35.000Z</time>
      </trkpt>
      <trkpt lat="43.5056" lon="6.93594">
        <ele>81.199996948242</ele>
        <time>2011-12-09T09:01:43.000Z</time>
      </trkpt>
      <trkpt lat="43.50548" lon="6.93594">
        <ele>82</ele>
        <time>2011-12-09T09:01:52.000Z</time>
      </trkpt>
      <trkpt lat="43.50539" lon="6.93592">
        <ele>83</ele>
        <time>2011-12-09T09:01:59.000Z</time>
      </trkpt>
      <trkpt lat="43.50526" lon="6.93588">
        <ele>84.800003051758</ele>
        <time>2011-12-09T09:02:07.000Z</time>
      </trkpt>
      <trkpt lat="43.50517" lon="6.93582">
        <ele>86.599998474121</ele>
        <time>2011-12-09T09:02:13.000Z</time>
      </trkpt>
      <trkpt lat="43.50507" lon="6.9357">
        <ele>87.800003051758</ele>
        <time>2011-12-09T09:02:20.000Z</time>
      </trkpt>
      <trkpt lat="43.50493" lon="6.93556">
        <ele>89</ele>
        <time>2011-12-09T09:02:29.000Z</time>
      </trkpt>
      <trkpt lat="43.50481" lon="6.93545">
        <ele>89.599998474121</ele>
        <time>2011-12-09T09:02:37.000Z</time>
      </trkpt>
      <trkpt lat="43.50467" lon="6.93532">
        <ele>90.599998474121</ele>
        <time>2011-12-09T09:02:46.000Z</time>
      </trkpt>
      <trkpt lat="43.50455" lon="6.93527">
        <ele>91</ele>
        <time>2011-12-09T09:02:53.000Z</time>
      </trkpt>
      <trkpt lat="43.50437" lon="6.93523">
        <ele>91.800003051758</ele>
        <time>2011-12-09T09:03:02.000Z</time>
      </trkpt>
      <trkpt lat="43.50424" lon="6.93516">
        <ele>93.199996948242</ele>
        <time>2011-12-09T09:03:09.000Z</time>
      </trkpt>
      <trkpt lat="43.50412" lon="6.93509">
        <ele>94.400001525879</ele>
        <time>2011-12-09T09:03:16.000Z</time>
      </trkpt>
      <trkpt lat="43.50397" lon="6.935">
        <ele>96.199996948242</ele>
        <time>2011-12-09T09:03:25.000Z</time>
      </trkpt>
      <trkpt lat="43.50386" lon="6.93488">
        <ele>96.800003051758</ele>
        <time>2011-12-09T09:03:32.000Z</time>
      </trkpt>
      <trkpt lat="43.50378" lon="6.93473">
        <ele>98</ele>
        <time>2011-12-09T09:03:40.000Z</time>
      </trkpt>
      <trkpt lat="43.50372" lon="6.93468">
        <ele>99.199996948242</ele>
        <time>2011-12-09T09:03:44.000Z</time>
      </trkpt>
      <trkpt lat="43.50371" lon="6.93464">
        <ele>99.800003051758</ele>
        <time>2011-12-09T09:03:46.000Z</time>
      </trkpt>
      <trkpt lat="43.50362" lon="6.93445">
        <ele>103.40000152588</ele>
        <time>2011-12-09T09:03:56.000Z</time>
      </trkpt>
      <trkpt lat="43.50356" lon="6.93431">
        <ele>106.59999847412</ele>
        <time>2011-12-09T09:04:04.000Z</time>
      </trkpt>
      <trkpt lat="43.50351" lon="6.93421">
        <ele>109.80000305176</ele>
        <time>2011-12-09T09:04:10.000Z</time>
      </trkpt>
      <trkpt lat="43.50346" lon="6.93409">
        <ele>111.80000305176</ele>
        <time>2011-12-09T09:04:16.000Z</time>
      </trkpt>
      <trkpt lat="43.50339" lon="6.93393">
        <ele>113.59999847412</ele>
        <time>2011-12-09T09:04:24.000Z</time>
      </trkpt>
      <trkpt lat="43.50335" lon="6.9338">
        <ele>114.59999847412</ele>
        <time>2011-12-09T09:04:31.000Z</time>
      </trkpt>
      <trkpt lat="43.50331" lon="6.9337">
        <ele>115.40000152588</ele>
        <time>2011-12-09T09:04:36.000Z</time>
      </trkpt>
      <trkpt lat="43.50324" lon="6.93358">
        <ele>117.80000305176</ele>
        <time>2011-12-09T09:04:42.000Z</time>
      </trkpt>
      <trkpt lat="43.50317" lon="6.93342">
        <ele>120.59999847412</ele>
        <time>2011-12-09T09:04:48.000Z</time>
      </trkpt>
      <trkpt lat="43.50311" lon="6.93325">
        <ele>123.59999847412</ele>
        <time>2011-12-09T09:04:55.000Z</time>
      </trkpt>
      <trkpt lat="43.5031" lon="6.93323">
        <ele>124.19999694824</ele>
        <time>2011-12-09T09:04:56.000Z</time>
      </trkpt>
      <trkpt lat="43.50306" lon="6.93317">
        <ele>125.80000305176</ele>
        <time>2011-12-09T09:05:00.000Z</time>
      </trkpt>
      <trkpt lat="43.50305" lon="6.93316">
        <ele>126.19999694824</ele>
        <time>2011-12-09T09:05:01.000Z</time>
      </trkpt>
      <trkpt lat="43.50299" lon="6.93304">
        <ele>128.60000610352</ele>
        <time>2011-12-09T09:05:09.000Z</time>
      </trkpt>
      <trkpt lat="43.50295" lon="6.93292">
        <ele>130.39999389648</ele>
        <time>2011-12-09T09:05:16.000Z</time>
      </trkpt>
      <trkpt lat="43.50292" lon="6.93282">
        <ele>131.60000610352</ele>
        <time>2011-12-09T09:05:22.000Z</time>
      </trkpt>
      <trkpt lat="43.50288" lon="6.93265">
        <ele>133.19999694824</ele>
        <time>2011-12-09T09:05:31.000Z</time>
      </trkpt>
      <trkpt lat="43.50281" lon="6.93253">
        <ele>135.60000610352</ele>
        <time>2011-12-09T09:05:39.000Z</time>
      </trkpt>
      <trkpt lat="43.50274" lon="6.93242">
        <ele>139.39999389648</ele>
        <time>2011-12-09T09:05:46.000Z</time>
      </trkpt>
      <trkpt lat="43.50265" lon="6.93232">
        <ele>143.60000610352</ele>
        <time>2011-12-09T09:05:53.000Z</time>
      </trkpt>
      <trkpt lat="43.50262" lon="6.93218">
        <ele>146</ele>
        <time>2011-12-09T09:06:01.000Z</time>
      </trkpt>
      <trkpt lat="43.50257" lon="6.93208">
        <ele>148.39999389648</ele>
        <time>2011-12-09T09:06:07.000Z</time>
      </trkpt>
      <trkpt lat="43.5025" lon="6.93192">
        <ele>151.39999389648</ele>
        <time>2011-12-09T09:06:16.000Z</time>
      </trkpt>
      <trkpt lat="43.5025" lon="6.93179">
        <ele>152.39999389648</ele>
        <time>2011-12-09T09:06:22.000Z</time>
      </trkpt>
      <trkpt lat="43.50255" lon="6.93166">
        <ele>152</ele>
        <time>2011-12-09T09:06:29.000Z</time>
      </trkpt>
      <trkpt lat="43.50267" lon="6.93159">
        <ele>151.19999694824</ele>
        <time>2011-12-09T09:06:38.000Z</time>
      </trkpt>
      <trkpt lat="43.5028" lon="6.93154">
        <ele>149</ele>
        <time>2011-12-09T09:06:46.000Z</time>
      </trkpt>
      <trkpt lat="43.50292" lon="6.9315">
        <ele>147.19999694824</ele>
        <time>2011-12-09T09:06:54.000Z</time>
      </trkpt>
      <trkpt lat="43.50304" lon="6.93146">
        <ele>145</ele>
        <time>2011-12-09T09:07:02.000Z</time>
      </trkpt>
      <trkpt lat="43.50315" lon="6.9314">
        <ele>143.19999694824</ele>
        <time>2011-12-09T09:07:09.000Z</time>
      </trkpt>
      <trkpt lat="43.5033" lon="6.93136">
        <ele>140.39999389648</ele>
        <time>2011-12-09T09:07:18.000Z</time>
      </trkpt>
      <trkpt lat="43.50345" lon="6.93134">
        <ele>137.39999389648</ele>
        <time>2011-12-09T09:07:27.000Z</time>
      </trkpt>
      <trkpt lat="43.5036" lon="6.93127">
        <ele>134.80000305176</ele>
        <time>2011-12-09T09:07:37.000Z</time>
      </trkpt>
      <trkpt lat="43.50361" lon="6.9312">
        <ele>134.80000305176</ele>
        <time>2011-12-09T09:07:41.000Z</time>
      </trkpt>
      <trkpt lat="43.50359" lon="6.93117">
        <ele>135.39999389648</ele>
        <time>2011-12-09T09:07:43.000Z</time>
      </trkpt>
      <trkpt lat="43.50353" lon="6.93115">
        <ele>137</ele>
        <time>2011-12-09T09:07:47.000Z</time>
      </trkpt>
      <trkpt lat="43.50349" lon="6.93114">
        <ele>138.39999389648</ele>
        <time>2011-12-09T09:07:50.000Z</time>
      </trkpt>
      <trkpt lat="43.50337" lon="6.93109">
        <ele>142.39999389648</ele>
        <time>2011-12-09T09:07:58.000Z</time>
      </trkpt>
      <trkpt lat="43.50323" lon="6.93102">
        <ele>147.19999694824</ele>
        <time>2011-12-09T09:08:07.000Z</time>
      </trkpt>
      <trkpt lat="43.50313" lon="6.93095">
        <ele>151.39999389648</ele>
        <time>2011-12-09T09:08:14.000Z</time>
      </trkpt>
      <trkpt lat="43.50303" lon="6.93083">
        <ele>156.39999389648</ele>
        <time>2011-12-09T09:08:22.000Z</time>
      </trkpt>
      <trkpt lat="43.50293" lon="6.93068">
        <ele>159.60000610352</ele>
        <time>2011-12-09T09:08:31.000Z</time>
      </trkpt>
      <trkpt lat="43.50286" lon="6.93056">
        <ele>162.80000305176</ele>
        <time>2011-12-09T09:08:38.000Z</time>
      </trkpt>
      <trkpt lat="43.50279" lon="6.93042">
        <ele>165.80000305176</ele>
        <time>2011-12-09T09:08:45.000Z</time>
      </trkpt>
      <trkpt lat="43.50274" lon="6.93023">
        <ele>169.19999694824</ele>
        <time>2011-12-09T09:08:53.000Z</time>
      </trkpt>
      <trkpt lat="43.50271" lon="6.93004">
        <ele>171.60000610352</ele>
        <time>2011-12-09T09:09:00.000Z</time>
      </trkpt>
      <trkpt lat="43.50269" lon="6.92984">
        <ele>173.19999694824</ele>
        <time>2011-12-09T09:09:07.000Z</time>
      </trkpt>
      <trkpt lat="43.50272" lon="6.92966">
        <ele>172</ele>
        <time>2011-12-09T09:09:14.000Z</time>
      </trkpt>
      <trkpt lat="43.50279" lon="6.92953">
        <ele>168.80000305176</ele>
        <time>2011-12-09T09:09:20.000Z</time>
      </trkpt>
      <trkpt lat="43.50286" lon="6.92938">
        <ele>165.39999389648</ele>
        <time>2011-12-09T09:09:28.000Z</time>
      </trkpt>
      <trkpt lat="43.5029" lon="6.92926">
        <ele>163</ele>
        <time>2011-12-09T09:09:35.000Z</time>
      </trkpt>
      <trkpt lat="43.50287" lon="6.92911">
        <ele>164.39999389648</ele>
        <time>2011-12-09T09:09:43.000Z</time>
      </trkpt>
      <trkpt lat="43.50282" lon="6.92893">
        <ele>166.80000305176</ele>
        <time>2011-12-09T09:09:49.000Z</time>
      </trkpt>
      <trkpt lat="43.50279" lon="6.92868">
        <ele>167.19999694824</ele>
        <time>2011-12-09T09:09:54.000Z</time>
      </trkpt>
      <trkpt lat="43.5027" lon="6.92834">
        <ele>171.39999389648</ele>
        <time>2011-12-09T09:09:59.000Z</time>
      </trkpt>
      <trkpt lat="43.50264" lon="6.92818">
        <ele>173.60000610352</ele>
        <time>2011-12-09T09:10:02.000Z</time>
      </trkpt>
      <trkpt lat="43.5026" lon="6.92807">
        <ele>174.60000610352</ele>
        <time>2011-12-09T09:10:04.000Z</time>
      </trkpt>
      <trkpt lat="43.50253" lon="6.92787">
        <ele>176</ele>
        <time>2011-12-09T09:10:08.000Z</time>
      </trkpt>
      <trkpt lat="43.5025" lon="6.92777">
        <ele>176.39999389648</ele>
        <time>2011-12-09T09:10:10.000Z</time>
      </trkpt>
      <trkpt lat="43.50242" lon="6.92737">
        <ele>177.39999389648</ele>
        <time>2011-12-09T09:10:18.000Z</time>
      </trkpt>
      <trkpt lat="43.50238" lon="6.92701">
        <ele>177.39999389648</ele>
        <time>2011-12-09T09:10:25.000Z</time>
      </trkpt>
      <trkpt lat="43.50234" lon="6.92659">
        <ele>177.19999694824</ele>
        <time>2011-12-09T09:10:34.000Z</time>
      </trkpt>
      <trkpt lat="43.50227" lon="6.9263">
        <ele>179.39999389648</ele>
        <time>2011-12-09T09:10:41.000Z</time>
      </trkpt>
      <trkpt lat="43.50218" lon="6.92595">
        <ele>182.19999694824</ele>
        <time>2011-12-09T09:10:51.000Z</time>
      </trkpt>
      <trkpt lat="43.50212" lon="6.92564">
        <ele>186.19999694824</ele>
        <time>2011-12-09T09:11:00.000Z</time>
      </trkpt>
      <trkpt lat="43.5021" lon="6.92532">
        <ele>190</ele>
        <time>2011-12-09T09:11:09.000Z</time>
      </trkpt>
      <trkpt lat="43.50209" lon="6.92502">
        <ele>192.80000305176</ele>
        <time>2011-12-09T09:11:18.000Z</time>
      </trkpt>
      <trkpt lat="43.50211" lon="6.92483">
        <ele>196.19999694824</ele>
        <time>2011-12-09T09:11:24.000Z</time>
      </trkpt>
      <trkpt lat="43.50229" lon="6.92462">
        <ele>194.60000610352</ele>
        <time>2011-12-09T09:11:34.000Z</time>
      </trkpt>
      <trkpt lat="43.50248" lon="6.92446">
        <ele>193</ele>
        <time>2011-12-09T09:11:43.000Z</time>
      </trkpt>
      <trkpt lat="43.50262" lon="6.9244">
        <ele>193.60000610352</ele>
        <time>2011-12-09T09:11:49.000Z</time>
      </trkpt>
      <trkpt lat="43.50279" lon="6.92436">
        <ele>194.19999694824</ele>
        <time>2011-12-09T09:11:56.000Z</time>
      </trkpt>
      <trkpt lat="43.50298" lon="6.92435">
        <ele>193.60000610352</ele>
        <time>2011-12-09T09:12:04.000Z</time>
      </trkpt>
      <trkpt lat="43.50315" lon="6.9244">
        <ele>191.39999389648</ele>
        <time>2011-12-09T09:12:11.000Z</time>
      </trkpt>
      <trkpt lat="43.50338" lon="6.92445">
        <ele>188.60000610352</ele>
        <time>2011-12-09T09:12:20.000Z</time>
      </trkpt>
      <trkpt lat="43.50356" lon="6.92444">
        <ele>188</ele>
        <time>2011-12-09T09:12:26.000Z</time>
      </trkpt>
      <trkpt lat="43.50384" lon="6.92444">
        <ele>186.80000305176</ele>
        <time>2011-12-09T09:12:35.000Z</time>
      </trkpt>
      <trkpt lat="43.50411" lon="6.92452">
        <ele>185</ele>
        <time>2011-12-09T09:12:44.000Z</time>
      </trkpt>
      <trkpt lat="43.5043" lon="6.92464">
        <ele>185.39999389648</ele>
        <time>2011-12-09T09:12:51.000Z</time>
      </trkpt>
      <trkpt lat="43.50444" lon="6.9248">
        <ele>186.80000305176</ele>
        <time>2011-12-09T09:12:57.000Z</time>
      </trkpt>
      <trkpt lat="43.50461" lon="6.92494">
        <ele>189.80000305176</ele>
        <time>2011-12-09T09:13:03.000Z</time>
      </trkpt>
      <trkpt lat="43.50474" lon="6.9251">
        <ele>190.60000610352</ele>
        <time>2011-12-09T09:13:10.000Z</time>
      </trkpt>
      <trkpt lat="43.50487" lon="6.92522">
        <ele>191.39999389648</ele>
        <time>2011-12-09T09:13:18.000Z</time>
      </trkpt>
      <trkpt lat="43.505" lon="6.92525">
        <ele>194</ele>
        <time>2011-12-09T09:13:26.000Z</time>
      </trkpt>
      <trkpt lat="43.50511" lon="6.92527">
        <ele>196</ele>
        <time>2011-12-09T09:13:33.000Z</time>
      </trkpt>
      <trkpt lat="43.50521" lon="6.92529">
        <ele>197.80000305176</ele>
        <time>2011-12-09T09:13:40.000Z</time>
      </trkpt>
      <trkpt lat="43.50528" lon="6.92529">
        <ele>199.19999694824</ele>
        <time>2011-12-09T09:13:45.000Z</time>
      </trkpt>
      <trkpt lat="43.50536" lon="6.92531">
        <ele>200.60000610352</ele>
        <time>2011-12-09T09:13:51.000Z</time>
      </trkpt>
      <trkpt lat="43.50546" lon="6.92529">
        <ele>203</ele>
        <time>2011-12-09T09:13:58.000Z</time>
      </trkpt>
      <trkpt lat="43.50548" lon="6.92528">
        <ele>203.39999389648</ele>
        <time>2011-12-09T09:14:00.000Z</time>
      </trkpt>
      <trkpt lat="43.50549" lon="6.92527">
        <ele>203.80000305176</ele>
        <time>2011-12-09T09:14:03.000Z</time>
      </trkpt>
      <trkpt lat="43.50554" lon="6.92525">
        <ele>205</ele>
        <time>2011-12-09T09:14:12.000Z</time>
      </trkpt>
      <trkpt lat="43.5056" lon="6.92522">
        <ele>206.39999389648</ele>
        <time>2011-12-09T09:14:20.000Z</time>
      </trkpt>
      <trkpt lat="43.50565" lon="6.9252">
        <ele>207.80000305176</ele>
        <time>2011-12-09T09:14:28.000Z</time>
      </trkpt>
      <trkpt lat="43.5057" lon="6.92518">
        <ele>209.19999694824</ele>
        <time>2011-12-09T09:14:36.000Z</time>
      </trkpt>
      <trkpt lat="43.50576" lon="6.92515">
        <ele>210.60000610352</ele>
        <time>2011-12-09T09:14:44.000Z</time>
      </trkpt>
      <trkpt lat="43.50582" lon="6.92513">
        <ele>212.19999694824</ele>
        <time>2011-12-09T09:14:53.000Z</time>
      </trkpt>
      <trkpt lat="43.50589" lon="6.9251">
        <ele>211.19999694824</ele>
        <time>2011-12-09T09:15:01.000Z</time>
      </trkpt>
      <trkpt lat="43.50593" lon="6.92507">
        <ele>210.39999389648</ele>
        <time>2011-12-09T09:15:07.000Z</time>
      </trkpt>
      <trkpt lat="43.50595" lon="6.92505">
        <ele>210.19999694824</ele>
        <time>2011-12-09T09:15:09.000Z</time>
      </trkpt>
      <trkpt lat="43.50595" lon="6.92503">
        <ele>210.39999389648</ele>
        <time>2011-12-09T09:15:14.000Z</time>
      </trkpt>
      <trkpt lat="43.50595" lon="6.92502">
        <ele>210.60000610352</ele>
        <time>2011-12-09T09:15:21.000Z</time>
      </trkpt>
      <trkpt lat="43.50596" lon="6.92503">
        <ele>210.19999694824</ele>
        <time>2011-12-09T09:15:53.000Z</time>
      </trkpt>
      <trkpt lat="43.50596" lon="6.92504">
        <ele>210</ele>
        <time>2011-12-09T09:16:08.000Z</time>
      </trkpt>
      <trkpt lat="43.50599" lon="6.92498">
        <ele>209.80000305176</ele>
        <time>2011-12-09T09:16:15.000Z</time>
      </trkpt>
      <trkpt lat="43.50603" lon="6.92483">
        <ele>208.80000305176</ele>
        <time>2011-12-09T09:16:22.000Z</time>
      </trkpt>
      <trkpt lat="43.50607" lon="6.92469">
        <ele>208.39999389648</ele>
        <time>2011-12-09T09:16:28.000Z</time>
      </trkpt>
      <trkpt lat="43.5061" lon="6.92451">
        <ele>208.39999389648</ele>
        <time>2011-12-09T09:16:34.000Z</time>
      </trkpt>
      <trkpt lat="43.50614" lon="6.92429">
        <ele>208.39999389648</ele>
        <time>2011-12-09T09:16:40.000Z</time>
      </trkpt>
      <trkpt lat="43.50621" lon="6.92408">
        <ele>208.60000610352</ele>
        <time>2011-12-09T09:16:46.000Z</time>
      </trkpt>
      <trkpt lat="43.50622" lon="6.92388">
        <ele>209</ele>
        <time>2011-12-09T09:16:51.000Z</time>
      </trkpt>
      <trkpt lat="43.50623" lon="6.92366">
        <ele>209.60000610352</ele>
        <time>2011-12-09T09:16:57.000Z</time>
      </trkpt>
      <trkpt lat="43.50625" lon="6.92352">
        <ele>210</ele>
        <time>2011-12-09T09:17:02.000Z</time>
      </trkpt>
      <trkpt lat="43.50626" lon="6.9235">
        <ele>210</ele>
        <time>2011-12-09T09:17:03.000Z</time>
      </trkpt>
      <trkpt lat="43.50632" lon="6.9234">
        <ele>210.60000610352</ele>
        <time>2011-12-09T09:17:07.000Z</time>
      </trkpt>
      <trkpt lat="43.50634" lon="6.92336">
        <ele>211</ele>
        <time>2011-12-09T09:17:10.000Z</time>
      </trkpt>
      <trkpt lat="43.50634" lon="6.92336">
        <ele>211</ele>
        <time>2011-12-09T09:17:11.000Z</time>
      </trkpt>
      <trkpt lat="43.50636" lon="6.92332">
        <ele>211</ele>
        <time>2011-12-09T09:17:17.000Z</time>
      </trkpt>
      <trkpt lat="43.50636" lon="6.92329">
        <ele>210.60000610352</ele>
        <time>2011-12-09T09:17:19.000Z</time>
      </trkpt>
      <trkpt lat="43.50636" lon="6.92329">
        <ele>210.60000610352</ele>
        <time>2011-12-09T09:17:23.000Z</time>
      </trkpt>
      <trkpt lat="43.50639" lon="6.92321">
        <ele>209.80000305176</ele>
        <time>2011-12-09T09:17:31.000Z</time>
      </trkpt>
      <trkpt lat="43.50643" lon="6.92315">
        <ele>209.39999389648</ele>
        <time>2011-12-09T09:17:33.000Z</time>
      </trkpt>
      <trkpt lat="43.50649" lon="6.92312">
        <ele>209.39999389648</ele>
        <time>2011-12-09T09:17:35.000Z</time>
      </trkpt>
      <trkpt lat="43.50659" lon="6.92304">
        <ele>209.19999694824</ele>
        <time>2011-12-09T09:17:38.000Z</time>
      </trkpt>
      <trkpt lat="43.50666" lon="6.92301">
        <ele>209.39999389648</ele>
        <time>2011-12-09T09:17:40.000Z</time>
      </trkpt>
      <trkpt lat="43.50684" lon="6.92283">
        <ele>204</ele>
        <time>2011-12-09T09:17:45.000Z</time>
      </trkpt>
      <trkpt lat="43.50693" lon="6.92272">
        <ele>201.80000305176</ele>
        <time>2011-12-09T09:17:47.000Z</time>
      </trkpt>
      <trkpt lat="43.50701" lon="6.92267">
        <ele>200.39999389648</ele>
        <time>2011-12-09T09:17:49.000Z</time>
      </trkpt>
      <trkpt lat="43.50716" lon="6.92252">
        <ele>198.60000610352</ele>
        <time>2011-12-09T09:17:53.000Z</time>
      </trkpt>
      <trkpt lat="43.50725" lon="6.92247">
        <ele>197</ele>
        <time>2011-12-09T09:17:55.000Z</time>
      </trkpt>
      <trkpt lat="43.5073" lon="6.92243">
        <ele>196</ele>
        <time>2011-12-09T09:17:56.000Z</time>
      </trkpt>
      <trkpt lat="43.50735" lon="6.92239">
        <ele>195</ele>
        <time>2011-12-09T09:17:57.000Z</time>
      </trkpt>
      <trkpt lat="43.50739" lon="6.92237">
        <ele>194.19999694824</ele>
        <time>2011-12-09T09:17:58.000Z</time>
      </trkpt>
      <trkpt lat="43.50757" lon="6.92227">
        <ele>192.19999694824</ele>
        <time>2011-12-09T09:18:01.000Z</time>
      </trkpt>
      <trkpt lat="43.5077" lon="6.92219">
        <ele>191.39999389648</ele>
        <time>2011-12-09T09:18:03.000Z</time>
      </trkpt>
      <trkpt lat="43.50791" lon="6.92209">
        <ele>191</ele>
        <time>2011-12-09T09:18:06.000Z</time>
      </trkpt>
      <trkpt lat="43.50798" lon="6.92206">
        <ele>191</ele>
        <time>2011-12-09T09:18:07.000Z</time>
      </trkpt>
      <trkpt lat="43.50817" lon="6.92205">
        <ele>191.60000610352</ele>
        <time>2011-12-09T09:18:10.000Z</time>
      </trkpt>
      <trkpt lat="43.50823" lon="6.92206">
        <ele>191.80000305176</ele>
        <time>2011-12-09T09:18:11.000Z</time>
      </trkpt>
      <trkpt lat="43.50837" lon="6.92211">
        <ele>192.80000305176</ele>
        <time>2011-12-09T09:18:14.000Z</time>
      </trkpt>
      <trkpt lat="43.50841" lon="6.92213">
        <ele>194</ele>
        <time>2011-12-09T09:18:15.000Z</time>
      </trkpt>
      <trkpt lat="43.50845" lon="6.92216">
        <ele>195</ele>
        <time>2011-12-09T09:18:16.000Z</time>
      </trkpt>
      <trkpt lat="43.50856" lon="6.92226">
        <ele>198</ele>
        <time>2011-12-09T09:18:19.000Z</time>
      </trkpt>
      <trkpt lat="43.50859" lon="6.9223">
        <ele>198.80000305176</ele>
        <time>2011-12-09T09:18:20.000Z</time>
      </trkpt>
      <trkpt lat="43.5087" lon="6.92257">
        <ele>201.39999389648</ele>
        <time>2011-12-09T09:18:25.000Z</time>
      </trkpt>
      <trkpt lat="43.5087" lon="6.92275">
        <ele>201</ele>
        <time>2011-12-09T09:18:28.000Z</time>
      </trkpt>
      <trkpt lat="43.5087" lon="6.92286">
        <ele>200.19999694824</ele>
        <time>2011-12-09T09:18:30.000Z</time>
      </trkpt>
      <trkpt lat="43.5087" lon="6.92296">
        <ele>200</ele>
        <time>2011-12-09T09:18:32.000Z</time>
      </trkpt>
      <trkpt lat="43.50871" lon="6.92311">
        <ele>200</ele>
        <time>2011-12-09T09:18:35.000Z</time>
      </trkpt>
      <trkpt lat="43.50871" lon="6.92316">
        <ele>199.80000305176</ele>
        <time>2011-12-09T09:18:36.000Z</time>
      </trkpt>
      <trkpt lat="43.50873" lon="6.9235">
        <ele>199.60000610352</ele>
        <time>2011-12-09T09:18:43.000Z</time>
      </trkpt>
      <trkpt lat="43.50876" lon="6.92383">
        <ele>199.60000610352</ele>
        <time>2011-12-09T09:18:50.000Z</time>
      </trkpt>
      <trkpt lat="43.50879" lon="6.92421">
        <ele>199.60000610352</ele>
        <time>2011-12-09T09:18:57.000Z</time>
      </trkpt>
      <trkpt lat="43.50888" lon="6.92452">
        <ele>201</ele>
        <time>2011-12-09T09:19:03.000Z</time>
      </trkpt>
      <trkpt lat="43.50895" lon="6.92479">
        <ele>202</ele>
        <time>2011-12-09T09:19:09.000Z</time>
      </trkpt>
      <trkpt lat="43.50905" lon="6.92525">
        <ele>202.80000305176</ele>
        <time>2011-12-09T09:19:19.000Z</time>
      </trkpt>
      <trkpt lat="43.50912" lon="6.92559">
        <ele>202</ele>
        <time>2011-12-09T09:19:27.000Z</time>
      </trkpt>
      <trkpt lat="43.50921" lon="6.92595">
        <ele>202.60000610352</ele>
        <time>2011-12-09T09:19:35.000Z</time>
      </trkpt>
      <trkpt lat="43.50935" lon="6.92639">
        <ele>203.60000610352</ele>
        <time>2011-12-09T09:19:45.000Z</time>
      </trkpt>
      <trkpt lat="43.50944" lon="6.92664">
        <ele>205</ele>
        <time>2011-12-09T09:19:51.000Z</time>
      </trkpt>
      <trkpt lat="43.50959" lon="6.92685">
        <ele>209.80000305176</ele>
        <time>2011-12-09T09:19:58.000Z</time>
      </trkpt>
      <trkpt lat="43.50974" lon="6.92709">
        <ele>215</ele>
        <time>2011-12-09T09:20:06.000Z</time>
      </trkpt>
      <trkpt lat="43.50978" lon="6.92722">
        <ele>215.19999694824</ele>
        <time>2011-12-09T09:20:11.000Z</time>
      </trkpt>
      <trkpt lat="43.50982" lon="6.92743">
        <ele>215.39999389648</ele>
        <time>2011-12-09T09:20:18.000Z</time>
      </trkpt>
      <trkpt lat="43.50986" lon="6.92761">
        <ele>217.19999694824</ele>
        <time>2011-12-09T09:20:26.000Z</time>
      </trkpt>
      <trkpt lat="43.50986" lon="6.92763">
        <ele>217</ele>
        <time>2011-12-09T09:20:27.000Z</time>
      </trkpt>
      <trkpt lat="43.50986" lon="6.92773">
        <ele>217</ele>
        <time>2011-12-09T09:20:33.000Z</time>
      </trkpt>
      <trkpt lat="43.50988" lon="6.92783">
        <ele>218.39999389648</ele>
        <time>2011-12-09T09:20:39.000Z</time>
      </trkpt>
      <trkpt lat="43.50989" lon="6.92789">
        <ele>219.39999389648</ele>
        <time>2011-12-09T09:20:43.000Z</time>
      </trkpt>
      <trkpt lat="43.50989" lon="6.92792">
        <ele>219.39999389648</ele>
        <time>2011-12-09T09:20:45.000Z</time>
      </trkpt>
      <trkpt lat="43.50988" lon="6.92807">
        <ele>218.80000305176</ele>
        <time>2011-12-09T09:20:53.000Z</time>
      </trkpt>
      <trkpt lat="43.50986" lon="6.92815">
        <ele>218.19999694824</ele>
        <time>2011-12-09T09:20:58.000Z</time>
      </trkpt>
      <trkpt lat="43.50986" lon="6.92816">
        <ele>218.19999694824</ele>
        <time>2011-12-09T09:20:59.000Z</time>
      </trkpt>
      <trkpt lat="43.50989" lon="6.92826">
        <ele>220.19999694824</ele>
        <time>2011-12-09T09:21:06.000Z</time>
      </trkpt>
      <trkpt lat="43.5099" lon="6.9284">
        <ele>220.39999389648</ele>
        <time>2011-12-09T09:21:13.000Z</time>
      </trkpt>
      <trkpt lat="43.50989" lon="6.92855">
        <ele>219.60000610352</ele>
        <time>2011-12-09T09:21:20.000Z</time>
      </trkpt>
      <trkpt lat="43.50993" lon="6.92876">
        <ele>221</ele>
        <time>2011-12-09T09:21:28.000Z</time>
      </trkpt>
      <trkpt lat="43.50996" lon="6.92901">
        <ele>222.19999694824</ele>
        <time>2011-12-09T09:21:35.000Z</time>
      </trkpt>
      <trkpt lat="43.51003" lon="6.92935">
        <ele>223.80000305176</ele>
        <time>2011-12-09T09:21:45.000Z</time>
      </trkpt>
      <trkpt lat="43.51008" lon="6.92959">
        <ele>223</ele>
        <time>2011-12-09T09:21:53.000Z</time>
      </trkpt>
      <trkpt lat="43.5101" lon="6.92982">
        <ele>221.80000305176</ele>
        <time>2011-12-09T09:22:00.000Z</time>
      </trkpt>
      <trkpt lat="43.5101" lon="6.92996">
        <ele>220.60000610352</ele>
        <time>2011-12-09T09:22:06.000Z</time>
      </trkpt>
      <trkpt lat="43.51008" lon="6.93005">
        <ele>218.80000305176</ele>
        <time>2011-12-09T09:22:10.000Z</time>
      </trkpt>
      <trkpt lat="43.51049" lon="6.92981">
        <ele>231.39999389648</ele>
        <time>2011-12-09T09:27:05.000Z</time>
      </trkpt>
      <trkpt lat="43.5105" lon="6.92981">
        <ele>231.60000610352</ele>
        <time>2011-12-09T09:27:06.000Z</time>
      </trkpt>
      <trkpt lat="43.51054" lon="6.92981">
        <ele>232.39999389648</ele>
        <time>2011-12-09T09:27:09.000Z</time>
      </trkpt>
      <trkpt lat="43.51057" lon="6.92982">
        <ele>233.19999694824</ele>
        <time>2011-12-09T09:27:11.000Z</time>
      </trkpt>
      <trkpt lat="43.51063" lon="6.92983">
        <ele>234.39999389648</ele>
        <time>2011-12-09T09:27:17.000Z</time>
      </trkpt>
      <trkpt lat="43.51067" lon="6.92982">
        <ele>235.60000610352</ele>
        <time>2011-12-09T09:27:23.000Z</time>
      </trkpt>
      <trkpt lat="43.51068" lon="6.92983">
        <ele>235.60000610352</ele>
        <time>2011-12-09T09:27:31.000Z</time>
      </trkpt>
      <trkpt lat="43.51073" lon="6.92984">
        <ele>236.60000610352</ele>
        <time>2011-12-09T09:27:41.000Z</time>
      </trkpt>
      <trkpt lat="43.51083" lon="6.92984">
        <ele>239</ele>
        <time>2011-12-09T09:27:47.000Z</time>
      </trkpt>
      <trkpt lat="43.51096" lon="6.92987">
        <ele>239.19999694824</ele>
        <time>2011-12-09T09:27:56.000Z</time>
      </trkpt>
      <trkpt lat="43.51106" lon="6.92989">
        <ele>239.39999389648</ele>
        <time>2011-12-09T09:28:03.000Z</time>
      </trkpt>
      <trkpt lat="43.51117" lon="6.92993">
        <ele>239.60000610352</ele>
        <time>2011-12-09T09:28:11.000Z</time>
      </trkpt>
      <trkpt lat="43.51127" lon="6.92994">
        <ele>240</ele>
        <time>2011-12-09T09:28:18.000Z</time>
      </trkpt>
      <trkpt lat="43.51128" lon="6.92993">
        <ele>240.19999694824</ele>
        <time>2011-12-09T09:28:23.000Z</time>
      </trkpt>
      <trkpt lat="43.51133" lon="6.92991">
        <ele>240.80000305176</ele>
        <time>2011-12-09T09:28:32.000Z</time>
      </trkpt>
      <trkpt lat="43.51133" lon="6.92986">
        <ele>241.39999389648</ele>
        <time>2011-12-09T09:28:37.000Z</time>
      </trkpt>
      <trkpt lat="43.51132" lon="6.92979">
        <ele>242.19999694824</ele>
        <time>2011-12-09T09:28:44.000Z</time>
      </trkpt>
      <trkpt lat="43.51131" lon="6.9297">
        <ele>243.39999389648</ele>
        <time>2011-12-09T09:28:52.000Z</time>
      </trkpt>
      <trkpt lat="43.51132" lon="6.92966">
        <ele>244</ele>
        <time>2011-12-09T09:29:00.000Z</time>
      </trkpt>
      <trkpt lat="43.51132" lon="6.92962">
        <ele>244.39999389648</ele>
        <time>2011-12-09T09:29:03.000Z</time>
      </trkpt>
      <trkpt lat="43.51129" lon="6.92959">
        <ele>244.80000305176</ele>
        <time>2011-12-09T09:29:07.000Z</time>
      </trkpt>
      <trkpt lat="43.51128" lon="6.92957">
        <ele>245</ele>
        <time>2011-12-09T09:29:09.000Z</time>
      </trkpt>
      <trkpt lat="43.51127" lon="6.92955">
        <ele>245.19999694824</ele>
        <time>2011-12-09T09:29:13.000Z</time>
      </trkpt>
      <trkpt lat="43.5112" lon="6.92944">
        <ele>246.60000610352</ele>
        <time>2011-12-09T09:29:19.000Z</time>
      </trkpt>
      <trkpt lat="43.51111" lon="6.92934">
        <ele>248.19999694824</ele>
        <time>2011-12-09T09:29:25.000Z</time>
      </trkpt>
      <trkpt lat="43.5111" lon="6.92932">
        <ele>248.60000610352</ele>
        <time>2011-12-09T09:29:26.000Z</time>
      </trkpt>
      <trkpt lat="43.51107" lon="6.92924">
        <ele>249.80000305176</ele>
        <time>2011-12-09T09:29:30.000Z</time>
      </trkpt>
      <trkpt lat="43.51106" lon="6.92922">
        <ele>250.19999694824</ele>
        <time>2011-12-09T09:29:32.000Z</time>
      </trkpt>
      <trkpt lat="43.51105" lon="6.9292">
        <ele>250.80000305176</ele>
        <time>2011-12-09T09:29:34.000Z</time>
      </trkpt>
      <trkpt lat="43.51103" lon="6.92915">
        <ele>251.39999389648</ele>
        <time>2011-12-09T09:29:37.000Z</time>
      </trkpt>
      <trkpt lat="43.51102" lon="6.9291">
        <ele>251.60000610352</ele>
        <time>2011-12-09T09:29:40.000Z</time>
      </trkpt>
      <trkpt lat="43.511" lon="6.92905">
        <ele>252</ele>
        <time>2011-12-09T09:29:43.000Z</time>
      </trkpt>
      <trkpt lat="43.51098" lon="6.929">
        <ele>252.39999389648</ele>
        <time>2011-12-09T09:29:46.000Z</time>
      </trkpt>
      <trkpt lat="43.51096" lon="6.92897">
        <ele>252.60000610352</ele>
        <time>2011-12-09T09:29:48.000Z</time>
      </trkpt>
      <trkpt lat="43.51093" lon="6.92891">
        <ele>253.19999694824</ele>
        <time>2011-12-09T09:29:52.000Z</time>
      </trkpt>
      <trkpt lat="43.51092" lon="6.92886">
        <ele>253.60000610352</ele>
        <time>2011-12-09T09:29:55.000Z</time>
      </trkpt>
      <trkpt lat="43.51091" lon="6.9288">
        <ele>254</ele>
        <time>2011-12-09T09:29:58.000Z</time>
      </trkpt>
      <trkpt lat="43.51089" lon="6.92872">
        <ele>254.60000610352</ele>
        <time>2011-12-09T09:30:02.000Z</time>
      </trkpt>
      <trkpt lat="43.51088" lon="6.92866">
        <ele>255</ele>
        <time>2011-12-09T09:30:05.000Z</time>
      </trkpt>
      <trkpt lat="43.51087" lon="6.9286">
        <ele>255.60000610352</ele>
        <time>2011-12-09T09:30:08.000Z</time>
      </trkpt>
      <trkpt lat="43.51088" lon="6.92853">
        <ele>256</ele>
        <time>2011-12-09T09:30:11.000Z</time>
      </trkpt>
      <trkpt lat="43.51089" lon="6.92849">
        <ele>256.20001220703</ele>
        <time>2011-12-09T09:30:13.000Z</time>
      </trkpt>
      <trkpt lat="43.51089" lon="6.92843">
        <ele>256.39999389648</ele>
        <time>2011-12-09T09:30:16.000Z</time>
      </trkpt>
      <trkpt lat="43.51091" lon="6.92842">
        <ele>256.39999389648</ele>
        <time>2011-12-09T09:30:17.000Z</time>
      </trkpt>
      <trkpt lat="43.51093" lon="6.92831">
        <ele>256.39999389648</ele>
        <time>2011-12-09T09:30:22.000Z</time>
      </trkpt>
      <trkpt lat="43.51094" lon="6.92824">
        <ele>256.20001220703</ele>
        <time>2011-12-09T09:30:26.000Z</time>
      </trkpt>
      <trkpt lat="43.51094" lon="6.92822">
        <ele>256</ele>
        <time>2011-12-09T09:30:27.000Z</time>
      </trkpt>
      <trkpt lat="43.51094" lon="6.92811">
        <ele>255.80000305176</ele>
        <time>2011-12-09T09:30:32.000Z</time>
      </trkpt>
      <trkpt lat="43.51094" lon="6.92808">
        <ele>255.60000610352</ele>
        <time>2011-12-09T09:30:33.000Z</time>
      </trkpt>
      <trkpt lat="43.51093" lon="6.92791">
        <ele>255.39999389648</ele>
        <time>2011-12-09T09:30:38.000Z</time>
      </trkpt>
      <trkpt lat="43.51093" lon="6.92767">
        <ele>254.80000305176</ele>
        <time>2011-12-09T09:30:43.000Z</time>
      </trkpt>
      <trkpt lat="43.5109" lon="6.92745">
        <ele>254.60000610352</ele>
        <time>2011-12-09T09:30:48.000Z</time>
      </trkpt>
      <trkpt lat="43.51088" lon="6.92725">
        <ele>254.39999389648</ele>
        <time>2011-12-09T09:30:52.000Z</time>
      </trkpt>
      <trkpt lat="43.51082" lon="6.92705">
        <ele>254.60000610352</ele>
        <time>2011-12-09T09:30:56.000Z</time>
      </trkpt>
      <trkpt lat="43.51078" lon="6.92686">
        <ele>253</ele>
        <time>2011-12-09T09:31:00.000Z</time>
      </trkpt>
      <trkpt lat="43.51067" lon="6.9266">
        <ele>249.80000305176</ele>
        <time>2011-12-09T09:31:05.000Z</time>
      </trkpt>
      <trkpt lat="43.51061" lon="6.92642">
        <ele>248</ele>
        <time>2011-12-09T09:31:08.000Z</time>
      </trkpt>
      <trkpt lat="43.51055" lon="6.92625">
        <ele>246.80000305176</ele>
        <time>2011-12-09T09:31:11.000Z</time>
      </trkpt>
      <trkpt lat="43.51053" lon="6.92609">
        <ele>246.60000610352</ele>
        <time>2011-12-09T09:31:14.000Z</time>
      </trkpt>
      <trkpt lat="43.51052" lon="6.92599">
        <ele>246.60000610352</ele>
        <time>2011-12-09T09:31:16.000Z</time>
      </trkpt>
      <trkpt lat="43.51051" lon="6.92594">
        <ele>246.60000610352</ele>
        <time>2011-12-09T09:31:17.000Z</time>
      </trkpt>
      <trkpt lat="43.51044" lon="6.92572">
        <ele>245.80000305176</ele>
        <time>2011-12-09T09:31:22.000Z</time>
      </trkpt>
      <trkpt lat="43.5104" lon="6.92562">
        <ele>245.39999389648</ele>
        <time>2011-12-09T09:31:25.000Z</time>
      </trkpt>
      <trkpt lat="43.51038" lon="6.92551">
        <ele>245</ele>
        <time>2011-12-09T09:31:28.000Z</time>
      </trkpt>
      <trkpt lat="43.51035" lon="6.92544">
        <ele>245</ele>
        <time>2011-12-09T09:31:30.000Z</time>
      </trkpt>
      <trkpt lat="43.51033" lon="6.92535">
        <ele>245</ele>
        <time>2011-12-09T09:31:32.000Z</time>
      </trkpt>
      <trkpt lat="43.51027" lon="6.92511">
        <ele>245.39999389648</ele>
        <time>2011-12-09T09:31:37.000Z</time>
      </trkpt>
      <trkpt lat="43.5102" lon="6.92487">
        <ele>245.39999389648</ele>
        <time>2011-12-09T09:31:42.000Z</time>
      </trkpt>
      <trkpt lat="43.51018" lon="6.92483">
        <ele>245.39999389648</ele>
        <time>2011-12-09T09:31:44.000Z</time>
      </trkpt>
      <trkpt lat="43.51015" lon="6.92475">
        <ele>245.19999694824</ele>
        <time>2011-12-09T09:31:46.000Z</time>
      </trkpt>
      <trkpt lat="43.51007" lon="6.9246">
        <ele>246</ele>
        <time>2011-12-09T09:31:49.000Z</time>
      </trkpt>
      <trkpt lat="43.51005" lon="6.92454">
        <ele>246.19999694824</ele>
        <time>2011-12-09T09:31:50.000Z</time>
      </trkpt>
      <trkpt lat="43.51" lon="6.92443">
        <ele>247</ele>
        <time>2011-12-09T09:31:53.000Z</time>
      </trkpt>
      <trkpt lat="43.50999" lon="6.9244">
        <ele>246.39999389648</ele>
        <time>2011-12-09T09:31:54.000Z</time>
      </trkpt>
      <trkpt lat="43.51" lon="6.92433">
        <ele>246.39999389648</ele>
        <time>2011-12-09T09:31:57.000Z</time>
      </trkpt>
      <trkpt lat="43.50998" lon="6.92426">
        <ele>245.80000305176</ele>
        <time>2011-12-09T09:31:59.000Z</time>
      </trkpt>
      <trkpt lat="43.50996" lon="6.92419">
        <ele>244.60000610352</ele>
        <time>2011-12-09T09:32:01.000Z</time>
      </trkpt>
      <trkpt lat="43.50995" lon="6.92416">
        <ele>244.39999389648</ele>
        <time>2011-12-09T09:32:02.000Z</time>
      </trkpt>
      <trkpt lat="43.50996" lon="6.92409">
        <ele>244.39999389648</ele>
        <time>2011-12-09T09:32:04.000Z</time>
      </trkpt>
      <trkpt lat="43.50993" lon="6.92397">
        <ele>243</ele>
        <time>2011-12-09T09:32:08.000Z</time>
      </trkpt>
      <trkpt lat="43.50992" lon="6.92387">
        <ele>242</ele>
        <time>2011-12-09T09:32:11.000Z</time>
      </trkpt>
      <trkpt lat="43.50991" lon="6.92382">
        <ele>241.60000610352</ele>
        <time>2011-12-09T09:32:12.000Z</time>
      </trkpt>
      <trkpt lat="43.50989" lon="6.92368">
        <ele>240.19999694824</ele>
        <time>2011-12-09T09:32:16.000Z</time>
      </trkpt>
      <trkpt lat="43.50989" lon="6.92365">
        <ele>240.19999694824</ele>
        <time>2011-12-09T09:32:17.000Z</time>
      </trkpt>
      <trkpt lat="43.50991" lon="6.92356">
        <ele>240.39999389648</ele>
        <time>2011-12-09T09:32:19.000Z</time>
      </trkpt>
      <trkpt lat="43.50992" lon="6.92341">
        <ele>240</ele>
        <time>2011-12-09T09:32:23.000Z</time>
      </trkpt>
      <trkpt lat="43.50993" lon="6.92337">
        <ele>240.19999694824</ele>
        <time>2011-12-09T09:32:24.000Z</time>
      </trkpt>
      <trkpt lat="43.50998" lon="6.92325">
        <ele>240.80000305176</ele>
        <time>2011-12-09T09:32:26.000Z</time>
      </trkpt>
      <trkpt lat="43.51001" lon="6.92297">
        <ele>238.80000305176</ele>
        <time>2011-12-09T09:32:29.000Z</time>
      </trkpt>
      <trkpt lat="43.51003" lon="6.92265">
        <ele>236</ele>
        <time>2011-12-09T09:32:32.000Z</time>
      </trkpt>
      <trkpt lat="43.51002" lon="6.92233">
        <ele>235.19999694824</ele>
        <time>2011-12-09T09:32:35.000Z</time>
      </trkpt>
      <trkpt lat="43.51" lon="6.92215">
        <ele>235.39999389648</ele>
        <time>2011-12-09T09:32:38.000Z</time>
      </trkpt>
      <trkpt lat="43.51" lon="6.92209">
        <ele>235.39999389648</ele>
        <time>2011-12-09T09:32:39.000Z</time>
      </trkpt>
      <trkpt lat="43.51006" lon="6.92195">
        <ele>233.19999694824</ele>
        <time>2011-12-09T09:32:42.000Z</time>
      </trkpt>
      <trkpt lat="43.51015" lon="6.92177">
        <ele>230.19999694824</ele>
        <time>2011-12-09T09:32:46.000Z</time>
      </trkpt>
      <trkpt lat="43.51015" lon="6.92167">
        <ele>230</ele>
        <time>2011-12-09T09:32:49.000Z</time>
      </trkpt>
      <trkpt lat="43.51013" lon="6.92147">
        <ele>227.60000610352</ele>
        <time>2011-12-09T09:32:54.000Z</time>
      </trkpt>
      <trkpt lat="43.51009" lon="6.92142">
        <ele>228.19999694824</ele>
        <time>2011-12-09T09:32:56.000Z</time>
      </trkpt>
      <trkpt lat="43.51005" lon="6.92135">
        <ele>228.60000610352</ele>
        <time>2011-12-09T09:32:58.000Z</time>
      </trkpt>
      <trkpt lat="43.50999" lon="6.9213">
        <ele>229</ele>
        <time>2011-12-09T09:33:01.000Z</time>
      </trkpt>
      <trkpt lat="43.50997" lon="6.92123">
        <ele>227.39999389648</ele>
        <time>2011-12-09T09:33:03.000Z</time>
      </trkpt>
      <trkpt lat="43.50997" lon="6.92119">
        <ele>226.80000305176</ele>
        <time>2011-12-09T09:33:04.000Z</time>
      </trkpt>
      <trkpt lat="43.50997" lon="6.92098">
        <ele>223.60000610352</ele>
        <time>2011-12-09T09:33:09.000Z</time>
      </trkpt>
      <trkpt lat="43.50995" lon="6.92084">
        <ele>221</ele>
        <time>2011-12-09T09:33:13.000Z</time>
      </trkpt>
      <trkpt lat="43.50988" lon="6.92064">
        <ele>214.60000610352</ele>
        <time>2011-12-09T09:33:17.000Z</time>
      </trkpt>
      <trkpt lat="43.50983" lon="6.92055">
        <ele>211.39999389648</ele>
        <time>2011-12-09T09:33:20.000Z</time>
      </trkpt>
      <trkpt lat="43.50982" lon="6.92046">
        <ele>209.39999389648</ele>
        <time>2011-12-09T09:33:25.000Z</time>
      </trkpt>
      <trkpt lat="43.5099" lon="6.92035">
        <ele>209</ele>
        <time>2011-12-09T09:33:29.000Z</time>
      </trkpt>
      <trkpt lat="43.50987" lon="6.92023">
        <ele>205.39999389648</ele>
        <time>2011-12-09T09:33:32.000Z</time>
      </trkpt>
      <trkpt lat="43.50986" lon="6.92005">
        <ele>201.39999389648</ele>
        <time>2011-12-09T09:33:36.000Z</time>
      </trkpt>
      <trkpt lat="43.50987" lon="6.91994">
        <ele>200</ele>
        <time>2011-12-09T09:33:39.000Z</time>
      </trkpt>
      <trkpt lat="43.50985" lon="6.91988">
        <ele>198.60000610352</ele>
        <time>2011-12-09T09:33:42.000Z</time>
      </trkpt>
      <trkpt lat="43.50985" lon="6.91988">
        <ele>198.60000610352</ele>
        <time>2011-12-09T09:33:43.000Z</time>
      </trkpt>
      <trkpt lat="43.50988" lon="6.91991">
        <ele>199.60000610352</ele>
        <time>2011-12-09T09:33:47.000Z</time>
      </trkpt>
      <trkpt lat="43.50986" lon="6.91992">
        <ele>199.39999389648</ele>
        <time>2011-12-09T09:35:08.000Z</time>
      </trkpt>
      <trkpt lat="43.50984" lon="6.91985">
        <ele>198</ele>
        <time>2011-12-09T09:35:13.000Z</time>
      </trkpt>
      <trkpt lat="43.50983" lon="6.91966">
        <ele>195.39999389648</ele>
        <time>2011-12-09T09:35:18.000Z</time>
      </trkpt>
      <trkpt lat="43.50984" lon="6.91942">
        <ele>193</ele>
        <time>2011-12-09T09:35:23.000Z</time>
      </trkpt>
      <trkpt lat="43.50988" lon="6.91922">
        <ele>191.80000305176</ele>
        <time>2011-12-09T09:35:27.000Z</time>
      </trkpt>
      <trkpt lat="43.50994" lon="6.91895">
        <ele>191.39999389648</ele>
        <time>2011-12-09T09:35:31.000Z</time>
      </trkpt>
      <trkpt lat="43.50997" lon="6.9188">
        <ele>191.60000610352</ele>
        <time>2011-12-09T09:35:33.000Z</time>
      </trkpt>
      <trkpt lat="43.51003" lon="6.9186">
        <ele>190.60000610352</ele>
        <time>2011-12-09T09:35:36.000Z</time>
      </trkpt>
      <trkpt lat="43.51007" lon="6.91849">
        <ele>188.80000305176</ele>
        <time>2011-12-09T09:35:38.000Z</time>
      </trkpt>
      <trkpt lat="43.51011" lon="6.91839">
        <ele>187.19999694824</ele>
        <time>2011-12-09T09:35:40.000Z</time>
      </trkpt>
      <trkpt lat="43.51014" lon="6.91836">
        <ele>186.19999694824</ele>
        <time>2011-12-09T09:35:41.000Z</time>
      </trkpt>
      <trkpt lat="43.51025" lon="6.91827">
        <ele>182.60000610352</ele>
        <time>2011-12-09T09:35:44.000Z</time>
      </trkpt>
      <trkpt lat="43.51031" lon="6.91822">
        <ele>180.60000610352</ele>
        <time>2011-12-09T09:35:46.000Z</time>
      </trkpt>
      <trkpt lat="43.5104" lon="6.91809">
        <ele>177.39999389648</ele>
        <time>2011-12-09T09:35:50.000Z</time>
      </trkpt>
      <trkpt lat="43.51041" lon="6.91806">
        <ele>176.80000305176</ele>
        <time>2011-12-09T09:35:51.000Z</time>
      </trkpt>
      <trkpt lat="43.51049" lon="6.91799">
        <ele>174.80000305176</ele>
        <time>2011-12-09T09:35:54.000Z</time>
      </trkpt>
      <trkpt lat="43.51053" lon="6.91797">
        <ele>174</ele>
        <time>2011-12-09T09:35:55.000Z</time>
      </trkpt>
      <trkpt lat="43.51072" lon="6.91784">
        <ele>170.80000305176</ele>
        <time>2011-12-09T09:36:00.000Z</time>
      </trkpt>
      <trkpt lat="43.51081" lon="6.91778">
        <ele>169.60000610352</ele>
        <time>2011-12-09T09:36:03.000Z</time>
      </trkpt>
      <trkpt lat="43.51085" lon="6.91777">
        <ele>169.19999694824</ele>
        <time>2011-12-09T09:36:04.000Z</time>
      </trkpt>
      <trkpt lat="43.51097" lon="6.91767">
        <ele>167.60000610352</ele>
        <time>2011-12-09T09:36:07.000Z</time>
      </trkpt>
      <trkpt lat="43.51101" lon="6.91764">
        <ele>167.19999694824</ele>
        <time>2011-12-09T09:36:08.000Z</time>
      </trkpt>
      <trkpt lat="43.51115" lon="6.91757">
        <ele>166.19999694824</ele>
        <time>2011-12-09T09:36:11.000Z</time>
      </trkpt>
      <trkpt lat="43.51127" lon="6.91751">
        <ele>165.60000610352</ele>
        <time>2011-12-09T09:36:14.000Z</time>
      </trkpt>
      <trkpt lat="43.51136" lon="6.91746">
        <ele>164</ele>
        <time>2011-12-09T09:36:16.000Z</time>
      </trkpt>
      <trkpt lat="43.51146" lon="6.91741">
        <ele>162.19999694824</ele>
        <time>2011-12-09T09:36:18.000Z</time>
      </trkpt>
      <trkpt lat="43.51154" lon="6.91735">
        <ele>160.60000610352</ele>
        <time>2011-12-09T09:36:20.000Z</time>
      </trkpt>
      <trkpt lat="43.51172" lon="6.91732">
        <ele>158.19999694824</ele>
        <time>2011-12-09T09:36:24.000Z</time>
      </trkpt>
      <trkpt lat="43.51176" lon="6.9173">
        <ele>157.39999389648</ele>
        <time>2011-12-09T09:36:25.000Z</time>
      </trkpt>
      <trkpt lat="43.51179" lon="6.91729">
        <ele>156.60000610352</ele>
        <time>2011-12-09T09:36:26.000Z</time>
      </trkpt>
      <trkpt lat="43.51184" lon="6.91723">
        <ele>154.80000305176</ele>
        <time>2011-12-09T09:36:28.000Z</time>
      </trkpt>
      <trkpt lat="43.51182" lon="6.91707">
        <ele>152.60000610352</ele>
        <time>2011-12-09T09:36:32.000Z</time>
      </trkpt>
      <trkpt lat="43.51179" lon="6.91702">
        <ele>152.39999389648</ele>
        <time>2011-12-09T09:36:33.000Z</time>
      </trkpt>
      <trkpt lat="43.5117" lon="6.91696">
        <ele>153</ele>
        <time>2011-12-09T09:36:36.000Z</time>
      </trkpt>
      <trkpt lat="43.51153" lon="6.91695">
        <ele>153.39999389648</ele>
        <time>2011-12-09T09:36:40.000Z</time>
      </trkpt>
      <trkpt lat="43.51149" lon="6.91696">
        <ele>153.39999389648</ele>
        <time>2011-12-09T09:36:41.000Z</time>
      </trkpt>
      <trkpt lat="43.5114" lon="6.91696">
        <ele>153.39999389648</ele>
        <time>2011-12-09T09:36:44.000Z</time>
      </trkpt>
      <trkpt lat="43.51122" lon="6.91696">
        <ele>153.39999389648</ele>
        <time>2011-12-09T09:36:48.000Z</time>
      </trkpt>
      <trkpt lat="43.51118" lon="6.91695">
        <ele>153</ele>
        <time>2011-12-09T09:36:50.000Z</time>
      </trkpt>
      <trkpt lat="43.51117" lon="6.91693">
        <ele>152.39999389648</ele>
        <time>2011-12-09T09:36:51.000Z</time>
      </trkpt>
      <trkpt lat="43.51121" lon="6.91687">
        <ele>151.19999694824</ele>
        <time>2011-12-09T09:36:55.000Z</time>
      </trkpt>
      <trkpt lat="43.51119" lon="6.91681">
        <ele>149.80000305176</ele>
        <time>2011-12-09T09:36:59.000Z</time>
      </trkpt>
      <trkpt lat="43.51119" lon="6.91676">
        <ele>148.39999389648</ele>
        <time>2011-12-09T09:37:02.000Z</time>
      </trkpt>
      <trkpt lat="43.51121" lon="6.91674">
        <ele>148</ele>
        <time>2011-12-09T09:37:03.000Z</time>
      </trkpt>
      <trkpt lat="43.51122" lon="6.91672">
        <ele>147.39999389648</ele>
        <time>2011-12-09T09:37:04.000Z</time>
      </trkpt>
      <trkpt lat="43.51122" lon="6.91664">
        <ele>145.39999389648</ele>
        <time>2011-12-09T09:37:06.000Z</time>
      </trkpt>
      <trkpt lat="43.51121" lon="6.91657">
        <ele>142.60000610352</ele>
        <time>2011-12-09T09:37:10.000Z</time>
      </trkpt>
      <trkpt lat="43.51114" lon="6.91655">
        <ele>141.39999389648</ele>
        <time>2011-12-09T09:37:13.000Z</time>
      </trkpt>
      <trkpt lat="43.51109" lon="6.91654">
        <ele>140.60000610352</ele>
        <time>2011-12-09T09:37:15.000Z</time>
      </trkpt>
      <trkpt lat="43.51108" lon="6.91652">
        <ele>139.80000305176</ele>
        <time>2011-12-09T09:37:18.000Z</time>
      </trkpt>
      <trkpt lat="43.51108" lon="6.91652">
        <ele>139.60000610352</ele>
        <time>2011-12-09T09:37:19.000Z</time>
      </trkpt>
      <trkpt lat="43.51106" lon="6.91646">
        <ele>137.19999694824</ele>
        <time>2011-12-09T09:37:27.000Z</time>
      </trkpt>
      <trkpt lat="43.51106" lon="6.91644">
        <ele>136.39999389648</ele>
        <time>2011-12-09T09:37:32.000Z</time>
      </trkpt>
      <trkpt lat="43.5111" lon="6.91639">
        <ele>135</ele>
        <time>2011-12-09T09:37:37.000Z</time>
      </trkpt>
      <trkpt lat="43.51115" lon="6.91634">
        <ele>133.39999389648</ele>
        <time>2011-12-09T09:37:42.000Z</time>
      </trkpt>
      <trkpt lat="43.51117" lon="6.91632">
        <ele>132.80000305176</ele>
        <time>2011-12-09T09:37:43.000Z</time>
      </trkpt>
      <trkpt lat="43.51122" lon="6.91626">
        <ele>130.60000610352</ele>
        <time>2011-12-09T09:37:46.000Z</time>
      </trkpt>
      <trkpt lat="43.51127" lon="6.9162">
        <ele>128.80000305176</ele>
        <time>2011-12-09T09:37:51.000Z</time>
      </trkpt>
      <trkpt lat="43.51137" lon="6.91609">
        <ele>125.40000152588</ele>
        <time>2011-12-09T09:37:57.000Z</time>
      </trkpt>
      <trkpt lat="43.51146" lon="6.91593">
        <ele>119.80000305176</ele>
        <time>2011-12-09T09:38:03.000Z</time>
      </trkpt>
      <trkpt lat="43.51146" lon="6.91589">
        <ele>118.40000152588</ele>
        <time>2011-12-09T09:38:09.000Z</time>
      </trkpt>
      <trkpt lat="43.51145" lon="6.91585">
        <ele>117</ele>
        <time>2011-12-09T09:38:20.000Z</time>
      </trkpt>
      <trkpt lat="43.51141" lon="6.91586">
        <ele>116.80000305176</ele>
        <time>2011-12-09T09:38:23.000Z</time>
      </trkpt>
      <trkpt lat="43.51141" lon="6.91583">
        <ele>115.80000305176</ele>
        <time>2011-12-09T09:38:24.000Z</time>
      </trkpt>
      <trkpt lat="43.51147" lon="6.91573">
        <ele>112.59999847412</ele>
        <time>2011-12-09T09:38:29.000Z</time>
      </trkpt>
      <trkpt lat="43.51154" lon="6.91571">
        <ele>112.59999847412</ele>
        <time>2011-12-09T09:38:32.000Z</time>
      </trkpt>
      <trkpt lat="43.51155" lon="6.9157">
        <ele>112.19999694824</ele>
        <time>2011-12-09T09:38:33.000Z</time>
      </trkpt>
      <trkpt lat="43.51155" lon="6.91567">
        <ele>111.40000152588</ele>
        <time>2011-12-09T09:38:34.000Z</time>
      </trkpt>
      <trkpt lat="43.51161" lon="6.91562">
        <ele>110</ele>
        <time>2011-12-09T09:38:38.000Z</time>
      </trkpt>
      <trkpt lat="43.51165" lon="6.9156">
        <ele>109.59999847412</ele>
        <time>2011-12-09T09:38:40.000Z</time>
      </trkpt>
      <trkpt lat="43.51171" lon="6.91555">
        <ele>107.19999694824</ele>
        <time>2011-12-09T09:38:43.000Z</time>
      </trkpt>
      <trkpt lat="43.51184" lon="6.91549">
        <ele>103</ele>
        <time>2011-12-09T09:38:47.000Z</time>
      </trkpt>
      <trkpt lat="43.51192" lon="6.91542">
        <ele>99.599998474121</ele>
        <time>2011-12-09T09:38:51.000Z</time>
      </trkpt>
      <trkpt lat="43.512" lon="6.91535">
        <ele>96.199996948242</ele>
        <time>2011-12-09T09:38:55.000Z</time>
      </trkpt>
      <trkpt lat="43.51202" lon="6.91534">
        <ele>95.599998474121</ele>
        <time>2011-12-09T09:38:56.000Z</time>
      </trkpt>
      <trkpt lat="43.51212" lon="6.91531">
        <ele>93</ele>
        <time>2011-12-09T09:39:01.000Z</time>
      </trkpt>
      <trkpt lat="43.51218" lon="6.91525">
        <ele>90.199996948242</ele>
        <time>2011-12-09T09:39:05.000Z</time>
      </trkpt>
      <trkpt lat="43.51223" lon="6.91524">
        <ele>89.199996948242</ele>
        <time>2011-12-09T09:39:08.000Z</time>
      </trkpt>
      <trkpt lat="43.51227" lon="6.91523">
        <ele>88.599998474121</ele>
        <time>2011-12-09T09:39:10.000Z</time>
      </trkpt>
      <trkpt lat="43.51229" lon="6.91524">
        <ele>88.599998474121</ele>
        <time>2011-12-09T09:39:11.000Z</time>
      </trkpt>
      <trkpt lat="43.51233" lon="6.91525">
        <ele>88.400001525879</ele>
        <time>2011-12-09T09:39:13.000Z</time>
      </trkpt>
      <trkpt lat="43.51238" lon="6.91528">
        <ele>88.599998474121</ele>
        <time>2011-12-09T09:39:16.000Z</time>
      </trkpt>
      <trkpt lat="43.51247" lon="6.91535">
        <ele>89.800003051758</ele>
        <time>2011-12-09T09:39:21.000Z</time>
      </trkpt>
      <trkpt lat="43.51262" lon="6.91547">
        <ele>90.599998474121</ele>
        <time>2011-12-09T09:39:26.000Z</time>
      </trkpt>
      <trkpt lat="43.51268" lon="6.91558">
        <ele>92</ele>
        <time>2011-12-09T09:39:30.000Z</time>
      </trkpt>
      <trkpt lat="43.51277" lon="6.91568">
        <ele>91.800003051758</ele>
        <time>2011-12-09T09:39:35.000Z</time>
      </trkpt>
      <trkpt lat="43.51284" lon="6.91574">
        <ele>91</ele>
        <time>2011-12-09T09:39:40.000Z</time>
      </trkpt>
      <trkpt lat="43.51285" lon="6.91573">
        <ele>90.599998474121</ele>
        <time>2011-12-09T09:39:43.000Z</time>
      </trkpt>
      <trkpt lat="43.51286" lon="6.91571">
        <ele>89.599998474121</ele>
        <time>2011-12-09T09:39:46.000Z</time>
      </trkpt>
      <trkpt lat="43.51287" lon="6.9157">
        <ele>89.400001525879</ele>
        <time>2011-12-09T09:39:47.000Z</time>
      </trkpt>
      <trkpt lat="43.51287" lon="6.91572">
        <ele>89.800003051758</ele>
        <time>2011-12-09T09:39:59.000Z</time>
      </trkpt>
      <trkpt lat="43.51288" lon="6.91572">
        <ele>89.400001525879</ele>
        <time>2011-12-09T09:40:00.000Z</time>
      </trkpt>
      <trkpt lat="43.51295" lon="6.91575">
        <ele>87.800003051758</ele>
        <time>2011-12-09T09:40:04.000Z</time>
      </trkpt>
      <trkpt lat="43.51303" lon="6.91574">
        <ele>85.199996948242</ele>
        <time>2011-12-09T09:40:09.000Z</time>
      </trkpt>
      <trkpt lat="43.51303" lon="6.91572">
        <ele>84.800003051758</ele>
        <time>2011-12-09T09:40:11.000Z</time>
      </trkpt>
      <trkpt lat="43.51299" lon="6.91567">
        <ele>85</ele>
        <time>2011-12-09T09:40:15.000Z</time>
      </trkpt>
      <trkpt lat="43.51299" lon="6.91566">
        <ele>85</ele>
        <time>2011-12-09T09:40:16.000Z</time>
      </trkpt>
      <trkpt lat="43.51299" lon="6.91564">
        <ele>84.800003051758</ele>
        <time>2011-12-09T09:40:19.000Z</time>
      </trkpt>
      <trkpt lat="43.51298" lon="6.91559">
        <ele>84.199996948242</ele>
        <time>2011-12-09T09:40:25.000Z</time>
      </trkpt>
      <trkpt lat="43.51301" lon="6.91555">
        <ele>82.599998474121</ele>
        <time>2011-12-09T09:40:29.000Z</time>
      </trkpt>
      <trkpt lat="43.51305" lon="6.91554">
        <ele>81.400001525879</ele>
        <time>2011-12-09T09:40:34.000Z</time>
      </trkpt>
      <trkpt lat="43.51306" lon="6.91552">
        <ele>80.800003051758</ele>
        <time>2011-12-09T09:40:36.000Z</time>
      </trkpt>
      <trkpt lat="43.51307" lon="6.9155">
        <ele>80.400001525879</ele>
        <time>2011-12-09T09:40:39.000Z</time>
      </trkpt>
      <trkpt lat="43.51307" lon="6.91548">
        <ele>80</ele>
        <time>2011-12-09T09:40:42.000Z</time>
      </trkpt>
      <trkpt lat="43.51308" lon="6.91545">
        <ele>79.400001525879</ele>
        <time>2011-12-09T09:40:48.000Z</time>
      </trkpt>
      <trkpt lat="43.51309" lon="6.91536">
        <ele>78</ele>
        <time>2011-12-09T09:40:52.000Z</time>
      </trkpt>
      <trkpt lat="43.51306" lon="6.91532">
        <ele>78</ele>
        <time>2011-12-09T09:40:56.000Z</time>
      </trkpt>
      <trkpt lat="43.51305" lon="6.91531">
        <ele>78</ele>
        <time>2011-12-09T09:40:57.000Z</time>
      </trkpt>
      <trkpt lat="43.51304" lon="6.91531">
        <ele>78</ele>
        <time>2011-12-09T09:41:05.000Z</time>
      </trkpt>
      <trkpt lat="43.513" lon="6.91526">
        <ele>78</ele>
        <time>2011-12-09T09:41:11.000Z</time>
      </trkpt>
      <trkpt lat="43.51291" lon="6.91517">
        <ele>78</ele>
        <time>2011-12-09T09:41:18.000Z</time>
      </trkpt>
      <trkpt lat="43.5128" lon="6.91511">
        <ele>78</ele>
        <time>2011-12-09T09:41:24.000Z</time>
      </trkpt>
      <trkpt lat="43.51266" lon="6.91504">
        <ele>77.800003051758</ele>
        <time>2011-12-09T09:41:31.000Z</time>
      </trkpt>
      <trkpt lat="43.51254" lon="6.91495">
        <ele>77</ele>
        <time>2011-12-09T09:41:38.000Z</time>
      </trkpt>
      <trkpt lat="43.51244" lon="6.91488">
        <ele>77.199996948242</ele>
        <time>2011-12-09T09:41:44.000Z</time>
      </trkpt>
      <trkpt lat="43.51233" lon="6.91484">
        <ele>77.800003051758</ele>
        <time>2011-12-09T09:41:51.000Z</time>
      </trkpt>
      <trkpt lat="43.51221" lon="6.91483">
        <ele>78.800003051758</ele>
        <time>2011-12-09T09:41:58.000Z</time>
      </trkpt>
      <trkpt lat="43.51208" lon="6.91484">
        <ele>80.400001525879</ele>
        <time>2011-12-09T09:42:05.000Z</time>
      </trkpt>
      <trkpt lat="43.51194" lon="6.91486">
        <ele>82.400001525879</ele>
        <time>2011-12-09T09:42:12.000Z</time>
      </trkpt>
      <trkpt lat="43.51183" lon="6.91492">
        <ele>84.599998474121</ele>
        <time>2011-12-09T09:42:19.000Z</time>
      </trkpt>
      <trkpt lat="43.51171" lon="6.91501">
        <ele>88</ele>
        <time>2011-12-09T09:42:27.000Z</time>
      </trkpt>
      <trkpt lat="43.51157" lon="6.91508">
        <ele>90.400001525879</ele>
        <time>2011-12-09T09:42:35.000Z</time>
      </trkpt>
      <trkpt lat="43.51142" lon="6.91518">
        <ele>92.800003051758</ele>
        <time>2011-12-09T09:42:44.000Z</time>
      </trkpt>
      <trkpt lat="43.5113" lon="6.91527">
        <ele>95</ele>
        <time>2011-12-09T09:42:52.000Z</time>
      </trkpt>
      <trkpt lat="43.51115" lon="6.91538">
        <ele>97.800003051758</ele>
        <time>2011-12-09T09:43:01.000Z</time>
      </trkpt>
      <trkpt lat="43.51104" lon="6.91543">
        <ele>99</ele>
        <time>2011-12-09T09:43:08.000Z</time>
      </trkpt>
      <trkpt lat="43.51091" lon="6.91551">
        <ele>101</ele>
        <time>2011-12-09T09:43:16.000Z</time>
      </trkpt>
      <trkpt lat="43.51081" lon="6.91555">
        <ele>101.40000152588</ele>
        <time>2011-12-09T09:43:22.000Z</time>
      </trkpt>
      <trkpt lat="43.51066" lon="6.91559">
        <ele>102.59999847412</ele>
        <time>2011-12-09T09:43:31.000Z</time>
      </trkpt>
      <trkpt lat="43.51049" lon="6.91563">
        <ele>103.40000152588</ele>
        <time>2011-12-09T09:43:41.000Z</time>
      </trkpt>
      <trkpt lat="43.51037" lon="6.91568">
        <ele>104.80000305176</ele>
        <time>2011-12-09T09:43:49.000Z</time>
      </trkpt>
      <trkpt lat="43.51021" lon="6.91574">
        <ele>106.59999847412</ele>
        <time>2011-12-09T09:43:59.000Z</time>
      </trkpt>
      <trkpt lat="43.51008" lon="6.91579">
        <ele>107.59999847412</ele>
        <time>2011-12-09T09:44:07.000Z</time>
      </trkpt>
      <trkpt lat="43.50995" lon="6.91584">
        <ele>108.59999847412</ele>
        <time>2011-12-09T09:44:14.000Z</time>
      </trkpt>
      <trkpt lat="43.50986" lon="6.91586">
        <ele>109</ele>
        <time>2011-12-09T09:44:20.000Z</time>
      </trkpt>
      <trkpt lat="43.50972" lon="6.91592">
        <ele>110</ele>
        <time>2011-12-09T09:44:29.000Z</time>
      </trkpt>
      <trkpt lat="43.50957" lon="6.91598">
        <ele>111</ele>
        <time>2011-12-09T09:44:38.000Z</time>
      </trkpt>
      <trkpt lat="43.50945" lon="6.91602">
        <ele>111.59999847412</ele>
        <time>2011-12-09T09:44:46.000Z</time>
      </trkpt>
      <trkpt lat="43.50944" lon="6.91603">
        <ele>111.80000305176</ele>
        <time>2011-12-09T09:44:47.000Z</time>
      </trkpt>
      <trkpt lat="43.50944" lon="6.9161">
        <ele>114.19999694824</ele>
        <time>2011-12-09T09:44:51.000Z</time>
      </trkpt>
      <trkpt lat="43.50951" lon="6.91609">
        <ele>114.59999847412</ele>
        <time>2011-12-09T09:44:56.000Z</time>
      </trkpt>
      <trkpt lat="43.50957" lon="6.91607">
        <ele>114.40000152588</ele>
        <time>2011-12-09T09:44:59.000Z</time>
      </trkpt>
      <trkpt lat="43.50964" lon="6.91604">
        <ele>114.19999694824</ele>
        <time>2011-12-09T09:45:03.000Z</time>
      </trkpt>
      <trkpt lat="43.50981" lon="6.91604">
        <ele>115.59999847412</ele>
        <time>2011-12-09T09:45:11.000Z</time>
      </trkpt>
      <trkpt lat="43.51003" lon="6.91606">
        <ele>118.19999694824</ele>
        <time>2011-12-09T09:45:21.000Z</time>
      </trkpt>
      <trkpt lat="43.51023" lon="6.91608">
        <ele>119.40000152588</ele>
        <time>2011-12-09T09:45:30.000Z</time>
      </trkpt>
      <trkpt lat="43.51039" lon="6.91611">
        <ele>121</ele>
        <time>2011-12-09T09:45:37.000Z</time>
      </trkpt>
      <trkpt lat="43.51059" lon="6.91614">
        <ele>122.80000305176</ele>
        <time>2011-12-09T09:45:46.000Z</time>
      </trkpt>
      <trkpt lat="43.51072" lon="6.91614">
        <ele>122.80000305176</ele>
        <time>2011-12-09T09:45:52.000Z</time>
      </trkpt>
      <trkpt lat="43.51081" lon="6.91619">
        <ele>125</ele>
        <time>2011-12-09T09:45:57.000Z</time>
      </trkpt>
      <trkpt lat="43.51081" lon="6.91621">
        <ele>125.80000305176</ele>
        <time>2011-12-09T09:45:58.000Z</time>
      </trkpt>
      <trkpt lat="43.51078" lon="6.91626">
        <ele>127.80000305176</ele>
        <time>2011-12-09T09:46:01.000Z</time>
      </trkpt>
      <trkpt lat="43.51069" lon="6.91626">
        <ele>127.80000305176</ele>
        <time>2011-12-09T09:46:05.000Z</time>
      </trkpt>
      <trkpt lat="43.51063" lon="6.91625">
        <ele>127</ele>
        <time>2011-12-09T09:46:08.000Z</time>
      </trkpt>
      <trkpt lat="43.51047" lon="6.91627">
        <ele>127.40000152588</ele>
        <time>2011-12-09T09:46:15.000Z</time>
      </trkpt>
      <trkpt lat="43.51029" lon="6.91627">
        <ele>127.40000152588</ele>
        <time>2011-12-09T09:46:23.000Z</time>
      </trkpt>
      <trkpt lat="43.51008" lon="6.9163">
        <ele>128.19999694824</ele>
        <time>2011-12-09T09:46:32.000Z</time>
      </trkpt>
      <trkpt lat="43.50983" lon="6.91632">
        <ele>127.19999694824</ele>
        <time>2011-12-09T09:46:42.000Z</time>
      </trkpt>
      <trkpt lat="43.50968" lon="6.91637">
        <ele>127</ele>
        <time>2011-12-09T09:46:48.000Z</time>
      </trkpt>
      <trkpt lat="43.5095" lon="6.91646">
        <ele>128.60000610352</ele>
        <time>2011-12-09T09:46:56.000Z</time>
      </trkpt>
      <trkpt lat="43.50935" lon="6.91649">
        <ele>128</ele>
        <time>2011-12-09T09:47:02.000Z</time>
      </trkpt>
      <trkpt lat="43.5092" lon="6.91653">
        <ele>127.40000152588</ele>
        <time>2011-12-09T09:47:08.000Z</time>
      </trkpt>
      <trkpt lat="43.50903" lon="6.91665">
        <ele>126.80000305176</ele>
        <time>2011-12-09T09:47:16.000Z</time>
      </trkpt>
      <trkpt lat="43.5089" lon="6.91684">
        <ele>126.80000305176</ele>
        <time>2011-12-09T09:47:24.000Z</time>
      </trkpt>
      <trkpt lat="43.5088" lon="6.91704">
        <ele>127.19999694824</ele>
        <time>2011-12-09T09:47:32.000Z</time>
      </trkpt>
      <trkpt lat="43.50878" lon="6.91711">
        <ele>127.59999847412</ele>
        <time>2011-12-09T09:47:35.000Z</time>
      </trkpt>
      <trkpt lat="43.5088" lon="6.91714">
        <ele>129.39999389648</ele>
        <time>2011-12-09T09:47:37.000Z</time>
      </trkpt>
      <trkpt lat="43.50886" lon="6.91709">
        <ele>130.60000610352</ele>
        <time>2011-12-09T09:47:41.000Z</time>
      </trkpt>
      <trkpt lat="43.50891" lon="6.91698">
        <ele>130.19999694824</ele>
        <time>2011-12-09T09:47:45.000Z</time>
      </trkpt>
      <trkpt lat="43.50895" lon="6.91691">
        <ele>130.19999694824</ele>
        <time>2011-12-09T09:47:48.000Z</time>
      </trkpt>
      <trkpt lat="43.50911" lon="6.91677">
        <ele>132.60000610352</ele>
        <time>2011-12-09T09:47:56.000Z</time>
      </trkpt>
      <trkpt lat="43.5093" lon="6.91672">
        <ele>135.19999694824</ele>
        <time>2011-12-09T09:48:04.000Z</time>
      </trkpt>
      <trkpt lat="43.50953" lon="6.91671">
        <ele>138.39999389648</ele>
        <time>2011-12-09T09:48:14.000Z</time>
      </trkpt>
      <trkpt lat="43.50972" lon="6.91671">
        <ele>140.80000305176</ele>
        <time>2011-12-09T09:48:22.000Z</time>
      </trkpt>
      <trkpt lat="43.50995" lon="6.91674">
        <ele>144.80000305176</ele>
        <time>2011-12-09T09:48:32.000Z</time>
      </trkpt>
      <trkpt lat="43.5102" lon="6.91678">
        <ele>147.39999389648</ele>
        <time>2011-12-09T09:48:43.000Z</time>
      </trkpt>
      <trkpt lat="43.51043" lon="6.91682">
        <ele>148.60000610352</ele>
        <time>2011-12-09T09:48:53.000Z</time>
      </trkpt>
      <trkpt lat="43.51065" lon="6.91684">
        <ele>149.39999389648</ele>
        <time>2011-12-09T09:49:02.000Z</time>
      </trkpt>
      <trkpt lat="43.51081" lon="6.91681">
        <ele>148.60000610352</ele>
        <time>2011-12-09T09:49:09.000Z</time>
      </trkpt>
      <trkpt lat="43.51082" lon="6.91683">
        <ele>149</ele>
        <time>2011-12-09T09:49:10.000Z</time>
      </trkpt>
      <trkpt lat="43.51083" lon="6.91688">
        <ele>150.80000305176</ele>
        <time>2011-12-09T09:49:12.000Z</time>
      </trkpt>
      <trkpt lat="43.51076" lon="6.91694">
        <ele>152.60000610352</ele>
        <time>2011-12-09T09:49:16.000Z</time>
      </trkpt>
      <trkpt lat="43.51067" lon="6.91692">
        <ele>152</ele>
        <time>2011-12-09T09:49:20.000Z</time>
      </trkpt>
      <trkpt lat="43.51062" lon="6.91692">
        <ele>152</ele>
        <time>2011-12-09T09:49:22.000Z</time>
      </trkpt>
      <trkpt lat="43.51042" lon="6.91693">
        <ele>152.60000610352</ele>
        <time>2011-12-09T09:49:30.000Z</time>
      </trkpt>
      <trkpt lat="43.51027" lon="6.91696">
        <ele>153.80000305176</ele>
        <time>2011-12-09T09:49:36.000Z</time>
      </trkpt>
      <trkpt lat="43.51005" lon="6.91697">
        <ele>154.19999694824</ele>
        <time>2011-12-09T09:49:45.000Z</time>
      </trkpt>
      <trkpt lat="43.5098" lon="6.917">
        <ele>151.80000305176</ele>
        <time>2011-12-09T09:49:55.000Z</time>
      </trkpt>
      <trkpt lat="43.50961" lon="6.91706">
        <ele>150.60000610352</ele>
        <time>2011-12-09T09:50:03.000Z</time>
      </trkpt>
      <trkpt lat="43.50946" lon="6.91716">
        <ele>150.80000305176</ele>
        <time>2011-12-09T09:50:10.000Z</time>
      </trkpt>
      <trkpt lat="43.50929" lon="6.91731">
        <ele>151.60000610352</ele>
        <time>2011-12-09T09:50:18.000Z</time>
      </trkpt>
      <trkpt lat="43.50924" lon="6.91749">
        <ele>155.60000610352</ele>
        <time>2011-12-09T09:50:24.000Z</time>
      </trkpt>
      <trkpt lat="43.50927" lon="6.91771">
        <ele>159</ele>
        <time>2011-12-09T09:50:31.000Z</time>
      </trkpt>
      <trkpt lat="43.5093" lon="6.91797">
        <ele>163.19999694824</ele>
        <time>2011-12-09T09:50:39.000Z</time>
      </trkpt>
      <trkpt lat="43.50931" lon="6.9183">
        <ele>168</ele>
        <time>2011-12-09T09:50:49.000Z</time>
      </trkpt>
      <trkpt lat="43.50929" lon="6.91856">
        <ele>170</ele>
        <time>2011-12-09T09:50:57.000Z</time>
      </trkpt>
      <trkpt lat="43.50922" lon="6.91884">
        <ele>171</ele>
        <time>2011-12-09T09:51:06.000Z</time>
      </trkpt>
      <trkpt lat="43.50916" lon="6.91912">
        <ele>172.19999694824</ele>
        <time>2011-12-09T09:51:15.000Z</time>
      </trkpt>
      <trkpt lat="43.50914" lon="6.91942">
        <ele>174.39999389648</ele>
        <time>2011-12-09T09:51:25.000Z</time>
      </trkpt>
      <trkpt lat="43.50914" lon="6.91968">
        <ele>177.39999389648</ele>
        <time>2011-12-09T09:51:34.000Z</time>
      </trkpt>
      <trkpt lat="43.50914" lon="6.91995">
        <ele>180.19999694824</ele>
        <time>2011-12-09T09:51:43.000Z</time>
      </trkpt>
      <trkpt lat="43.50913" lon="6.92014">
        <ele>183.80000305176</ele>
        <time>2011-12-09T09:51:50.000Z</time>
      </trkpt>
      <trkpt lat="43.50908" lon="6.92032">
        <ele>186.19999694824</ele>
        <time>2011-12-09T09:51:57.000Z</time>
      </trkpt>
      <trkpt lat="43.50896" lon="6.92056">
        <ele>187.80000305176</ele>
        <time>2011-12-09T09:52:07.000Z</time>
      </trkpt>
      <trkpt lat="43.50883" lon="6.92074">
        <ele>188</ele>
        <time>2011-12-09T09:52:17.000Z</time>
      </trkpt>
      <trkpt lat="43.50877" lon="6.92085">
        <ele>188.80000305176</ele>
        <time>2011-12-09T09:52:23.000Z</time>
      </trkpt>
      <trkpt lat="43.50876" lon="6.92086">
        <ele>188.80000305176</ele>
        <time>2011-12-09T09:52:24.000Z</time>
      </trkpt>
      <trkpt lat="43.50861" lon="6.92095">
        <ele>186</ele>
        <time>2011-12-09T09:52:33.000Z</time>
      </trkpt>
      <trkpt lat="43.50846" lon="6.92108">
        <ele>184.39999389648</ele>
        <time>2011-12-09T09:52:43.000Z</time>
      </trkpt>
      <trkpt lat="43.50835" lon="6.92128">
        <ele>185</ele>
        <time>2011-12-09T09:52:52.000Z</time>
      </trkpt>
      <trkpt lat="43.50827" lon="6.92142">
        <ele>186.80000305176</ele>
        <time>2011-12-09T09:52:59.000Z</time>
      </trkpt>
      <trkpt lat="43.50816" lon="6.92161">
        <ele>190</ele>
        <time>2011-12-09T09:53:08.000Z</time>
      </trkpt>
      <trkpt lat="43.50804" lon="6.92171">
        <ele>190.19999694824</ele>
        <time>2011-12-09T09:53:15.000Z</time>
      </trkpt>
      <trkpt lat="43.50792" lon="6.92179">
        <ele>189.60000610352</ele>
        <time>2011-12-09T09:53:22.000Z</time>
      </trkpt>
      <trkpt lat="43.50777" lon="6.92188">
        <ele>189.19999694824</ele>
        <time>2011-12-09T09:53:31.000Z</time>
      </trkpt>
      <trkpt lat="43.5076" lon="6.92189">
        <ele>188.39999389648</ele>
        <time>2011-12-09T09:53:40.000Z</time>
      </trkpt>
      <trkpt lat="43.50743" lon="6.92192">
        <ele>187.80000305176</ele>
        <time>2011-12-09T09:53:48.000Z</time>
      </trkpt>
      <trkpt lat="43.50725" lon="6.92197">
        <ele>188</ele>
        <time>2011-12-09T09:53:56.000Z</time>
      </trkpt>
      <trkpt lat="43.50703" lon="6.92206">
        <ele>189.39999389648</ele>
        <time>2011-12-09T09:54:05.000Z</time>
      </trkpt>
      <trkpt lat="43.50676" lon="6.92219">
        <ele>193.39999389648</ele>
        <time>2011-12-09T09:54:16.000Z</time>
      </trkpt>
      <trkpt lat="43.50655" lon="6.92227">
        <ele>195</ele>
        <time>2011-12-09T09:54:24.000Z</time>
      </trkpt>
      <trkpt lat="43.50633" lon="6.92238">
        <ele>196.19999694824</ele>
        <time>2011-12-09T09:54:33.000Z</time>
      </trkpt>
      <trkpt lat="43.50607" lon="6.9225">
        <ele>197.60000610352</ele>
        <time>2011-12-09T09:54:43.000Z</time>
      </trkpt>
      <trkpt lat="43.50588" lon="6.9227">
        <ele>198.60000610352</ele>
        <time>2011-12-09T09:54:52.000Z</time>
      </trkpt>
      <trkpt lat="43.50581" lon="6.92294">
        <ele>200.60000610352</ele>
        <time>2011-12-09T09:54:59.000Z</time>
      </trkpt>
      <trkpt lat="43.50574" lon="6.92323">
        <ele>202.39999389648</ele>
        <time>2011-12-09T09:55:07.000Z</time>
      </trkpt>
      <trkpt lat="43.50569" lon="6.92358">
        <ele>203.39999389648</ele>
        <time>2011-12-09T09:55:14.000Z</time>
      </trkpt>
      <trkpt lat="43.50562" lon="6.92401">
        <ele>204</ele>
        <time>2011-12-09T09:55:21.000Z</time>
      </trkpt>
      <trkpt lat="43.50555" lon="6.92442">
        <ele>204.39999389648</ele>
        <time>2011-12-09T09:55:27.000Z</time>
      </trkpt>
      <trkpt lat="43.50552" lon="6.92449">
        <ele>204</ele>
        <time>2011-12-09T09:55:28.000Z</time>
      </trkpt>
      <trkpt lat="43.50542" lon="6.92471">
        <ele>203.19999694824</ele>
        <time>2011-12-09T09:55:31.000Z</time>
      </trkpt>
      <trkpt lat="43.50533" lon="6.92485">
        <ele>202.19999694824</ele>
        <time>2011-12-09T09:55:33.000Z</time>
      </trkpt>
      <trkpt lat="43.50512" lon="6.92501">
        <ele>199.39999389648</ele>
        <time>2011-12-09T09:55:36.000Z</time>
      </trkpt>
      <trkpt lat="43.50479" lon="6.92502">
        <ele>192.80000305176</ele>
        <time>2011-12-09T09:55:40.000Z</time>
      </trkpt>
      <trkpt lat="43.50456" lon="6.92487">
        <ele>188.60000610352</ele>
        <time>2011-12-09T09:55:43.000Z</time>
      </trkpt>
      <trkpt lat="43.50433" lon="6.92464">
        <ele>185.60000610352</ele>
        <time>2011-12-09T09:55:47.000Z</time>
      </trkpt>
      <trkpt lat="43.50415" lon="6.92446">
        <ele>185.39999389648</ele>
        <time>2011-12-09T09:55:52.000Z</time>
      </trkpt>
      <trkpt lat="43.5041" lon="6.92441">
        <ele>185.80000305176</ele>
        <time>2011-12-09T09:55:54.000Z</time>
      </trkpt>
      <trkpt lat="43.50407" lon="6.92437">
        <ele>186.39999389648</ele>
        <time>2011-12-09T09:55:56.000Z</time>
      </trkpt>
      <trkpt lat="43.50405" lon="6.92434">
        <ele>186.80000305176</ele>
        <time>2011-12-09T09:55:57.000Z</time>
      </trkpt>
      <trkpt lat="43.5039" lon="6.92416">
        <ele>190.39999389648</ele>
        <time>2011-12-09T09:56:05.000Z</time>
      </trkpt>
      <trkpt lat="43.50379" lon="6.924">
        <ele>190.39999389648</ele>
        <time>2011-12-09T09:56:12.000Z</time>
      </trkpt>
      <trkpt lat="43.50366" lon="6.92384">
        <ele>191.80000305176</ele>
        <time>2011-12-09T09:56:20.000Z</time>
      </trkpt>
      <trkpt lat="43.50359" lon="6.92374">
        <ele>193</ele>
        <time>2011-12-09T09:56:26.000Z</time>
      </trkpt>
      <trkpt lat="43.50353" lon="6.92363">
        <ele>194.80000305176</ele>
        <time>2011-12-09T09:56:32.000Z</time>
      </trkpt>
      <trkpt lat="43.50344" lon="6.92349">
        <ele>197.60000610352</ele>
        <time>2011-12-09T09:56:39.000Z</time>
      </trkpt>
      <trkpt lat="43.50334" lon="6.9233">
        <ele>201.19999694824</ele>
        <time>2011-12-09T09:56:48.000Z</time>
      </trkpt>
      <trkpt lat="43.50321" lon="6.92318">
        <ele>200</ele>
        <time>2011-12-09T09:56:57.000Z</time>
      </trkpt>
      <trkpt lat="43.50313" lon="6.92308">
        <ele>199</ele>
        <time>2011-12-09T09:57:04.000Z</time>
      </trkpt>
      <trkpt lat="43.503" lon="6.92301">
        <ele>199.19999694824</ele>
        <time>2011-12-09T09:57:12.000Z</time>
      </trkpt>
      <trkpt lat="43.50288" lon="6.92299">
        <ele>200.39999389648</ele>
        <time>2011-12-09T09:57:20.000Z</time>
      </trkpt>
      <trkpt lat="43.50274" lon="6.923">
        <ele>202.80000305176</ele>
        <time>2011-12-09T09:57:28.000Z</time>
      </trkpt>
      <trkpt lat="43.5026" lon="6.92309">
        <ele>206.60000610352</ele>
        <time>2011-12-09T09:57:37.000Z</time>
      </trkpt>
      <trkpt lat="43.5025" lon="6.92317">
        <ele>210.19999694824</ele>
        <time>2011-12-09T09:57:44.000Z</time>
      </trkpt>
      <trkpt lat="43.50238" lon="6.92327">
        <ele>213.39999389648</ele>
        <time>2011-12-09T09:57:52.000Z</time>
      </trkpt>
      <trkpt lat="43.50225" lon="6.92334">
        <ele>216</ele>
        <time>2011-12-09T09:58:00.000Z</time>
      </trkpt>
      <trkpt lat="43.50213" lon="6.9234">
        <ele>216.60000610352</ele>
        <time>2011-12-09T09:58:08.000Z</time>
      </trkpt>
      <trkpt lat="43.50201" lon="6.92346">
        <ele>217.60000610352</ele>
        <time>2011-12-09T09:58:16.000Z</time>
      </trkpt>
      <trkpt lat="43.50188" lon="6.92355">
        <ele>218.80000305176</ele>
        <time>2011-12-09T09:58:25.000Z</time>
      </trkpt>
      <trkpt lat="43.50178" lon="6.92361">
        <ele>220</ele>
        <time>2011-12-09T09:58:32.000Z</time>
      </trkpt>
      <trkpt lat="43.50168" lon="6.92366">
        <ele>221.60000610352</ele>
        <time>2011-12-09T09:58:39.000Z</time>
      </trkpt>
      <trkpt lat="43.50158" lon="6.92371">
        <ele>224</ele>
        <time>2011-12-09T09:58:47.000Z</time>
      </trkpt>
      <trkpt lat="43.5015" lon="6.9238">
        <ele>226.39999389648</ele>
        <time>2011-12-09T09:58:55.000Z</time>
      </trkpt>
      <trkpt lat="43.50142" lon="6.92383">
        <ele>228.60000610352</ele>
        <time>2011-12-09T09:59:01.000Z</time>
      </trkpt>
      <trkpt lat="43.5014" lon="6.92384">
        <ele>229.19999694824</ele>
        <time>2011-12-09T09:59:03.000Z</time>
      </trkpt>
      <trkpt lat="43.50141" lon="6.92388">
        <ele>229</ele>
        <time>2011-12-09T09:59:06.000Z</time>
      </trkpt>
      <trkpt lat="43.50144" lon="6.92387">
        <ele>228.19999694824</ele>
        <time>2011-12-09T09:59:10.000Z</time>
      </trkpt>
      <trkpt lat="43.50142" lon="6.92384">
        <ele>228.60000610352</ele>
        <time>2011-12-09T09:59:14.000Z</time>
      </trkpt>
      <trkpt lat="43.50139" lon="6.92383">
        <ele>229.19999694824</ele>
        <time>2011-12-09T09:59:16.000Z</time>
      </trkpt>
      <trkpt lat="43.50126" lon="6.92375">
        <ele>232</ele>
        <time>2011-12-09T09:59:25.000Z</time>
      </trkpt>
      <trkpt lat="43.50114" lon="6.92368">
        <ele>234.39999389648</ele>
        <time>2011-12-09T09:59:33.000Z</time>
      </trkpt>
      <trkpt lat="43.50099" lon="6.9236">
        <ele>236.60000610352</ele>
        <time>2011-12-09T09:59:42.000Z</time>
      </trkpt>
      <trkpt lat="43.50081" lon="6.92351">
        <ele>239.39999389648</ele>
        <time>2011-12-09T09:59:53.000Z</time>
      </trkpt>
      <trkpt lat="43.50066" lon="6.92343">
        <ele>243.60000610352</ele>
        <time>2011-12-09T10:00:03.000Z</time>
      </trkpt>
      <trkpt lat="43.50053" lon="6.92338">
        <ele>247.39999389648</ele>
        <time>2011-12-09T10:00:11.000Z</time>
      </trkpt>
      <trkpt lat="43.50042" lon="6.92325">
        <ele>249</ele>
        <time>2011-12-09T10:00:19.000Z</time>
      </trkpt>
      <trkpt lat="43.5004" lon="6.9231">
        <ele>246.80000305176</ele>
        <time>2011-12-09T10:00:25.000Z</time>
      </trkpt>
      <trkpt lat="43.50034" lon="6.92295">
        <ele>246</ele>
        <time>2011-12-09T10:00:32.000Z</time>
      </trkpt>
      <trkpt lat="43.50024" lon="6.92281">
        <ele>246.80000305176</ele>
        <time>2011-12-09T10:00:39.000Z</time>
      </trkpt>
      <trkpt lat="43.50011" lon="6.92266">
        <ele>248.80000305176</ele>
        <time>2011-12-09T10:00:47.000Z</time>
      </trkpt>
      <trkpt lat="43.49996" lon="6.92247">
        <ele>249.80000305176</ele>
        <time>2011-12-09T10:00:56.000Z</time>
      </trkpt>
      <trkpt lat="43.49981" lon="6.92224">
        <ele>247.19999694824</ele>
        <time>2011-12-09T10:01:05.000Z</time>
      </trkpt>
      <trkpt lat="43.49975" lon="6.92201">
        <ele>244</ele>
        <time>2011-12-09T10:01:13.000Z</time>
      </trkpt>
      <trkpt lat="43.49971" lon="6.92186">
        <ele>241.80000305176</ele>
        <time>2011-12-09T10:01:18.000Z</time>
      </trkpt>
      <trkpt lat="43.49969" lon="6.92173">
        <ele>239.80000305176</ele>
        <time>2011-12-09T10:01:24.000Z</time>
      </trkpt>
      <trkpt lat="43.49968" lon="6.92173">
        <ele>239.80000305176</ele>
        <time>2011-12-09T10:01:25.000Z</time>
      </trkpt>
      <trkpt lat="43.49967" lon="6.92173">
        <ele>239.80000305176</ele>
        <time>2011-12-09T10:01:28.000Z</time>
      </trkpt>
      <trkpt lat="43.49966" lon="6.92176">
        <ele>240.19999694824</ele>
        <time>2011-12-09T10:02:08.000Z</time>
      </trkpt>
      <trkpt lat="43.4996" lon="6.9218">
        <ele>240.80000305176</ele>
        <time>2011-12-09T10:02:11.000Z</time>
      </trkpt>
      <trkpt lat="43.49958" lon="6.92183">
        <ele>241</ele>
        <time>2011-12-09T10:02:12.000Z</time>
      </trkpt>
      <trkpt lat="43.49939" lon="6.92195">
        <ele>243</ele>
        <time>2011-12-09T10:02:17.000Z</time>
      </trkpt>
      <trkpt lat="43.49909" lon="6.92213">
        <ele>245.19999694824</ele>
        <time>2011-12-09T10:02:22.000Z</time>
      </trkpt>
      <trkpt lat="43.49882" lon="6.92233">
        <ele>243.19999694824</ele>
        <time>2011-12-09T10:02:26.000Z</time>
      </trkpt>
      <trkpt lat="43.49872" lon="6.9224">
        <ele>242</ele>
        <time>2011-12-09T10:02:28.000Z</time>
      </trkpt>
      <trkpt lat="43.49864" lon="6.92241">
        <ele>240.39999389648</ele>
        <time>2011-12-09T10:02:30.000Z</time>
      </trkpt>
      <trkpt lat="43.49858" lon="6.92236">
        <ele>238.60000610352</ele>
        <time>2011-12-09T10:02:32.000Z</time>
      </trkpt>
      <trkpt lat="43.49854" lon="6.92235">
        <ele>237.80000305176</ele>
        <time>2011-12-09T10:02:33.000Z</time>
      </trkpt>
      <trkpt lat="43.49851" lon="6.92233">
        <ele>236.80000305176</ele>
        <time>2011-12-09T10:02:34.000Z</time>
      </trkpt>
      <trkpt lat="43.49843" lon="6.92228">
        <ele>234.80000305176</ele>
        <time>2011-12-09T10:02:37.000Z</time>
      </trkpt>
      <trkpt lat="43.49833" lon="6.92229">
        <ele>232.80000305176</ele>
        <time>2011-12-09T10:02:41.000Z</time>
      </trkpt>
      <trkpt lat="43.49837" lon="6.92236">
        <ele>234</ele>
        <time>2011-12-09T10:02:45.000Z</time>
      </trkpt>
      <trkpt lat="43.49844" lon="6.92249">
        <ele>236.39999389648</ele>
        <time>2011-12-09T10:02:49.000Z</time>
      </trkpt>
      <trkpt lat="43.49854" lon="6.92275">
        <ele>237.39999389648</ele>
        <time>2011-12-09T10:02:55.000Z</time>
      </trkpt>
      <trkpt lat="43.49861" lon="6.92305">
        <ele>238.39999389648</ele>
        <time>2011-12-09T10:03:00.000Z</time>
      </trkpt>
      <trkpt lat="43.49866" lon="6.92322">
        <ele>239.60000610352</ele>
        <time>2011-12-09T10:03:03.000Z</time>
      </trkpt>
      <trkpt lat="43.49867" lon="6.92333">
        <ele>239.80000305176</ele>
        <time>2011-12-09T10:03:05.000Z</time>
      </trkpt>
      <trkpt lat="43.49872" lon="6.92369">
        <ele>238.39999389648</ele>
        <time>2011-12-09T10:03:11.000Z</time>
      </trkpt>
      <trkpt lat="43.49879" lon="6.92392">
        <ele>239.80000305176</ele>
        <time>2011-12-09T10:03:15.000Z</time>
      </trkpt>
      <trkpt lat="43.49884" lon="6.92403">
        <ele>241.39999389648</ele>
        <time>2011-12-09T10:03:17.000Z</time>
      </trkpt>
      <trkpt lat="43.49889" lon="6.92424">
        <ele>242.60000610352</ele>
        <time>2011-12-09T10:03:21.000Z</time>
      </trkpt>
      <trkpt lat="43.4989" lon="6.92428">
        <ele>242.39999389648</ele>
        <time>2011-12-09T10:03:22.000Z</time>
      </trkpt>
      <trkpt lat="43.49892" lon="6.92442">
        <ele>241.19999694824</ele>
        <time>2011-12-09T10:03:24.000Z</time>
      </trkpt>
      <trkpt lat="43.49894" lon="6.92457">
        <ele>240.39999389648</ele>
        <time>2011-12-09T10:03:26.000Z</time>
      </trkpt>
      <trkpt lat="43.49897" lon="6.92486">
        <ele>238.19999694824</ele>
        <time>2011-12-09T10:03:30.000Z</time>
      </trkpt>
      <trkpt lat="43.49898" lon="6.92492">
        <ele>237.80000305176</ele>
        <time>2011-12-09T10:03:31.000Z</time>
      </trkpt>
      <trkpt lat="43.49901" lon="6.92511">
        <ele>237</ele>
        <time>2011-12-09T10:03:34.000Z</time>
      </trkpt>
      <trkpt lat="43.49905" lon="6.92522">
        <ele>236.80000305176</ele>
        <time>2011-12-09T10:03:36.000Z</time>
      </trkpt>
      <trkpt lat="43.49906" lon="6.92535">
        <ele>235.60000610352</ele>
        <time>2011-12-09T10:03:38.000Z</time>
      </trkpt>
      <trkpt lat="43.4991" lon="6.92557">
        <ele>233.60000610352</ele>
        <time>2011-12-09T10:03:41.000Z</time>
      </trkpt>
      <trkpt lat="43.49913" lon="6.92571">
        <ele>233.19999694824</ele>
        <time>2011-12-09T10:03:43.000Z</time>
      </trkpt>
      <trkpt lat="43.4992" lon="6.92598">
        <ele>231.60000610352</ele>
        <time>2011-12-09T10:03:47.000Z</time>
      </trkpt>
      <trkpt lat="43.49923" lon="6.92611">
        <ele>230.39999389648</ele>
        <time>2011-12-09T10:03:49.000Z</time>
      </trkpt>
      <trkpt lat="43.49927" lon="6.92629">
        <ele>228.19999694824</ele>
        <time>2011-12-09T10:03:52.000Z</time>
      </trkpt>
      <trkpt lat="43.49929" lon="6.92634">
        <ele>228</ele>
        <time>2011-12-09T10:03:53.000Z</time>
      </trkpt>
      <trkpt lat="43.49933" lon="6.92642">
        <ele>228.19999694824</ele>
        <time>2011-12-09T10:03:56.000Z</time>
      </trkpt>
      <trkpt lat="43.49936" lon="6.92648">
        <ele>228.39999389648</ele>
        <time>2011-12-09T10:03:59.000Z</time>
      </trkpt>
      <trkpt lat="43.49937" lon="6.92657">
        <ele>227.19999694824</ele>
        <time>2011-12-09T10:04:02.000Z</time>
      </trkpt>
      <trkpt lat="43.49943" lon="6.92673">
        <ele>225.60000610352</ele>
        <time>2011-12-09T10:04:06.000Z</time>
      </trkpt>
      <trkpt lat="43.49949" lon="6.92688">
        <ele>224</ele>
        <time>2011-12-09T10:04:10.000Z</time>
      </trkpt>
      <trkpt lat="43.49957" lon="6.92703">
        <ele>223.60000610352</ele>
        <time>2011-12-09T10:04:14.000Z</time>
      </trkpt>
      <trkpt lat="43.49962" lon="6.92706">
        <ele>225.19999694824</ele>
        <time>2011-12-09T10:04:18.000Z</time>
      </trkpt>
      <trkpt lat="43.49966" lon="6.92708">
        <ele>226</ele>
        <time>2011-12-09T10:04:21.000Z</time>
      </trkpt>
      <trkpt lat="43.49969" lon="6.92713">
        <ele>226.19999694824</ele>
        <time>2011-12-09T10:04:23.000Z</time>
      </trkpt>
      <trkpt lat="43.49982" lon="6.92726">
        <ele>228</ele>
        <time>2011-12-09T10:04:28.000Z</time>
      </trkpt>
      <trkpt lat="43.49989" lon="6.92738">
        <ele>227</ele>
        <time>2011-12-09T10:04:32.000Z</time>
      </trkpt>
      <trkpt lat="43.49995" lon="6.92754">
        <ele>224.60000610352</ele>
        <time>2011-12-09T10:04:36.000Z</time>
      </trkpt>
      <trkpt lat="43.50002" lon="6.92778">
        <ele>221.39999389648</ele>
        <time>2011-12-09T10:04:41.000Z</time>
      </trkpt>
      <trkpt lat="43.50007" lon="6.928">
        <ele>217.39999389648</ele>
        <time>2011-12-09T10:04:46.000Z</time>
      </trkpt>
      <trkpt lat="43.50012" lon="6.92818">
        <ele>215.19999694824</ele>
        <time>2011-12-09T10:04:50.000Z</time>
      </trkpt>
      <trkpt lat="43.50014" lon="6.92831">
        <ele>212.80000305176</ele>
        <time>2011-12-09T10:04:54.000Z</time>
      </trkpt>
      <trkpt lat="43.50014" lon="6.92835">
        <ele>212</ele>
        <time>2011-12-09T10:04:55.000Z</time>
      </trkpt>
      <trkpt lat="43.50019" lon="6.92853">
        <ele>212.19999694824</ele>
        <time>2011-12-09T10:04:59.000Z</time>
      </trkpt>
      <trkpt lat="43.50018" lon="6.92864">
        <ele>210.39999389648</ele>
        <time>2011-12-09T10:05:01.000Z</time>
      </trkpt>
      <trkpt lat="43.50017" lon="6.92874">
        <ele>209</ele>
        <time>2011-12-09T10:05:03.000Z</time>
      </trkpt>
      <trkpt lat="43.50018" lon="6.92876">
        <ele>209.19999694824</ele>
        <time>2011-12-09T10:05:04.000Z</time>
      </trkpt>
      <trkpt lat="43.50018" lon="6.9288">
        <ele>208.80000305176</ele>
        <time>2011-12-09T10:05:06.000Z</time>
      </trkpt>
      <trkpt lat="43.50018" lon="6.92897">
        <ele>207.19999694824</ele>
        <time>2011-12-09T10:05:10.000Z</time>
      </trkpt>
      <trkpt lat="43.50018" lon="6.92915">
        <ele>205</ele>
        <time>2011-12-09T10:05:14.000Z</time>
      </trkpt>
      <trkpt lat="43.50017" lon="6.92937">
        <ele>202.80000305176</ele>
        <time>2011-12-09T10:05:19.000Z</time>
      </trkpt>
      <trkpt lat="43.50017" lon="6.92968">
        <ele>200</ele>
        <time>2011-12-09T10:05:24.000Z</time>
      </trkpt>
      <trkpt lat="43.50018" lon="6.92988">
        <ele>198.80000305176</ele>
        <time>2011-12-09T10:05:29.000Z</time>
      </trkpt>
      <trkpt lat="43.50018" lon="6.92993">
        <ele>198.19999694824</ele>
        <time>2011-12-09T10:05:30.000Z</time>
      </trkpt>
      <trkpt lat="43.50019" lon="6.93009">
        <ele>197</ele>
        <time>2011-12-09T10:05:33.000Z</time>
      </trkpt>
      <trkpt lat="43.50025" lon="6.93035">
        <ele>196.19999694824</ele>
        <time>2011-12-09T10:05:39.000Z</time>
      </trkpt>
      <trkpt lat="43.50031" lon="6.9306">
        <ele>195.19999694824</ele>
        <time>2011-12-09T10:05:44.000Z</time>
      </trkpt>
      <trkpt lat="43.50036" lon="6.93086">
        <ele>193.39999389648</ele>
        <time>2011-12-09T10:05:49.000Z</time>
      </trkpt>
      <trkpt lat="43.50045" lon="6.93104">
        <ele>193.39999389648</ele>
        <time>2011-12-09T10:05:54.000Z</time>
      </trkpt>
      <trkpt lat="43.50054" lon="6.93131">
        <ele>190.60000610352</ele>
        <time>2011-12-09T10:06:00.000Z</time>
      </trkpt>
      <trkpt lat="43.50062" lon="6.93148">
        <ele>189.39999389648</ele>
        <time>2011-12-09T10:06:04.000Z</time>
      </trkpt>
      <trkpt lat="43.50073" lon="6.93166">
        <ele>188.60000610352</ele>
        <time>2011-12-09T10:06:08.000Z</time>
      </trkpt>
      <trkpt lat="43.50081" lon="6.9317">
        <ele>190.39999389648</ele>
        <time>2011-12-09T10:06:10.000Z</time>
      </trkpt>
      <trkpt lat="43.50083" lon="6.93169">
        <ele>191.39999389648</ele>
        <time>2011-12-09T10:06:11.000Z</time>
      </trkpt>
      <trkpt lat="43.5009" lon="6.93162">
        <ele>193</ele>
        <time>2011-12-09T10:06:15.000Z</time>
      </trkpt>
      <trkpt lat="43.50092" lon="6.93161">
        <ele>193</ele>
        <time>2011-12-09T10:06:16.000Z</time>
      </trkpt>
      <trkpt lat="43.50106" lon="6.93162">
        <ele>192.19999694824</ele>
        <time>2011-12-09T10:06:23.000Z</time>
      </trkpt>
      <trkpt lat="43.50116" lon="6.93166">
        <ele>190.60000610352</ele>
        <time>2011-12-09T10:06:28.000Z</time>
      </trkpt>
      <trkpt lat="43.50128" lon="6.93169">
        <ele>189.60000610352</ele>
        <time>2011-12-09T10:06:34.000Z</time>
      </trkpt>
      <trkpt lat="43.50138" lon="6.93171">
        <ele>188.60000610352</ele>
        <time>2011-12-09T10:06:39.000Z</time>
      </trkpt>
      <trkpt lat="43.5014" lon="6.93173">
        <ele>188.19999694824</ele>
        <time>2011-12-09T10:06:40.000Z</time>
      </trkpt>
      <trkpt lat="43.50141" lon="6.9318">
        <ele>187</ele>
        <time>2011-12-09T10:06:42.000Z</time>
      </trkpt>
      <trkpt lat="43.50144" lon="6.93193">
        <ele>184.60000610352</ele>
        <time>2011-12-09T10:06:46.000Z</time>
      </trkpt>
      <trkpt lat="43.5015" lon="6.93195">
        <ele>184.39999389648</ele>
        <time>2011-12-09T10:06:49.000Z</time>
      </trkpt>
      <trkpt lat="43.50155" lon="6.93206">
        <ele>182.60000610352</ele>
        <time>2011-12-09T10:06:53.000Z</time>
      </trkpt>
      <trkpt lat="43.50155" lon="6.93209">
        <ele>182.19999694824</ele>
        <time>2011-12-09T10:06:54.000Z</time>
      </trkpt>
      <trkpt lat="43.50158" lon="6.93215">
        <ele>181.39999389648</ele>
        <time>2011-12-09T10:06:57.000Z</time>
      </trkpt>
      <trkpt lat="43.50159" lon="6.93217">
        <ele>181.19999694824</ele>
        <time>2011-12-09T10:06:58.000Z</time>
      </trkpt>
      <trkpt lat="43.50164" lon="6.93224">
        <ele>180.19999694824</ele>
        <time>2011-12-09T10:07:02.000Z</time>
      </trkpt>
      <trkpt lat="43.50165" lon="6.93227">
        <ele>179.80000305176</ele>
        <time>2011-12-09T10:07:03.000Z</time>
      </trkpt>
      <trkpt lat="43.50172" lon="6.9324">
        <ele>176.39999389648</ele>
        <time>2011-12-09T10:07:07.000Z</time>
      </trkpt>
      <trkpt lat="43.50174" lon="6.93244">
        <ele>175.19999694824</ele>
        <time>2011-12-09T10:07:08.000Z</time>
      </trkpt>
      <trkpt lat="43.50185" lon="6.93258">
        <ele>169.19999694824</ele>
        <time>2011-12-09T10:07:13.000Z</time>
      </trkpt>
      <trkpt lat="43.50185" lon="6.93261">
        <ele>168.39999389648</ele>
        <time>2011-12-09T10:07:14.000Z</time>
      </trkpt>
      <trkpt lat="43.50187" lon="6.93269">
        <ele>166.39999389648</ele>
        <time>2011-12-09T10:07:17.000Z</time>
      </trkpt>
      <trkpt lat="43.50196" lon="6.93272">
        <ele>163.39999389648</ele>
        <time>2011-12-09T10:07:21.000Z</time>
      </trkpt>
      <trkpt lat="43.50199" lon="6.93279">
        <ele>161.39999389648</ele>
        <time>2011-12-09T10:07:23.000Z</time>
      </trkpt>
      <trkpt lat="43.50201" lon="6.93282">
        <ele>160.80000305176</ele>
        <time>2011-12-09T10:07:24.000Z</time>
      </trkpt>
      <trkpt lat="43.50201" lon="6.93285">
        <ele>160.39999389648</ele>
        <time>2011-12-09T10:07:25.000Z</time>
      </trkpt>
      <trkpt lat="43.50204" lon="6.93291">
        <ele>158.60000610352</ele>
        <time>2011-12-09T10:07:28.000Z</time>
      </trkpt>
      <trkpt lat="43.50209" lon="6.93291">
        <ele>157.60000610352</ele>
        <time>2011-12-09T10:07:30.000Z</time>
      </trkpt>
      <trkpt lat="43.50214" lon="6.93293">
        <ele>156.39999389648</ele>
        <time>2011-12-09T10:07:32.000Z</time>
      </trkpt>
      <trkpt lat="43.50216" lon="6.93295">
        <ele>156</ele>
        <time>2011-12-09T10:07:33.000Z</time>
      </trkpt>
      <trkpt lat="43.5022" lon="6.933">
        <ele>154.60000610352</ele>
        <time>2011-12-09T10:07:36.000Z</time>
      </trkpt>
      <trkpt lat="43.50224" lon="6.93301">
        <ele>154</ele>
        <time>2011-12-09T10:07:38.000Z</time>
      </trkpt>
      <trkpt lat="43.50224" lon="6.93305">
        <ele>153.60000610352</ele>
        <time>2011-12-09T10:07:40.000Z</time>
      </trkpt>
      <trkpt lat="43.50226" lon="6.93311">
        <ele>153</ele>
        <time>2011-12-09T10:07:44.000Z</time>
      </trkpt>
      <trkpt lat="43.50236" lon="6.93306">
        <ele>151.60000610352</ele>
        <time>2011-12-09T10:07:48.000Z</time>
      </trkpt>
      <trkpt lat="43.50237" lon="6.93315">
        <ele>151.19999694824</ele>
        <time>2011-12-09T10:07:51.000Z</time>
      </trkpt>
      <trkpt lat="43.50234" lon="6.93326">
        <ele>151.39999389648</ele>
        <time>2011-12-09T10:07:55.000Z</time>
      </trkpt>
      <trkpt lat="43.50228" lon="6.93337">
        <ele>150.60000610352</ele>
        <time>2011-12-09T10:08:00.000Z</time>
      </trkpt>
      <trkpt lat="43.5022" lon="6.93339">
        <ele>150.60000610352</ele>
        <time>2011-12-09T10:08:04.000Z</time>
      </trkpt>
      <trkpt lat="43.50219" lon="6.9334">
        <ele>150.39999389648</ele>
        <time>2011-12-09T10:08:05.000Z</time>
      </trkpt>
      <trkpt lat="43.50214" lon="6.93344">
        <ele>149.80000305176</ele>
        <time>2011-12-09T10:08:08.000Z</time>
      </trkpt>
      <trkpt lat="43.50211" lon="6.93344">
        <ele>149.80000305176</ele>
        <time>2011-12-09T10:08:09.000Z</time>
      </trkpt>
      <trkpt lat="43.50208" lon="6.93343">
        <ele>150.39999389648</ele>
        <time>2011-12-09T10:08:12.000Z</time>
      </trkpt>
      <trkpt lat="43.50204" lon="6.93341">
        <ele>151.19999694824</ele>
        <time>2011-12-09T10:08:20.000Z</time>
      </trkpt>
      <trkpt lat="43.50202" lon="6.93342">
        <ele>151.19999694824</ele>
        <time>2011-12-09T10:08:25.000Z</time>
      </trkpt>
      <trkpt lat="43.50197" lon="6.93347">
        <ele>150</ele>
        <time>2011-12-09T10:08:35.000Z</time>
      </trkpt>
      <trkpt lat="43.50185" lon="6.93349">
        <ele>150.19999694824</ele>
        <time>2011-12-09T10:08:40.000Z</time>
      </trkpt>
      <trkpt lat="43.50174" lon="6.93357">
        <ele>148.60000610352</ele>
        <time>2011-12-09T10:08:44.000Z</time>
      </trkpt>
      <trkpt lat="43.50173" lon="6.9336">
        <ele>147.80000305176</ele>
        <time>2011-12-09T10:08:45.000Z</time>
      </trkpt>
      <trkpt lat="43.50174" lon="6.93368">
        <ele>145.39999389648</ele>
        <time>2011-12-09T10:08:47.000Z</time>
      </trkpt>
      <trkpt lat="43.50171" lon="6.9338">
        <ele>142.39999389648</ele>
        <time>2011-12-09T10:08:51.000Z</time>
      </trkpt>
      <trkpt lat="43.50165" lon="6.93377">
        <ele>143</ele>
        <time>2011-12-09T10:08:54.000Z</time>
      </trkpt>
      <trkpt lat="43.5016" lon="6.9337">
        <ele>144.19999694824</ele>
        <time>2011-12-09T10:08:57.000Z</time>
      </trkpt>
      <trkpt lat="43.50155" lon="6.93361">
        <ele>145.60000610352</ele>
        <time>2011-12-09T10:09:00.000Z</time>
      </trkpt>
      <trkpt lat="43.50139" lon="6.93341">
        <ele>148.80000305176</ele>
        <time>2011-12-09T10:09:06.000Z</time>
      </trkpt>
      <trkpt lat="43.50124" lon="6.93314">
        <ele>154</ele>
        <time>2011-12-09T10:09:11.000Z</time>
      </trkpt>
      <trkpt lat="43.50121" lon="6.93309">
        <ele>155.19999694824</ele>
        <time>2011-12-09T10:09:12.000Z</time>
      </trkpt>
      <trkpt lat="43.50108" lon="6.93301">
        <ele>156</ele>
        <time>2011-12-09T10:09:15.000Z</time>
      </trkpt>
      <trkpt lat="43.50093" lon="6.93301">
        <ele>153.60000610352</ele>
        <time>2011-12-09T10:09:19.000Z</time>
      </trkpt>
      <trkpt lat="43.5009" lon="6.93301">
        <ele>153</ele>
        <time>2011-12-09T10:09:20.000Z</time>
      </trkpt>
      <trkpt lat="43.50069" lon="6.93298">
        <ele>151.39999389648</ele>
        <time>2011-12-09T10:09:26.000Z</time>
      </trkpt>
      <trkpt lat="43.50045" lon="6.93296">
        <ele>148.60000610352</ele>
        <time>2011-12-09T10:09:33.000Z</time>
      </trkpt>
      <trkpt lat="43.5003" lon="6.9329">
        <ele>148.39999389648</ele>
        <time>2011-12-09T10:09:37.000Z</time>
      </trkpt>
      <trkpt lat="43.50014" lon="6.93282">
        <ele>148</ele>
        <time>2011-12-09T10:09:42.000Z</time>
      </trkpt>
      <trkpt lat="43.50003" lon="6.9328">
        <ele>146.60000610352</ele>
        <time>2011-12-09T10:09:47.000Z</time>
      </trkpt>
      <trkpt lat="43.49992" lon="6.93278">
        <ele>145.19999694824</ele>
        <time>2011-12-09T10:09:53.000Z</time>
      </trkpt>
      <trkpt lat="43.49982" lon="6.93268">
        <ele>145.39999389648</ele>
        <time>2011-12-09T10:10:00.000Z</time>
      </trkpt>
      <trkpt lat="43.49977" lon="6.93257">
        <ele>146.60000610352</ele>
        <time>2011-12-09T10:10:06.000Z</time>
      </trkpt>
      <trkpt lat="43.49975" lon="6.93256">
        <ele>146.39999389648</ele>
        <time>2011-12-09T10:10:07.000Z</time>
      </trkpt>
      <trkpt lat="43.49973" lon="6.93248">
        <ele>147.19999694824</ele>
        <time>2011-12-09T10:10:11.000Z</time>
      </trkpt>
      <trkpt lat="43.49972" lon="6.93246">
        <ele>147.39999389648</ele>
        <time>2011-12-09T10:10:12.000Z</time>
      </trkpt>
      <trkpt lat="43.49973" lon="6.93244">
        <ele>147.39999389648</ele>
        <time>2011-12-09T10:10:13.000Z</time>
      </trkpt>
      <trkpt lat="43.49978" lon="6.9324">
        <ele>149</ele>
        <time>2011-12-09T10:10:17.000Z</time>
      </trkpt>
      <trkpt lat="43.4998" lon="6.9323">
        <ele>150.39999389648</ele>
        <time>2011-12-09T10:10:22.000Z</time>
      </trkpt>
      <trkpt lat="43.4998" lon="6.93223">
        <ele>151</ele>
        <time>2011-12-09T10:10:24.000Z</time>
      </trkpt>
      <trkpt lat="43.49978" lon="6.93213">
        <ele>151.39999389648</ele>
        <time>2011-12-09T10:10:27.000Z</time>
      </trkpt>
      <trkpt lat="43.49977" lon="6.93189">
        <ele>153</ele>
        <time>2011-12-09T10:10:32.000Z</time>
      </trkpt>
      <trkpt lat="43.49973" lon="6.93175">
        <ele>152.60000610352</ele>
        <time>2011-12-09T10:10:36.000Z</time>
      </trkpt>
      <trkpt lat="43.49963" lon="6.93158">
        <ele>149.80000305176</ele>
        <time>2011-12-09T10:10:41.000Z</time>
      </trkpt>
      <trkpt lat="43.49959" lon="6.93142">
        <ele>150.19999694824</ele>
        <time>2011-12-09T10:10:45.000Z</time>
      </trkpt>
      <trkpt lat="43.49956" lon="6.93136">
        <ele>149.60000610352</ele>
        <time>2011-12-09T10:10:47.000Z</time>
      </trkpt>
      <trkpt lat="43.49951" lon="6.9313">
        <ele>147.80000305176</ele>
        <time>2011-12-09T10:10:49.000Z</time>
      </trkpt>
      <trkpt lat="43.49937" lon="6.93108">
        <ele>143.39999389648</ele>
        <time>2011-12-09T10:10:54.000Z</time>
      </trkpt>
      <trkpt lat="43.49929" lon="6.93083">
        <ele>141.19999694824</ele>
        <time>2011-12-09T10:10:58.000Z</time>
      </trkpt>
      <trkpt lat="43.49928" lon="6.93079">
        <ele>141.19999694824</ele>
        <time>2011-12-09T10:10:59.000Z</time>
      </trkpt>
      <trkpt lat="43.49926" lon="6.93075">
        <ele>140.60000610352</ele>
        <time>2011-12-09T10:11:00.000Z</time>
      </trkpt>
      <trkpt lat="43.49922" lon="6.93066">
        <ele>139.19999694824</ele>
        <time>2011-12-09T10:11:02.000Z</time>
      </trkpt>
      <trkpt lat="43.49917" lon="6.93049">
        <ele>138.19999694824</ele>
        <time>2011-12-09T10:11:05.000Z</time>
      </trkpt>
      <trkpt lat="43.49913" lon="6.93032">
        <ele>138.19999694824</ele>
        <time>2011-12-09T10:11:08.000Z</time>
      </trkpt>
      <trkpt lat="43.49905" lon="6.92994">
        <ele>138.60000610352</ele>
        <time>2011-12-09T10:11:14.000Z</time>
      </trkpt>
      <trkpt lat="43.49904" lon="6.92981">
        <ele>139.80000305176</ele>
        <time>2011-12-09T10:11:16.000Z</time>
      </trkpt>
      <trkpt lat="43.49899" lon="6.92956">
        <ele>141.19999694824</ele>
        <time>2011-12-09T10:11:20.000Z</time>
      </trkpt>
      <trkpt lat="43.49896" lon="6.92945">
        <ele>141.60000610352</ele>
        <time>2011-12-09T10:11:22.000Z</time>
      </trkpt>
      <trkpt lat="43.49891" lon="6.92937">
        <ele>140.80000305176</ele>
        <time>2011-12-09T10:11:24.000Z</time>
      </trkpt>
      <trkpt lat="43.49883" lon="6.92924">
        <ele>139.80000305176</ele>
        <time>2011-12-09T10:11:27.000Z</time>
      </trkpt>
      <trkpt lat="43.49875" lon="6.92915">
        <ele>138.19999694824</ele>
        <time>2011-12-09T10:11:30.000Z</time>
      </trkpt>
      <trkpt lat="43.49861" lon="6.92898">
        <ele>136.60000610352</ele>
        <time>2011-12-09T10:11:36.000Z</time>
      </trkpt>
      <trkpt lat="43.4985" lon="6.92876">
        <ele>136.19999694824</ele>
        <time>2011-12-09T10:11:42.000Z</time>
      </trkpt>
      <trkpt lat="43.49845" lon="6.92855">
        <ele>137.80000305176</ele>
        <time>2011-12-09T10:11:46.000Z</time>
      </trkpt>
      <trkpt lat="43.4984" lon="6.92837">
        <ele>138.80000305176</ele>
        <time>2011-12-09T10:11:50.000Z</time>
      </trkpt>
      <trkpt lat="43.49828" lon="6.9281">
        <ele>140.19999694824</ele>
        <time>2011-12-09T10:11:56.000Z</time>
      </trkpt>
      <trkpt lat="43.49814" lon="6.92786">
        <ele>141.19999694824</ele>
        <time>2011-12-09T10:12:02.000Z</time>
      </trkpt>
      <trkpt lat="43.49802" lon="6.92763">
        <ele>142.19999694824</ele>
        <time>2011-12-09T10:12:07.000Z</time>
      </trkpt>
      <trkpt lat="43.49793" lon="6.92753">
        <ele>141.19999694824</ele>
        <time>2011-12-09T10:12:11.000Z</time>
      </trkpt>
      <trkpt lat="43.49785" lon="6.92742">
        <ele>140.80000305176</ele>
        <time>2011-12-09T10:12:16.000Z</time>
      </trkpt>
      <trkpt lat="43.49777" lon="6.92729">
        <ele>141</ele>
        <time>2011-12-09T10:12:22.000Z</time>
      </trkpt>
      <trkpt lat="43.49773" lon="6.92719">
        <ele>141.60000610352</ele>
        <time>2011-12-09T10:12:28.000Z</time>
      </trkpt>
      <trkpt lat="43.49772" lon="6.9271">
        <ele>143</ele>
        <time>2011-12-09T10:12:49.000Z</time>
      </trkpt>
      <trkpt lat="43.49772" lon="6.92684">
        <ele>147.39999389648</ele>
        <time>2011-12-09T10:12:57.000Z</time>
      </trkpt>
      <trkpt lat="43.49772" lon="6.92681">
        <ele>147.80000305176</ele>
        <time>2011-12-09T10:12:58.000Z</time>
      </trkpt>
      <trkpt lat="43.49768" lon="6.92675">
        <ele>147.80000305176</ele>
        <time>2011-12-09T10:13:01.000Z</time>
      </trkpt>
      <trkpt lat="43.49767" lon="6.92672">
        <ele>147.80000305176</ele>
        <time>2011-12-09T10:13:02.000Z</time>
      </trkpt>
      <trkpt lat="43.4976" lon="6.92655">
        <ele>148</ele>
        <time>2011-12-09T10:13:07.000Z</time>
      </trkpt>
      <trkpt lat="43.49754" lon="6.92634">
        <ele>149.19999694824</ele>
        <time>2011-12-09T10:13:12.000Z</time>
      </trkpt>
      <trkpt lat="43.49751" lon="6.92623">
        <ele>149.60000610352</ele>
        <time>2011-12-09T10:13:15.000Z</time>
      </trkpt>
      <trkpt lat="43.49748" lon="6.92623">
        <ele>149</ele>
        <time>2011-12-09T10:13:16.000Z</time>
      </trkpt>
      <trkpt lat="43.49736" lon="6.92631">
        <ele>145.39999389648</ele>
        <time>2011-12-09T10:13:20.000Z</time>
      </trkpt>
      <trkpt lat="43.4972" lon="6.92635">
        <ele>142.19999694824</ele>
        <time>2011-12-09T10:13:24.000Z</time>
      </trkpt>
      <trkpt lat="43.49716" lon="6.92631">
        <ele>142</ele>
        <time>2011-12-09T10:13:25.000Z</time>
      </trkpt>
      <trkpt lat="43.49709" lon="6.92622">
        <ele>141.60000610352</ele>
        <time>2011-12-09T10:13:27.000Z</time>
      </trkpt>
      <trkpt lat="43.49702" lon="6.92606">
        <ele>141.80000305176</ele>
        <time>2011-12-09T10:13:30.000Z</time>
      </trkpt>
      <trkpt lat="43.49698" lon="6.92603">
        <ele>141.39999389648</ele>
        <time>2011-12-09T10:13:31.000Z</time>
      </trkpt>
      <trkpt lat="43.49687" lon="6.92599">
        <ele>139.39999389648</ele>
        <time>2011-12-09T10:13:34.000Z</time>
      </trkpt>
      <trkpt lat="43.49683" lon="6.92597">
        <ele>138.60000610352</ele>
        <time>2011-12-09T10:13:35.000Z</time>
      </trkpt>
      <trkpt lat="43.49675" lon="6.92591">
        <ele>137.39999389648</ele>
        <time>2011-12-09T10:13:37.000Z</time>
      </trkpt>
      <trkpt lat="43.49671" lon="6.92587">
        <ele>136.80000305176</ele>
        <time>2011-12-09T10:13:38.000Z</time>
      </trkpt>
      <trkpt lat="43.49663" lon="6.92572">
        <ele>136.80000305176</ele>
        <time>2011-12-09T10:13:41.000Z</time>
      </trkpt>
      <trkpt lat="43.49655" lon="6.92556">
        <ele>137.19999694824</ele>
        <time>2011-12-09T10:13:44.000Z</time>
      </trkpt>
      <trkpt lat="43.49644" lon="6.92535">
        <ele>137.80000305176</ele>
        <time>2011-12-09T10:13:48.000Z</time>
      </trkpt>
      <trkpt lat="43.49639" lon="6.92524">
        <ele>138.39999389648</ele>
        <time>2011-12-09T10:13:50.000Z</time>
      </trkpt>
      <trkpt lat="43.49635" lon="6.92512">
        <ele>139.19999694824</ele>
        <time>2011-12-09T10:13:52.000Z</time>
      </trkpt>
      <trkpt lat="43.49626" lon="6.92485">
        <ele>140.19999694824</ele>
        <time>2011-12-09T10:13:56.000Z</time>
      </trkpt>
      <trkpt lat="43.49623" lon="6.92473">
        <ele>141</ele>
        <time>2011-12-09T10:13:58.000Z</time>
      </trkpt>
      <trkpt lat="43.49619" lon="6.92462">
        <ele>141.60000610352</ele>
        <time>2011-12-09T10:14:00.000Z</time>
      </trkpt>
      <trkpt lat="43.49619" lon="6.92454">
        <ele>142.19999694824</ele>
        <time>2011-12-09T10:14:02.000Z</time>
      </trkpt>
      <trkpt lat="43.49622" lon="6.9245">
        <ele>142.60000610352</ele>
        <time>2011-12-09T10:14:04.000Z</time>
      </trkpt>
      <trkpt lat="43.4962" lon="6.92442">
        <ele>143.19999694824</ele>
        <time>2011-12-09T10:14:08.000Z</time>
      </trkpt>
      <trkpt lat="43.49614" lon="6.92436">
        <ele>143.39999389648</ele>
        <time>2011-12-09T10:14:12.000Z</time>
      </trkpt>
      <trkpt lat="43.49607" lon="6.92438">
        <ele>142.80000305176</ele>
        <time>2011-12-09T10:14:16.000Z</time>
      </trkpt>
      <trkpt lat="43.49604" lon="6.92441">
        <ele>142.39999389648</ele>
        <time>2011-12-09T10:14:19.000Z</time>
      </trkpt>
      <trkpt lat="43.49604" lon="6.92441">
        <ele>142.39999389648</ele>
        <time>2011-12-09T10:14:20.000Z</time>
      </trkpt>
      <trkpt lat="43.49602" lon="6.92441">
        <ele>142.19999694824</ele>
        <time>2011-12-09T10:14:22.000Z</time>
      </trkpt>
      <trkpt lat="43.496" lon="6.92441">
        <ele>142</ele>
        <time>2011-12-09T10:14:25.000Z</time>
      </trkpt>
      <trkpt lat="43.49594" lon="6.92444">
        <ele>141.39999389648</ele>
        <time>2011-12-09T10:14:31.000Z</time>
      </trkpt>
      <trkpt lat="43.49591" lon="6.92445">
        <ele>141</ele>
        <time>2011-12-09T10:14:34.000Z</time>
      </trkpt>
      <trkpt lat="43.49591" lon="6.92446">
        <ele>141</ele>
        <time>2011-12-09T10:14:37.000Z</time>
      </trkpt>
      <trkpt lat="43.49589" lon="6.92454">
        <ele>140</ele>
        <time>2011-12-09T10:14:46.000Z</time>
      </trkpt>
      <trkpt lat="43.49587" lon="6.92474">
        <ele>137.39999389648</ele>
        <time>2011-12-09T10:14:52.000Z</time>
      </trkpt>
      <trkpt lat="43.49584" lon="6.92499">
        <ele>134.19999694824</ele>
        <time>2011-12-09T10:14:58.000Z</time>
      </trkpt>
      <trkpt lat="43.49577" lon="6.92518">
        <ele>134</ele>
        <time>2011-12-09T10:15:03.000Z</time>
      </trkpt>
      <trkpt lat="43.49575" lon="6.92533">
        <ele>133</ele>
        <time>2011-12-09T10:15:08.000Z</time>
      </trkpt>
      <trkpt lat="43.49569" lon="6.92549">
        <ele>132.80000305176</ele>
        <time>2011-12-09T10:15:15.000Z</time>
      </trkpt>
      <trkpt lat="43.49564" lon="6.92567">
        <ele>131.80000305176</ele>
        <time>2011-12-09T10:15:22.000Z</time>
      </trkpt>
      <trkpt lat="43.49559" lon="6.92584">
        <ele>130.80000305176</ele>
        <time>2011-12-09T10:15:28.000Z</time>
      </trkpt>
      <trkpt lat="43.49546" lon="6.92604">
        <ele>130.60000610352</ele>
        <time>2011-12-09T10:15:35.000Z</time>
      </trkpt>
      <trkpt lat="43.49528" lon="6.92624">
        <ele>131</ele>
        <time>2011-12-09T10:15:41.000Z</time>
      </trkpt>
      <trkpt lat="43.49514" lon="6.92645">
        <ele>129.80000305176</ele>
        <time>2011-12-09T10:15:46.000Z</time>
      </trkpt>
      <trkpt lat="43.49506" lon="6.92659">
        <ele>128.60000610352</ele>
        <time>2011-12-09T10:15:49.000Z</time>
      </trkpt>
      <trkpt lat="43.49503" lon="6.92677">
        <ele>126.59999847412</ele>
        <time>2011-12-09T10:15:52.000Z</time>
      </trkpt>
      <trkpt lat="43.49503" lon="6.92682">
        <ele>126.19999694824</ele>
        <time>2011-12-09T10:15:53.000Z</time>
      </trkpt>
      <trkpt lat="43.49502" lon="6.92687">
        <ele>125.80000305176</ele>
        <time>2011-12-09T10:15:54.000Z</time>
      </trkpt>
      <trkpt lat="43.49503" lon="6.92696">
        <ele>124.80000305176</ele>
        <time>2011-12-09T10:15:56.000Z</time>
      </trkpt>
      <trkpt lat="43.49506" lon="6.92714">
        <ele>122.80000305176</ele>
        <time>2011-12-09T10:16:00.000Z</time>
      </trkpt>
      <trkpt lat="43.49503" lon="6.92743">
        <ele>120.40000152588</ele>
        <time>2011-12-09T10:16:04.000Z</time>
      </trkpt>
      <trkpt lat="43.49493" lon="6.92775">
        <ele>120</ele>
        <time>2011-12-09T10:16:08.000Z</time>
      </trkpt>
      <trkpt lat="43.49488" lon="6.92796">
        <ele>120.59999847412</ele>
        <time>2011-12-09T10:16:11.000Z</time>
      </trkpt>
      <trkpt lat="43.49487" lon="6.92801">
        <ele>120.80000305176</ele>
        <time>2011-12-09T10:16:12.000Z</time>
      </trkpt>
      <trkpt lat="43.49478" lon="6.92815">
        <ele>121.19999694824</ele>
        <time>2011-12-09T10:16:16.000Z</time>
      </trkpt>
      <trkpt lat="43.49474" lon="6.92821">
        <ele>121.40000152588</ele>
        <time>2011-12-09T10:16:18.000Z</time>
      </trkpt>
      <trkpt lat="43.49472" lon="6.92824">
        <ele>121.59999847412</ele>
        <time>2011-12-09T10:16:19.000Z</time>
      </trkpt>
      <trkpt lat="43.49464" lon="6.92836">
        <ele>122.59999847412</ele>
        <time>2011-12-09T10:16:23.000Z</time>
      </trkpt>
      <trkpt lat="43.49451" lon="6.92846">
        <ele>123.80000305176</ele>
        <time>2011-12-09T10:16:29.000Z</time>
      </trkpt>
      <trkpt lat="43.49446" lon="6.92845">
        <ele>123.40000152588</ele>
        <time>2011-12-09T10:16:32.000Z</time>
      </trkpt>
      <trkpt lat="43.49443" lon="6.92842">
        <ele>123</ele>
        <time>2011-12-09T10:16:34.000Z</time>
      </trkpt>
      <trkpt lat="43.49431" lon="6.92842">
        <ele>122.80000305176</ele>
        <time>2011-12-09T10:16:40.000Z</time>
      </trkpt>
      <trkpt lat="43.49418" lon="6.92849">
        <ele>123.40000152588</ele>
        <time>2011-12-09T10:16:47.000Z</time>
      </trkpt>
      <trkpt lat="43.49406" lon="6.92867">
        <ele>122.59999847412</ele>
        <time>2011-12-09T10:16:56.000Z</time>
      </trkpt>
      <trkpt lat="43.49404" lon="6.92888">
        <ele>125.19999694824</ele>
        <time>2011-12-09T10:17:04.000Z</time>
      </trkpt>
      <trkpt lat="43.49409" lon="6.92909">
        <ele>130.19999694824</ele>
        <time>2011-12-09T10:17:12.000Z</time>
      </trkpt>
      <trkpt lat="43.49416" lon="6.92932">
        <ele>136</ele>
        <time>2011-12-09T10:17:21.000Z</time>
      </trkpt>
      <trkpt lat="43.49416" lon="6.92952">
        <ele>138.39999389648</ele>
        <time>2011-12-09T10:17:28.000Z</time>
      </trkpt>
      <trkpt lat="43.4941" lon="6.92966">
        <ele>138</ele>
        <time>2011-12-09T10:17:34.000Z</time>
      </trkpt>
      <trkpt lat="43.49407" lon="6.92987">
        <ele>139.80000305176</ele>
        <time>2011-12-09T10:17:42.000Z</time>
      </trkpt>
      <trkpt lat="43.49411" lon="6.93005">
        <ele>143.80000305176</ele>
        <time>2011-12-09T10:17:49.000Z</time>
      </trkpt>
      <trkpt lat="43.49411" lon="6.93023">
        <ele>146.19999694824</ele>
        <time>2011-12-09T10:17:56.000Z</time>
      </trkpt>
      <trkpt lat="43.49406" lon="6.93042">
        <ele>147.60000610352</ele>
        <time>2011-12-09T10:18:03.000Z</time>
      </trkpt>
      <trkpt lat="43.49395" lon="6.93071">
        <ele>148.60000610352</ele>
        <time>2011-12-09T10:18:14.000Z</time>
      </trkpt>
      <trkpt lat="43.49384" lon="6.93089">
        <ele>148</ele>
        <time>2011-12-09T10:18:22.000Z</time>
      </trkpt>
      <trkpt lat="43.49376" lon="6.93103">
        <ele>147.39999389648</ele>
        <time>2011-12-09T10:18:28.000Z</time>
      </trkpt>
      <trkpt lat="43.49368" lon="6.93115">
        <ele>146.80000305176</ele>
        <time>2011-12-09T10:18:34.000Z</time>
      </trkpt>
      <trkpt lat="43.49359" lon="6.93145">
        <ele>149</ele>
        <time>2011-12-09T10:18:46.000Z</time>
      </trkpt>
      <trkpt lat="43.49358" lon="6.93166">
        <ele>152</ele>
        <time>2011-12-09T10:18:54.000Z</time>
      </trkpt>
      <trkpt lat="43.49364" lon="6.93187">
        <ele>155.39999389648</ele>
        <time>2011-12-09T10:19:03.000Z</time>
      </trkpt>
      <trkpt lat="43.49371" lon="6.93197">
        <ele>157.39999389648</ele>
        <time>2011-12-09T10:19:09.000Z</time>
      </trkpt>
      <trkpt lat="43.49377" lon="6.93198">
        <ele>158.39999389648</ele>
        <time>2011-12-09T10:19:14.000Z</time>
      </trkpt>
      <trkpt lat="43.49377" lon="6.93196">
        <ele>158.19999694824</ele>
        <time>2011-12-09T10:19:15.000Z</time>
      </trkpt>
      <trkpt lat="43.49374" lon="6.93189">
        <ele>157.19999694824</ele>
        <time>2011-12-09T10:19:19.000Z</time>
      </trkpt>
      <trkpt lat="43.49371" lon="6.93174">
        <ele>155.39999389648</ele>
        <time>2011-12-09T10:19:25.000Z</time>
      </trkpt>
      <trkpt lat="43.49374" lon="6.93159">
        <ele>154.19999694824</ele>
        <time>2011-12-09T10:19:31.000Z</time>
      </trkpt>
      <trkpt lat="43.49375" lon="6.93157">
        <ele>154.19999694824</ele>
        <time>2011-12-09T10:19:32.000Z</time>
      </trkpt>
      <trkpt lat="43.49386" lon="6.93142">
        <ele>154.80000305176</ele>
        <time>2011-12-09T10:19:40.000Z</time>
      </trkpt>
      <trkpt lat="43.49395" lon="6.93133">
        <ele>156</ele>
        <time>2011-12-09T10:19:46.000Z</time>
      </trkpt>
      <trkpt lat="43.49416" lon="6.93123">
        <ele>160</ele>
        <time>2011-12-09T10:19:57.000Z</time>
      </trkpt>
      <trkpt lat="43.49426" lon="6.93116">
        <ele>158.19999694824</ele>
        <time>2011-12-09T10:20:03.000Z</time>
      </trkpt>
      <trkpt lat="43.49438" lon="6.93112">
        <ele>156</ele>
        <time>2011-12-09T10:20:10.000Z</time>
      </trkpt>
      <trkpt lat="43.49442" lon="6.93113">
        <ele>155.39999389648</ele>
        <time>2011-12-09T10:20:12.000Z</time>
      </trkpt>
      <trkpt lat="43.49443" lon="6.9312">
        <ele>155.39999389648</ele>
        <time>2011-12-09T10:20:15.000Z</time>
      </trkpt>
      <trkpt lat="43.49444" lon="6.93122">
        <ele>155.39999389648</ele>
        <time>2011-12-09T10:20:16.000Z</time>
      </trkpt>
      <trkpt lat="43.49446" lon="6.93141">
        <ele>155.80000305176</ele>
        <time>2011-12-09T10:20:21.000Z</time>
      </trkpt>
      <trkpt lat="43.49443" lon="6.93168">
        <ele>157.60000610352</ele>
        <time>2011-12-09T10:20:26.000Z</time>
      </trkpt>
      <trkpt lat="43.49433" lon="6.93189">
        <ele>159.80000305176</ele>
        <time>2011-12-09T10:20:31.000Z</time>
      </trkpt>
      <trkpt lat="43.49415" lon="6.93218">
        <ele>163.80000305176</ele>
        <time>2011-12-09T10:20:38.000Z</time>
      </trkpt>
      <trkpt lat="43.49406" lon="6.93234">
        <ele>163.19999694824</ele>
        <time>2011-12-09T10:20:43.000Z</time>
      </trkpt>
      <trkpt lat="43.49402" lon="6.93253">
        <ele>163.60000610352</ele>
        <time>2011-12-09T10:20:49.000Z</time>
      </trkpt>
      <trkpt lat="43.494" lon="6.93277">
        <ele>164.19999694824</ele>
        <time>2011-12-09T10:20:58.000Z</time>
      </trkpt>
      <trkpt lat="43.49401" lon="6.93301">
        <ele>165</ele>
        <time>2011-12-09T10:21:07.000Z</time>
      </trkpt>
      <trkpt lat="43.49402" lon="6.93314">
        <ele>165.19999694824</ele>
        <time>2011-12-09T10:21:13.000Z</time>
      </trkpt>
      <trkpt lat="43.49402" lon="6.93324">
        <ele>165.60000610352</ele>
        <time>2011-12-09T10:21:17.000Z</time>
      </trkpt>
      <trkpt lat="43.494" lon="6.93326">
        <ele>165.80000305176</ele>
        <time>2011-12-09T10:21:18.000Z</time>
      </trkpt>
      <trkpt lat="43.49394" lon="6.93324">
        <ele>166.39999389648</ele>
        <time>2011-12-09T10:21:22.000Z</time>
      </trkpt>
      <trkpt lat="43.4939" lon="6.93317">
        <ele>166.39999389648</ele>
        <time>2011-12-09T10:21:26.000Z</time>
      </trkpt>
      <trkpt lat="43.49383" lon="6.9331">
        <ele>166.60000610352</ele>
        <time>2011-12-09T10:21:30.000Z</time>
      </trkpt>
      <trkpt lat="43.49372" lon="6.93306">
        <ele>167.19999694824</ele>
        <time>2011-12-09T10:21:36.000Z</time>
      </trkpt>
      <trkpt lat="43.49357" lon="6.93305">
        <ele>168</ele>
        <time>2011-12-09T10:21:44.000Z</time>
      </trkpt>
      <trkpt lat="43.49346" lon="6.93315">
        <ele>170.19999694824</ele>
        <time>2011-12-09T10:21:51.000Z</time>
      </trkpt>
      <trkpt lat="43.4934" lon="6.93328">
        <ele>172.39999389648</ele>
        <time>2011-12-09T10:21:57.000Z</time>
      </trkpt>
      <trkpt lat="43.49344" lon="6.93346">
        <ele>173.60000610352</ele>
        <time>2011-12-09T10:22:05.000Z</time>
      </trkpt>
      <trkpt lat="43.49353" lon="6.93359">
        <ele>173.19999694824</ele>
        <time>2011-12-09T10:22:12.000Z</time>
      </trkpt>
      <trkpt lat="43.49355" lon="6.93378">
        <ele>174</ele>
        <time>2011-12-09T10:22:19.000Z</time>
      </trkpt>
      <trkpt lat="43.49349" lon="6.93395">
        <ele>176</ele>
        <time>2011-12-09T10:22:26.000Z</time>
      </trkpt>
      <trkpt lat="43.49345" lon="6.93419">
        <ele>178</ele>
        <time>2011-12-09T10:22:31.000Z</time>
      </trkpt>
      <trkpt lat="43.49343" lon="6.93446">
        <ele>177.80000305176</ele>
        <time>2011-12-09T10:22:36.000Z</time>
      </trkpt>
      <trkpt lat="43.49337" lon="6.93473">
        <ele>178</ele>
        <time>2011-12-09T10:22:42.000Z</time>
      </trkpt>
      <trkpt lat="43.49338" lon="6.93497">
        <ele>177.39999389648</ele>
        <time>2011-12-09T10:22:45.000Z</time>
      </trkpt>
      <trkpt lat="43.49341" lon="6.93518">
        <ele>175.80000305176</ele>
        <time>2011-12-09T10:22:47.000Z</time>
      </trkpt>
      <trkpt lat="43.49347" lon="6.93541">
        <ele>173.19999694824</ele>
        <time>2011-12-09T10:22:49.000Z</time>
      </trkpt>
      <trkpt lat="43.49352" lon="6.93568">
        <ele>170.19999694824</ele>
        <time>2011-12-09T10:22:51.000Z</time>
      </trkpt>
      <trkpt lat="43.49352" lon="6.93582">
        <ele>169.19999694824</ele>
        <time>2011-12-09T10:22:52.000Z</time>
      </trkpt>
      <trkpt lat="43.49345" lon="6.93611">
        <ele>171.60000610352</ele>
        <time>2011-12-09T10:22:55.000Z</time>
      </trkpt>
      <trkpt lat="43.49339" lon="6.93624">
        <ele>173.39999389648</ele>
        <time>2011-12-09T10:22:57.000Z</time>
      </trkpt>
      <trkpt lat="43.49334" lon="6.93636">
        <ele>175</ele>
        <time>2011-12-09T10:22:59.000Z</time>
      </trkpt>
      <trkpt lat="43.49326" lon="6.9366">
        <ele>174.39999389648</ele>
        <time>2011-12-09T10:23:04.000Z</time>
      </trkpt>
      <trkpt lat="43.49325" lon="6.93664">
        <ele>174.19999694824</ele>
        <time>2011-12-09T10:23:05.000Z</time>
      </trkpt>
      <trkpt lat="43.49323" lon="6.93671">
        <ele>174</ele>
        <time>2011-12-09T10:23:07.000Z</time>
      </trkpt>
      <trkpt lat="43.49321" lon="6.9369">
        <ele>173.39999389648</ele>
        <time>2011-12-09T10:23:12.000Z</time>
      </trkpt>
      <trkpt lat="43.49314" lon="6.9372">
        <ele>172.39999389648</ele>
        <time>2011-12-09T10:23:20.000Z</time>
      </trkpt>
      <trkpt lat="43.4931" lon="6.93745">
        <ele>172.19999694824</ele>
        <time>2011-12-09T10:23:27.000Z</time>
      </trkpt>
      <trkpt lat="43.49312" lon="6.93775">
        <ele>173</ele>
        <time>2011-12-09T10:23:34.000Z</time>
      </trkpt>
      <trkpt lat="43.49308" lon="6.93813">
        <ele>173.19999694824</ele>
        <time>2011-12-09T10:23:42.000Z</time>
      </trkpt>
      <trkpt lat="43.49304" lon="6.93858">
        <ele>173.60000610352</ele>
        <time>2011-12-09T10:23:51.000Z</time>
      </trkpt>
      <trkpt lat="43.49309" lon="6.93882">
        <ele>174.39999389648</ele>
        <time>2011-12-09T10:23:56.000Z</time>
      </trkpt>
      <trkpt lat="43.49318" lon="6.93923">
        <ele>175.39999389648</ele>
        <time>2011-12-09T10:24:03.000Z</time>
      </trkpt>
      <trkpt lat="43.49325" lon="6.93963">
        <ele>175.60000610352</ele>
        <time>2011-12-09T10:24:08.000Z</time>
      </trkpt>
      <trkpt lat="43.49336" lon="6.94026">
        <ele>173.19999694824</ele>
        <time>2011-12-09T10:24:14.000Z</time>
      </trkpt>
      <trkpt lat="43.49339" lon="6.94081">
        <ele>170.60000610352</ele>
        <time>2011-12-09T10:24:19.000Z</time>
      </trkpt>
      <trkpt lat="43.49345" lon="6.94149">
        <ele>166.80000305176</ele>
        <time>2011-12-09T10:24:25.000Z</time>
      </trkpt>
      <trkpt lat="43.4935" lon="6.94212">
        <ele>161</ele>
        <time>2011-12-09T10:24:31.000Z</time>
      </trkpt>
      <trkpt lat="43.49351" lon="6.9424">
        <ele>158.39999389648</ele>
        <time>2011-12-09T10:24:34.000Z</time>
      </trkpt>
      <trkpt lat="43.49354" lon="6.94246">
        <ele>157.80000305176</ele>
        <time>2011-12-09T10:24:35.000Z</time>
      </trkpt>
      <trkpt lat="43.4937" lon="6.94256">
        <ele>156</ele>
        <time>2011-12-09T10:24:38.000Z</time>
      </trkpt>
      <trkpt lat="43.49391" lon="6.94253">
        <ele>156.19999694824</ele>
        <time>2011-12-09T10:24:41.000Z</time>
      </trkpt>
      <trkpt lat="43.49399" lon="6.94253">
        <ele>156</ele>
        <time>2011-12-09T10:24:42.000Z</time>
      </trkpt>
      <trkpt lat="43.49432" lon="6.94252">
        <ele>155.80000305176</ele>
        <time>2011-12-09T10:24:47.000Z</time>
      </trkpt>
      <trkpt lat="43.49456" lon="6.9425">
        <ele>156.39999389648</ele>
        <time>2011-12-09T10:24:52.000Z</time>
      </trkpt>
      <trkpt lat="43.49496" lon="6.94248">
        <ele>156.80000305176</ele>
        <time>2011-12-09T10:25:01.000Z</time>
      </trkpt>
      <trkpt lat="43.49517" lon="6.94245">
        <ele>157.19999694824</ele>
        <time>2011-12-09T10:25:06.000Z</time>
      </trkpt>
      <trkpt lat="43.49522" lon="6.94244">
        <ele>157.19999694824</ele>
        <time>2011-12-09T10:25:07.000Z</time>
      </trkpt>
      <trkpt lat="43.49541" lon="6.94241">
        <ele>157.80000305176</ele>
        <time>2011-12-09T10:25:11.000Z</time>
      </trkpt>
      <trkpt lat="43.49548" lon="6.94244">
        <ele>158.39999389648</ele>
        <time>2011-12-09T10:25:13.000Z</time>
      </trkpt>
      <trkpt lat="43.49556" lon="6.94256">
        <ele>159.19999694824</ele>
        <time>2011-12-09T10:25:17.000Z</time>
      </trkpt>
      <trkpt lat="43.49559" lon="6.9426">
        <ele>159</ele>
        <time>2011-12-09T10:25:21.000Z</time>
      </trkpt>
      <trkpt lat="43.49559" lon="6.9426">
        <ele>159</ele>
        <time>2011-12-09T10:25:24.000Z</time>
      </trkpt>
      <trkpt lat="43.49557" lon="6.94261">
        <ele>158.80000305176</ele>
        <time>2011-12-09T10:28:01.000Z</time>
      </trkpt>
      <trkpt lat="43.49563" lon="6.9426">
        <ele>159.19999694824</ele>
        <time>2011-12-09T10:28:08.000Z</time>
      </trkpt>
      <trkpt lat="43.49572" lon="6.9425">
        <ele>160.39999389648</ele>
        <time>2011-12-09T10:28:14.000Z</time>
      </trkpt>
      <trkpt lat="43.49571" lon="6.94249">
        <ele>160.39999389648</ele>
        <time>2011-12-09T10:28:15.000Z</time>
      </trkpt>
      <trkpt lat="43.4957" lon="6.94253">
        <ele>160.19999694824</ele>
        <time>2011-12-09T10:28:18.000Z</time>
      </trkpt>
      <trkpt lat="43.49562" lon="6.9426">
        <ele>159.19999694824</ele>
        <time>2011-12-09T10:28:22.000Z</time>
      </trkpt>
      <trkpt lat="43.49559" lon="6.94262">
        <ele>158.80000305176</ele>
        <time>2011-12-09T10:28:24.000Z</time>
      </trkpt>
      <trkpt lat="43.4956" lon="6.94267">
        <ele>158.39999389648</ele>
        <time>2011-12-09T10:28:26.000Z</time>
      </trkpt>
      <trkpt lat="43.49566" lon="6.94264">
        <ele>159</ele>
        <time>2011-12-09T10:28:30.000Z</time>
      </trkpt>
      <trkpt lat="43.49569" lon="6.9426">
        <ele>159.60000610352</ele>
        <time>2011-12-09T10:28:32.000Z</time>
      </trkpt>
      <trkpt lat="43.49574" lon="6.94249">
        <ele>160.39999389648</ele>
        <time>2011-12-09T10:28:36.000Z</time>
      </trkpt>
      <trkpt lat="43.49587" lon="6.94241">
        <ele>160.39999389648</ele>
        <time>2011-12-09T10:28:42.000Z</time>
      </trkpt>
      <trkpt lat="43.49605" lon="6.94235">
        <ele>163</ele>
        <time>2011-12-09T10:28:50.000Z</time>
      </trkpt>
      <trkpt lat="43.49619" lon="6.94228">
        <ele>164.80000305176</ele>
        <time>2011-12-09T10:28:57.000Z</time>
      </trkpt>
      <trkpt lat="43.49636" lon="6.94219">
        <ele>167</ele>
        <time>2011-12-09T10:29:05.000Z</time>
      </trkpt>
      <trkpt lat="43.49654" lon="6.94207">
        <ele>169.39999389648</ele>
        <time>2011-12-09T10:29:14.000Z</time>
      </trkpt>
      <trkpt lat="43.49667" lon="6.94196">
        <ele>170.80000305176</ele>
        <time>2011-12-09T10:29:21.000Z</time>
      </trkpt>
      <trkpt lat="43.49677" lon="6.94185">
        <ele>171.60000610352</ele>
        <time>2011-12-09T10:29:29.000Z</time>
      </trkpt>
      <trkpt lat="43.49686" lon="6.94174">
        <ele>171.80000305176</ele>
        <time>2011-12-09T10:29:37.000Z</time>
      </trkpt>
      <trkpt lat="43.49697" lon="6.94163">
        <ele>172</ele>
        <time>2011-12-09T10:29:45.000Z</time>
      </trkpt>
      <trkpt lat="43.49711" lon="6.94159">
        <ele>173.39999389648</ele>
        <time>2011-12-09T10:29:52.000Z</time>
      </trkpt>
      <trkpt lat="43.49729" lon="6.94161">
        <ele>176.39999389648</ele>
        <time>2011-12-09T10:30:01.000Z</time>
      </trkpt>
      <trkpt lat="43.49742" lon="6.94162">
        <ele>178.60000610352</ele>
        <time>2011-12-09T10:30:07.000Z</time>
      </trkpt>
      <trkpt lat="43.49758" lon="6.94163">
        <ele>181</ele>
        <time>2011-12-09T10:30:15.000Z</time>
      </trkpt>
      <trkpt lat="43.49777" lon="6.94162">
        <ele>182.60000610352</ele>
        <time>2011-12-09T10:30:22.000Z</time>
      </trkpt>
      <trkpt lat="43.49797" lon="6.94155">
        <ele>182.80000305176</ele>
        <time>2011-12-09T10:30:30.000Z</time>
      </trkpt>
      <trkpt lat="43.49817" lon="6.94143">
        <ele>181.60000610352</ele>
        <time>2011-12-09T10:30:38.000Z</time>
      </trkpt>
      <trkpt lat="43.49836" lon="6.94136">
        <ele>181.60000610352</ele>
        <time>2011-12-09T10:30:46.000Z</time>
      </trkpt>
      <trkpt lat="43.49838" lon="6.94137">
        <ele>181.80000305176</ele>
        <time>2011-12-09T10:30:47.000Z</time>
      </trkpt>
      <trkpt lat="43.49841" lon="6.94143">
        <ele>183.19999694824</ele>
        <time>2011-12-09T10:30:49.000Z</time>
      </trkpt>
      <trkpt lat="43.49837" lon="6.94149">
        <ele>185</ele>
        <time>2011-12-09T10:30:52.000Z</time>
      </trkpt>
      <trkpt lat="43.49826" lon="6.9416">
        <ele>187.39999389648</ele>
        <time>2011-12-09T10:30:58.000Z</time>
      </trkpt>
      <trkpt lat="43.49824" lon="6.94161">
        <ele>187.60000610352</ele>
        <time>2011-12-09T10:30:59.000Z</time>
      </trkpt>
      <trkpt lat="43.49813" lon="6.94175">
        <ele>189.19999694824</ele>
        <time>2011-12-09T10:31:06.000Z</time>
      </trkpt>
      <trkpt lat="43.49799" lon="6.94193">
        <ele>190.39999389648</ele>
        <time>2011-12-09T10:31:15.000Z</time>
      </trkpt>
      <trkpt lat="43.49784" lon="6.94211">
        <ele>191.60000610352</ele>
        <time>2011-12-09T10:31:24.000Z</time>
      </trkpt>
      <trkpt lat="43.49772" lon="6.94228">
        <ele>193</ele>
        <time>2011-12-09T10:31:32.000Z</time>
      </trkpt>
      <trkpt lat="43.49764" lon="6.94249">
        <ele>195.39999389648</ele>
        <time>2011-12-09T10:31:40.000Z</time>
      </trkpt>
      <trkpt lat="43.49761" lon="6.94271">
        <ele>194.80000305176</ele>
        <time>2011-12-09T10:31:47.000Z</time>
      </trkpt>
      <trkpt lat="43.49762" lon="6.94298">
        <ele>194.19999694824</ele>
        <time>2011-12-09T10:31:53.000Z</time>
      </trkpt>
      <trkpt lat="43.49773" lon="6.94321">
        <ele>196.60000610352</ele>
        <time>2011-12-09T10:31:58.000Z</time>
      </trkpt>
      <trkpt lat="43.49785" lon="6.94346">
        <ele>199.19999694824</ele>
        <time>2011-12-09T10:32:04.000Z</time>
      </trkpt>
      <trkpt lat="43.49791" lon="6.94371">
        <ele>200</ele>
        <time>2011-12-09T10:32:10.000Z</time>
      </trkpt>
      <trkpt lat="43.49793" lon="6.94405">
        <ele>199.60000610352</ele>
        <time>2011-12-09T10:32:18.000Z</time>
      </trkpt>
      <trkpt lat="43.49798" lon="6.94447">
        <ele>199.19999694824</ele>
        <time>2011-12-09T10:32:28.000Z</time>
      </trkpt>
      <trkpt lat="43.49808" lon="6.94486">
        <ele>201</ele>
        <time>2011-12-09T10:32:37.000Z</time>
      </trkpt>
      <trkpt lat="43.49821" lon="6.94526">
        <ele>201.60000610352</ele>
        <time>2011-12-09T10:32:46.000Z</time>
      </trkpt>
      <trkpt lat="43.49836" lon="6.94555">
        <ele>202</ele>
        <time>2011-12-09T10:32:53.000Z</time>
      </trkpt>
      <trkpt lat="43.4986" lon="6.94601">
        <ele>203.39999389648</ele>
        <time>2011-12-09T10:33:04.000Z</time>
      </trkpt>
      <trkpt lat="43.49874" lon="6.94626">
        <ele>203.39999389648</ele>
        <time>2011-12-09T10:33:10.000Z</time>
      </trkpt>
      <trkpt lat="43.499" lon="6.94664">
        <ele>205.60000610352</ele>
        <time>2011-12-09T10:33:20.000Z</time>
      </trkpt>
      <trkpt lat="43.49919" lon="6.94691">
        <ele>206.60000610352</ele>
        <time>2011-12-09T10:33:27.000Z</time>
      </trkpt>
      <trkpt lat="43.49938" lon="6.94711">
        <ele>205</ele>
        <time>2011-12-09T10:33:33.000Z</time>
      </trkpt>
      <trkpt lat="43.49968" lon="6.94737">
        <ele>205.19999694824</ele>
        <time>2011-12-09T10:33:42.000Z</time>
      </trkpt>
      <trkpt lat="43.49996" lon="6.94757">
        <ele>207.19999694824</ele>
        <time>2011-12-09T10:33:50.000Z</time>
      </trkpt>
      <trkpt lat="43.50027" lon="6.94775">
        <ele>203</ele>
        <time>2011-12-09T10:33:59.000Z</time>
      </trkpt>
      <trkpt lat="43.50056" lon="6.9479">
        <ele>201.60000610352</ele>
        <time>2011-12-09T10:34:08.000Z</time>
      </trkpt>
      <trkpt lat="43.50067" lon="6.94788">
        <ele>202</ele>
        <time>2011-12-09T10:34:14.000Z</time>
      </trkpt>
      <trkpt lat="43.50066" lon="6.94788">
        <ele>202</ele>
        <time>2011-12-09T10:34:18.000Z</time>
      </trkpt>
      <trkpt lat="43.50063" lon="6.94789">
        <ele>201.80000305176</ele>
        <time>2011-12-09T10:34:21.000Z</time>
      </trkpt>
      <trkpt lat="43.50061" lon="6.94787">
        <ele>201.80000305176</ele>
        <time>2011-12-09T10:34:24.000Z</time>
      </trkpt>
      <trkpt lat="43.50061" lon="6.94783">
        <ele>202</ele>
        <time>2011-12-09T10:34:30.000Z</time>
      </trkpt>
      <trkpt lat="43.50059" lon="6.94775">
        <ele>202.39999389648</ele>
        <time>2011-12-09T10:34:38.000Z</time>
      </trkpt>
      <trkpt lat="43.50054" lon="6.94767">
        <ele>203</ele>
        <time>2011-12-09T10:34:46.000Z</time>
      </trkpt>
      <trkpt lat="43.50051" lon="6.9476">
        <ele>203.80000305176</ele>
        <time>2011-12-09T10:34:55.000Z</time>
      </trkpt>
      <trkpt lat="43.50049" lon="6.94753">
        <ele>204.39999389648</ele>
        <time>2011-12-09T10:35:02.000Z</time>
      </trkpt>
      <trkpt lat="43.50048" lon="6.94748">
        <ele>205.19999694824</ele>
        <time>2011-12-09T10:35:08.000Z</time>
      </trkpt>
      <trkpt lat="43.50049" lon="6.94745">
        <ele>205.39999389648</ele>
        <time>2011-12-09T10:35:14.000Z</time>
      </trkpt>
      <trkpt lat="43.50046" lon="6.94739">
        <ele>206.60000610352</ele>
        <time>2011-12-09T10:35:23.000Z</time>
      </trkpt>
      <trkpt lat="43.50046" lon="6.94736">
        <ele>207</ele>
        <time>2011-12-09T10:35:28.000Z</time>
      </trkpt>
      <trkpt lat="43.50043" lon="6.94733">
        <ele>208</ele>
        <time>2011-12-09T10:35:35.000Z</time>
      </trkpt>
      <trkpt lat="43.5004" lon="6.9473">
        <ele>208.80000305176</ele>
        <time>2011-12-09T10:35:41.000Z</time>
      </trkpt>
      <trkpt lat="43.50039" lon="6.94726">
        <ele>209.60000610352</ele>
        <time>2011-12-09T10:35:50.000Z</time>
      </trkpt>
      <trkpt lat="43.50035" lon="6.94724">
        <ele>210.39999389648</ele>
        <time>2011-12-09T10:35:56.000Z</time>
      </trkpt>
      <trkpt lat="43.5003" lon="6.94721">
        <ele>212</ele>
        <time>2011-12-09T10:36:04.000Z</time>
      </trkpt>
      <trkpt lat="43.50029" lon="6.94718">
        <ele>212.60000610352</ele>
        <time>2011-12-09T10:36:13.000Z</time>
      </trkpt>
      <trkpt lat="43.50029" lon="6.94714">
        <ele>213.39999389648</ele>
        <time>2011-12-09T10:36:20.000Z</time>
      </trkpt>
      <trkpt lat="43.50028" lon="6.94709">
        <ele>214.19999694824</ele>
        <time>2011-12-09T10:36:25.000Z</time>
      </trkpt>
      <trkpt lat="43.50029" lon="6.94705">
        <ele>215</ele>
        <time>2011-12-09T10:36:31.000Z</time>
      </trkpt>
      <trkpt lat="43.50028" lon="6.94701">
        <ele>215.80000305176</ele>
        <time>2011-12-09T10:36:37.000Z</time>
      </trkpt>
      <trkpt lat="43.50027" lon="6.94698">
        <ele>216.80000305176</ele>
        <time>2011-12-09T10:36:42.000Z</time>
      </trkpt>
      <trkpt lat="43.50023" lon="6.94694">
        <ele>218.19999694824</ele>
        <time>2011-12-09T10:36:49.000Z</time>
      </trkpt>
      <trkpt lat="43.5002" lon="6.94689">
        <ele>220</ele>
        <time>2011-12-09T10:36:55.000Z</time>
      </trkpt>
      <trkpt lat="43.50017" lon="6.94685">
        <ele>221.19999694824</ele>
        <time>2011-12-09T10:37:01.000Z</time>
      </trkpt>
      <trkpt lat="43.50015" lon="6.94677">
        <ele>223.39999389648</ele>
        <time>2011-12-09T10:37:09.000Z</time>
      </trkpt>
      <trkpt lat="43.50013" lon="6.94669">
        <ele>225.80000305176</ele>
        <time>2011-12-09T10:37:19.000Z</time>
      </trkpt>
      <trkpt lat="43.50011" lon="6.94663">
        <ele>227.19999694824</ele>
        <time>2011-12-09T10:37:26.000Z</time>
      </trkpt>
      <trkpt lat="43.5001" lon="6.94657">
        <ele>228.39999389648</ele>
        <time>2011-12-09T10:37:34.000Z</time>
      </trkpt>
      <trkpt lat="43.50007" lon="6.9465">
        <ele>230.39999389648</ele>
        <time>2011-12-09T10:37:40.000Z</time>
      </trkpt>
      <trkpt lat="43.50003" lon="6.94644">
        <ele>232.39999389648</ele>
        <time>2011-12-09T10:37:48.000Z</time>
      </trkpt>
      <trkpt lat="43.49998" lon="6.94641">
        <ele>233.80000305176</ele>
        <time>2011-12-09T10:37:55.000Z</time>
      </trkpt>
      <trkpt lat="43.49996" lon="6.94636">
        <ele>234.19999694824</ele>
        <time>2011-12-09T10:38:02.000Z</time>
      </trkpt>
      <trkpt lat="43.49995" lon="6.94627">
        <ele>235.39999389648</ele>
        <time>2011-12-09T10:38:09.000Z</time>
      </trkpt>
      <trkpt lat="43.49994" lon="6.94625">
        <ele>235.60000610352</ele>
        <time>2011-12-09T10:38:11.000Z</time>
      </trkpt>
      <trkpt lat="43.49992" lon="6.94623">
        <ele>235.60000610352</ele>
        <time>2011-12-09T10:38:15.000Z</time>
      </trkpt>
      <trkpt lat="43.49992" lon="6.94621">
        <ele>235.80000305176</ele>
        <time>2011-12-09T10:38:16.000Z</time>
      </trkpt>
      <trkpt lat="43.49992" lon="6.94614">
        <ele>237.19999694824</ele>
        <time>2011-12-09T10:38:22.000Z</time>
      </trkpt>
      <trkpt lat="43.49991" lon="6.94612">
        <ele>237.39999389648</ele>
        <time>2011-12-09T10:38:24.000Z</time>
      </trkpt>
      <trkpt lat="43.4999" lon="6.94611">
        <ele>237.60000610352</ele>
        <time>2011-12-09T10:38:25.000Z</time>
      </trkpt>
      <trkpt lat="43.49989" lon="6.94607">
        <ele>238</ele>
        <time>2011-12-09T10:38:29.000Z</time>
      </trkpt>
      <trkpt lat="43.49987" lon="6.946">
        <ele>239</ele>
        <time>2011-12-09T10:38:36.000Z</time>
      </trkpt>
      <trkpt lat="43.49983" lon="6.94594">
        <ele>239.60000610352</ele>
        <time>2011-12-09T10:38:40.000Z</time>
      </trkpt>
      <trkpt lat="43.49982" lon="6.94593">
        <ele>239.80000305176</ele>
        <time>2011-12-09T10:38:42.000Z</time>
      </trkpt>
      <trkpt lat="43.49981" lon="6.94592">
        <ele>239.80000305176</ele>
        <time>2011-12-09T10:38:44.000Z</time>
      </trkpt>
      <trkpt lat="43.49978" lon="6.94593">
        <ele>239.39999389648</ele>
        <time>2011-12-09T10:38:48.000Z</time>
      </trkpt>
      <trkpt lat="43.49973" lon="6.94595">
        <ele>238.60000610352</ele>
        <time>2011-12-09T10:38:55.000Z</time>
      </trkpt>
      <trkpt lat="43.49969" lon="6.94587">
        <ele>239.60000610352</ele>
        <time>2011-12-09T10:39:08.000Z</time>
      </trkpt>
      <trkpt lat="43.49969" lon="6.94583">
        <ele>240.39999389648</ele>
        <time>2011-12-09T10:39:13.000Z</time>
      </trkpt>
      <trkpt lat="43.49968" lon="6.94582">
        <ele>240.19999694824</ele>
        <time>2011-12-09T10:39:14.000Z</time>
      </trkpt>
      <trkpt lat="43.49965" lon="6.94575">
        <ele>239.80000305176</ele>
        <time>2011-12-09T10:39:18.000Z</time>
      </trkpt>
      <trkpt lat="43.49957" lon="6.94565">
        <ele>239.39999389648</ele>
        <time>2011-12-09T10:39:23.000Z</time>
      </trkpt>
      <trkpt lat="43.49955" lon="6.94564">
        <ele>239.19999694824</ele>
        <time>2011-12-09T10:39:24.000Z</time>
      </trkpt>
      <trkpt lat="43.49945" lon="6.94554">
        <ele>239.19999694824</ele>
        <time>2011-12-09T10:39:29.000Z</time>
      </trkpt>
      <trkpt lat="43.49945" lon="6.94551">
        <ele>239.19999694824</ele>
        <time>2011-12-09T10:39:30.000Z</time>
      </trkpt>
      <trkpt lat="43.49948" lon="6.94545">
        <ele>239.39999389648</ele>
        <time>2011-12-09T10:39:32.000Z</time>
      </trkpt>
      <trkpt lat="43.49947" lon="6.94528">
        <ele>239.80000305176</ele>
        <time>2011-12-09T10:39:36.000Z</time>
      </trkpt>
      <trkpt lat="43.49938" lon="6.94524">
        <ele>240.39999389648</ele>
        <time>2011-12-09T10:39:39.000Z</time>
      </trkpt>
      <trkpt lat="43.49926" lon="6.94518">
        <ele>241.60000610352</ele>
        <time>2011-12-09T10:39:43.000Z</time>
      </trkpt>
      <trkpt lat="43.49924" lon="6.94516">
        <ele>241.80000305176</ele>
        <time>2011-12-09T10:39:44.000Z</time>
      </trkpt>
      <trkpt lat="43.49919" lon="6.94512">
        <ele>242.60000610352</ele>
        <time>2011-12-09T10:39:46.000Z</time>
      </trkpt>
      <trkpt lat="43.49909" lon="6.94494">
        <ele>240.60000610352</ele>
        <time>2011-12-09T10:39:51.000Z</time>
      </trkpt>
      <trkpt lat="43.49898" lon="6.94482">
        <ele>236</ele>
        <time>2011-12-09T10:39:55.000Z</time>
      </trkpt>
      <trkpt lat="43.49893" lon="6.94464">
        <ele>233</ele>
        <time>2011-12-09T10:39:59.000Z</time>
      </trkpt>
      <trkpt lat="43.49891" lon="6.9446">
        <ele>232.19999694824</ele>
        <time>2011-12-09T10:40:00.000Z</time>
      </trkpt>
      <trkpt lat="43.49885" lon="6.94454">
        <ele>230.19999694824</ele>
        <time>2011-12-09T10:40:02.000Z</time>
      </trkpt>
      <trkpt lat="43.49884" lon="6.9445">
        <ele>229.60000610352</ele>
        <time>2011-12-09T10:40:03.000Z</time>
      </trkpt>
      <trkpt lat="43.49882" lon="6.94442">
        <ele>228.80000305176</ele>
        <time>2011-12-09T10:40:05.000Z</time>
      </trkpt>
      <trkpt lat="43.49877" lon="6.9443">
        <ele>227.19999694824</ele>
        <time>2011-12-09T10:40:09.000Z</time>
      </trkpt>
      <trkpt lat="43.4988" lon="6.94414">
        <ele>227.39999389648</ele>
        <time>2011-12-09T10:40:13.000Z</time>
      </trkpt>
      <trkpt lat="43.49882" lon="6.94404">
        <ele>226.60000610352</ele>
        <time>2011-12-09T10:40:16.000Z</time>
      </trkpt>
      <trkpt lat="43.49886" lon="6.94378">
        <ele>224.60000610352</ele>
        <time>2011-12-09T10:40:20.000Z</time>
      </trkpt>
      <trkpt lat="43.49886" lon="6.94365">
        <ele>223.19999694824</ele>
        <time>2011-12-09T10:40:23.000Z</time>
      </trkpt>
      <trkpt lat="43.49881" lon="6.94353">
        <ele>221.19999694824</ele>
        <time>2011-12-09T10:40:26.000Z</time>
      </trkpt>
      <trkpt lat="43.49881" lon="6.94343">
        <ele>220</ele>
        <time>2011-12-09T10:40:28.000Z</time>
      </trkpt>
      <trkpt lat="43.49881" lon="6.94334">
        <ele>219.19999694824</ele>
        <time>2011-12-09T10:40:30.000Z</time>
      </trkpt>
      <trkpt lat="43.49879" lon="6.94331">
        <ele>218.39999389648</ele>
        <time>2011-12-09T10:40:31.000Z</time>
      </trkpt>
      <trkpt lat="43.4988" lon="6.94323">
        <ele>217.19999694824</ele>
        <time>2011-12-09T10:40:33.000Z</time>
      </trkpt>
      <trkpt lat="43.4988" lon="6.94319">
        <ele>216.39999389648</ele>
        <time>2011-12-09T10:40:35.000Z</time>
      </trkpt>
      <trkpt lat="43.49878" lon="6.94316">
        <ele>215.80000305176</ele>
        <time>2011-12-09T10:40:37.000Z</time>
      </trkpt>
      <trkpt lat="43.49877" lon="6.94313">
        <ele>215</ele>
        <time>2011-12-09T10:40:39.000Z</time>
      </trkpt>
      <trkpt lat="43.49877" lon="6.94312">
        <ele>215</ele>
        <time>2011-12-09T10:40:41.000Z</time>
      </trkpt>
      <trkpt lat="43.49879" lon="6.94313">
        <ele>215.39999389648</ele>
        <time>2011-12-09T10:40:47.000Z</time>
      </trkpt>
      <trkpt lat="43.49884" lon="6.9431">
        <ele>215.19999694824</ele>
        <time>2011-12-09T10:40:54.000Z</time>
      </trkpt>
      <trkpt lat="43.49888" lon="6.94307">
        <ele>215</ele>
        <time>2011-12-09T10:41:00.000Z</time>
      </trkpt>
      <trkpt lat="43.4989" lon="6.94305">
        <ele>214.60000610352</ele>
        <time>2011-12-09T10:41:11.000Z</time>
      </trkpt>
      <trkpt lat="43.4989" lon="6.94304">
        <ele>214.60000610352</ele>
        <time>2011-12-09T10:41:42.000Z</time>
      </trkpt>
      <trkpt lat="43.49889" lon="6.94307">
        <ele>215.19999694824</ele>
        <time>2011-12-09T10:41:45.000Z</time>
      </trkpt>
      <trkpt lat="43.49889" lon="6.94308">
        <ele>215.19999694824</ele>
        <time>2011-12-09T10:41:46.000Z</time>
      </trkpt>
      <trkpt lat="43.49883" lon="6.94314">
        <ele>215.80000305176</ele>
        <time>2011-12-09T10:41:52.000Z</time>
      </trkpt>
      <trkpt lat="43.49882" lon="6.94315">
        <ele>215.80000305176</ele>
        <time>2011-12-09T10:41:54.000Z</time>
      </trkpt>
      <trkpt lat="43.49881" lon="6.94315">
        <ele>215.80000305176</ele>
        <time>2011-12-09T10:41:58.000Z</time>
      </trkpt>
      <trkpt lat="43.49876" lon="6.94311">
        <ele>214.80000305176</ele>
        <time>2011-12-09T10:42:10.000Z</time>
      </trkpt>
      <trkpt lat="43.49875" lon="6.94311">
        <ele>214.60000610352</ele>
        <time>2011-12-09T10:42:11.000Z</time>
      </trkpt>
      <trkpt lat="43.49866" lon="6.94313">
        <ele>214.19999694824</ele>
        <time>2011-12-09T10:42:15.000Z</time>
      </trkpt>
      <trkpt lat="43.49853" lon="6.94315">
        <ele>213.39999389648</ele>
        <time>2011-12-09T10:42:19.000Z</time>
      </trkpt>
      <trkpt lat="43.49849" lon="6.94312">
        <ele>212.60000610352</ele>
        <time>2011-12-09T10:42:21.000Z</time>
      </trkpt>
      <trkpt lat="43.49845" lon="6.94308">
        <ele>211.60000610352</ele>
        <time>2011-12-09T10:42:23.000Z</time>
      </trkpt>
      <trkpt lat="43.49837" lon="6.94301">
        <ele>210</ele>
        <time>2011-12-09T10:42:28.000Z</time>
      </trkpt>
      <trkpt lat="43.49841" lon="6.9429">
        <ele>208.80000305176</ele>
        <time>2011-12-09T10:42:32.000Z</time>
      </trkpt>
      <trkpt lat="43.4984" lon="6.94287">
        <ele>208.19999694824</ele>
        <time>2011-12-09T10:42:35.000Z</time>
      </trkpt>
      <trkpt lat="43.4984" lon="6.94287">
        <ele>208.19999694824</ele>
        <time>2011-12-09T10:42:36.000Z</time>
      </trkpt>
      <trkpt lat="43.49837" lon="6.94282">
        <ele>207.39999389648</ele>
        <time>2011-12-09T10:42:43.000Z</time>
      </trkpt>
      <trkpt lat="43.49832" lon="6.94282">
        <ele>207</ele>
        <time>2011-12-09T10:42:48.000Z</time>
      </trkpt>
      <trkpt lat="43.49826" lon="6.94286">
        <ele>206.39999389648</ele>
        <time>2011-12-09T10:42:51.000Z</time>
      </trkpt>
      <trkpt lat="43.49825" lon="6.94287">
        <ele>206.19999694824</ele>
        <time>2011-12-09T10:42:52.000Z</time>
      </trkpt>
      <trkpt lat="43.49822" lon="6.94285">
        <ele>205.60000610352</ele>
        <time>2011-12-09T10:43:00.000Z</time>
      </trkpt>
      <trkpt lat="43.4982" lon="6.94284">
        <ele>205</ele>
        <time>2011-12-09T10:43:03.000Z</time>
      </trkpt>
      <trkpt lat="43.49819" lon="6.94285">
        <ele>205</ele>
        <time>2011-12-09T10:43:05.000Z</time>
      </trkpt>
      <trkpt lat="43.49812" lon="6.94291">
        <ele>204.19999694824</ele>
        <time>2011-12-09T10:43:09.000Z</time>
      </trkpt>
      <trkpt lat="43.4981" lon="6.9429">
        <ele>203.60000610352</ele>
        <time>2011-12-09T10:43:10.000Z</time>
      </trkpt>
      <trkpt lat="43.49804" lon="6.94285">
        <ele>202.19999694824</ele>
        <time>2011-12-09T10:43:12.000Z</time>
      </trkpt>
      <trkpt lat="43.49795" lon="6.94287">
        <ele>200.60000610352</ele>
        <time>2011-12-09T10:43:15.000Z</time>
      </trkpt>
      <trkpt lat="43.49783" lon="6.94284">
        <ele>198.19999694824</ele>
        <time>2011-12-09T10:43:19.000Z</time>
      </trkpt>
      <trkpt lat="43.49771" lon="6.94279">
        <ele>196.19999694824</ele>
        <time>2011-12-09T10:43:23.000Z</time>
      </trkpt>
      <trkpt lat="43.4976" lon="6.94273">
        <ele>194.39999389648</ele>
        <time>2011-12-09T10:43:27.000Z</time>
      </trkpt>
      <trkpt lat="43.49749" lon="6.94265">
        <ele>193.19999694824</ele>
        <time>2011-12-09T10:43:31.000Z</time>
      </trkpt>
      <trkpt lat="43.49741" lon="6.94274">
        <ele>190.60000610352</ele>
        <time>2011-12-09T10:43:35.000Z</time>
      </trkpt>
      <trkpt lat="43.4974" lon="6.94284">
        <ele>189.80000305176</ele>
        <time>2011-12-09T10:43:38.000Z</time>
      </trkpt>
      <trkpt lat="43.49745" lon="6.94297">
        <ele>190.19999694824</ele>
        <time>2011-12-09T10:43:41.000Z</time>
      </trkpt>
      <trkpt lat="43.49744" lon="6.94301">
        <ele>190</ele>
        <time>2011-12-09T10:43:42.000Z</time>
      </trkpt>
      <trkpt lat="43.49744" lon="6.94301">
        <ele>190</ele>
        <time>2011-12-09T10:43:45.000Z</time>
      </trkpt>
      <trkpt lat="43.49737" lon="6.94297">
        <ele>188.19999694824</ele>
        <time>2011-12-09T10:43:50.000Z</time>
      </trkpt>
      <trkpt lat="43.49725" lon="6.94286">
        <ele>185.80000305176</ele>
        <time>2011-12-09T10:43:55.000Z</time>
      </trkpt>
      <trkpt lat="43.49716" lon="6.9428">
        <ele>184.19999694824</ele>
        <time>2011-12-09T10:43:59.000Z</time>
      </trkpt>
      <trkpt lat="43.49704" lon="6.94273">
        <ele>181.80000305176</ele>
        <time>2011-12-09T10:44:03.000Z</time>
      </trkpt>
      <trkpt lat="43.497" lon="6.94264">
        <ele>181.60000610352</ele>
        <time>2011-12-09T10:44:06.000Z</time>
      </trkpt>
      <trkpt lat="43.49691" lon="6.94262">
        <ele>180</ele>
        <time>2011-12-09T10:44:09.000Z</time>
      </trkpt>
      <trkpt lat="43.49682" lon="6.94249">
        <ele>179.19999694824</ele>
        <time>2011-12-09T10:44:13.000Z</time>
      </trkpt>
      <trkpt lat="43.49677" lon="6.94244">
        <ele>177.60000610352</ele>
        <time>2011-12-09T10:44:15.000Z</time>
      </trkpt>
      <trkpt lat="43.49669" lon="6.94237">
        <ele>175.19999694824</ele>
        <time>2011-12-09T10:44:18.000Z</time>
      </trkpt>
      <trkpt lat="43.49654" lon="6.94237">
        <ele>172.39999389648</ele>
        <time>2011-12-09T10:44:22.000Z</time>
      </trkpt>
      <trkpt lat="43.49633" lon="6.94243">
        <ele>169.19999694824</ele>
        <time>2011-12-09T10:44:28.000Z</time>
      </trkpt>
      <trkpt lat="43.49616" lon="6.94254">
        <ele>166.39999389648</ele>
        <time>2011-12-09T10:44:33.000Z</time>
      </trkpt>
      <trkpt lat="43.49605" lon="6.94266">
        <ele>163.39999389648</ele>
        <time>2011-12-09T10:44:37.000Z</time>
      </trkpt>
      <trkpt lat="43.49595" lon="6.94278">
        <ele>160.80000305176</ele>
        <time>2011-12-09T10:44:42.000Z</time>
      </trkpt>
      <trkpt lat="43.49585" lon="6.94282">
        <ele>159</ele>
        <time>2011-12-09T10:44:47.000Z</time>
      </trkpt>
      <trkpt lat="43.49584" lon="6.94283">
        <ele>158.60000610352</ele>
        <time>2011-12-09T10:44:48.000Z</time>
      </trkpt>
      <trkpt lat="43.49577" lon="6.94282">
        <ele>158.39999389648</ele>
        <time>2011-12-09T10:44:52.000Z</time>
      </trkpt>
      <trkpt lat="43.49575" lon="6.9428">
        <ele>158.39999389648</ele>
        <time>2011-12-09T10:44:53.000Z</time>
      </trkpt>
      <trkpt lat="43.49573" lon="6.94281">
        <ele>158.19999694824</ele>
        <time>2011-12-09T10:44:54.000Z</time>
      </trkpt>
      <trkpt lat="43.49571" lon="6.94284">
        <ele>157.80000305176</ele>
        <time>2011-12-09T10:44:56.000Z</time>
      </trkpt>
      <trkpt lat="43.49572" lon="6.94286">
        <ele>157.80000305176</ele>
        <time>2011-12-09T10:45:01.000Z</time>
      </trkpt>
      <trkpt lat="43.49579" lon="6.94302">
        <ele>157</ele>
        <time>2011-12-09T10:45:06.000Z</time>
      </trkpt>
      <trkpt lat="43.49591" lon="6.94321">
        <ele>156.80000305176</ele>
        <time>2011-12-09T10:45:12.000Z</time>
      </trkpt>
      <trkpt lat="43.49608" lon="6.9433">
        <ele>158</ele>
        <time>2011-12-09T10:45:17.000Z</time>
      </trkpt>
      <trkpt lat="43.49621" lon="6.94333">
        <ele>159.19999694824</ele>
        <time>2011-12-09T10:45:22.000Z</time>
      </trkpt>
      <trkpt lat="43.49623" lon="6.94333">
        <ele>159.19999694824</ele>
        <time>2011-12-09T10:45:25.000Z</time>
      </trkpt>
      <trkpt lat="43.49623" lon="6.94333">
        <ele>159.39999389648</ele>
        <time>2011-12-09T10:45:26.000Z</time>
      </trkpt>
      <trkpt lat="43.49626" lon="6.94334">
        <ele>159.39999389648</ele>
        <time>2011-12-09T10:45:38.000Z</time>
      </trkpt>
      <trkpt lat="43.49636" lon="6.94339">
        <ele>159.19999694824</ele>
        <time>2011-12-09T10:45:42.000Z</time>
      </trkpt>
      <trkpt lat="43.49656" lon="6.94347">
        <ele>159.39999389648</ele>
        <time>2011-12-09T10:45:48.000Z</time>
      </trkpt>
      <trkpt lat="43.49671" lon="6.94358">
        <ele>159.60000610352</ele>
        <time>2011-12-09T10:45:52.000Z</time>
      </trkpt>
      <trkpt lat="43.4968" lon="6.94371">
        <ele>160</ele>
        <time>2011-12-09T10:45:56.000Z</time>
      </trkpt>
      <trkpt lat="43.4969" lon="6.94378">
        <ele>162</ele>
        <time>2011-12-09T10:46:00.000Z</time>
      </trkpt>
      <trkpt lat="43.49701" lon="6.94389">
        <ele>163.60000610352</ele>
        <time>2011-12-09T10:46:06.000Z</time>
      </trkpt>
      <trkpt lat="43.49702" lon="6.94395">
        <ele>163</ele>
        <time>2011-12-09T10:46:08.000Z</time>
      </trkpt>
      <trkpt lat="43.49699" lon="6.94398">
        <ele>161.39999389648</ele>
        <time>2011-12-09T10:46:10.000Z</time>
      </trkpt>
      <trkpt lat="43.49697" lon="6.944">
        <ele>160.39999389648</ele>
        <time>2011-12-09T10:46:14.000Z</time>
      </trkpt>
      <trkpt lat="43.49693" lon="6.94412">
        <ele>156</ele>
        <time>2011-12-09T10:46:19.000Z</time>
      </trkpt>
      <trkpt lat="43.49689" lon="6.9442">
        <ele>152.80000305176</ele>
        <time>2011-12-09T10:46:22.000Z</time>
      </trkpt>
      <trkpt lat="43.49689" lon="6.94425">
        <ele>152</ele>
        <time>2011-12-09T10:46:23.000Z</time>
      </trkpt>
      <trkpt lat="43.49685" lon="6.94449">
        <ele>147.60000610352</ele>
        <time>2011-12-09T10:46:28.000Z</time>
      </trkpt>
      <trkpt lat="43.4968" lon="6.94477">
        <ele>141.39999389648</ele>
        <time>2011-12-09T10:46:33.000Z</time>
      </trkpt>
      <trkpt lat="43.49673" lon="6.94501">
        <ele>134.80000305176</ele>
        <time>2011-12-09T10:46:38.000Z</time>
      </trkpt>
      <trkpt lat="43.49669" lon="6.9452">
        <ele>130.19999694824</ele>
        <time>2011-12-09T10:46:43.000Z</time>
      </trkpt>
      <trkpt lat="43.49669" lon="6.9453">
        <ele>128.80000305176</ele>
        <time>2011-12-09T10:46:46.000Z</time>
      </trkpt>
      <trkpt lat="43.49669" lon="6.94536">
        <ele>127.80000305176</ele>
        <time>2011-12-09T10:46:48.000Z</time>
      </trkpt>
      <trkpt lat="43.49672" lon="6.94544">
        <ele>127.80000305176</ele>
        <time>2011-12-09T10:46:50.000Z</time>
      </trkpt>
      <trkpt lat="43.49674" lon="6.94551">
        <ele>127.80000305176</ele>
        <time>2011-12-09T10:46:52.000Z</time>
      </trkpt>
      <trkpt lat="43.49676" lon="6.94555">
        <ele>128.19999694824</ele>
        <time>2011-12-09T10:46:53.000Z</time>
      </trkpt>
      <trkpt lat="43.49684" lon="6.94573">
        <ele>129</ele>
        <time>2011-12-09T10:46:58.000Z</time>
      </trkpt>
      <trkpt lat="43.49697" lon="6.94588">
        <ele>131.39999389648</ele>
        <time>2011-12-09T10:47:03.000Z</time>
      </trkpt>
      <trkpt lat="43.4971" lon="6.94603">
        <ele>132.80000305176</ele>
        <time>2011-12-09T10:47:08.000Z</time>
      </trkpt>
      <trkpt lat="43.49716" lon="6.94615">
        <ele>132.39999389648</ele>
        <time>2011-12-09T10:47:11.000Z</time>
      </trkpt>
      <trkpt lat="43.49716" lon="6.94619">
        <ele>131.39999389648</ele>
        <time>2011-12-09T10:47:12.000Z</time>
      </trkpt>
      <trkpt lat="43.49717" lon="6.94641">
        <ele>126.19999694824</ele>
        <time>2011-12-09T10:47:16.000Z</time>
      </trkpt>
      <trkpt lat="43.49722" lon="6.9466">
        <ele>122.80000305176</ele>
        <time>2011-12-09T10:47:20.000Z</time>
      </trkpt>
      <trkpt lat="43.49721" lon="6.94665">
        <ele>121.40000152588</ele>
        <time>2011-12-09T10:47:22.000Z</time>
      </trkpt>
      <trkpt lat="43.49719" lon="6.94668">
        <ele>120</ele>
        <time>2011-12-09T10:47:24.000Z</time>
      </trkpt>
      <trkpt lat="43.49717" lon="6.94662">
        <ele>120.80000305176</ele>
        <time>2011-12-09T10:47:27.000Z</time>
      </trkpt>
      <trkpt lat="43.49716" lon="6.9466">
        <ele>120.80000305176</ele>
        <time>2011-12-09T10:47:28.000Z</time>
      </trkpt>
      <trkpt lat="43.49708" lon="6.94643">
        <ele>122.19999694824</ele>
        <time>2011-12-09T10:47:34.000Z</time>
      </trkpt>
      <trkpt lat="43.49703" lon="6.94621">
        <ele>125.80000305176</ele>
        <time>2011-12-09T10:47:39.000Z</time>
      </trkpt>
      <trkpt lat="43.49691" lon="6.94612">
        <ele>123.19999694824</ele>
        <time>2011-12-09T10:47:43.000Z</time>
      </trkpt>
      <trkpt lat="43.4967" lon="6.94599">
        <ele>117.40000152588</ele>
        <time>2011-12-09T10:47:50.000Z</time>
      </trkpt>
      <trkpt lat="43.49658" lon="6.94591">
        <ele>115.40000152588</ele>
        <time>2011-12-09T10:47:54.000Z</time>
      </trkpt>
      <trkpt lat="43.49656" lon="6.9459">
        <ele>115</ele>
        <time>2011-12-09T10:47:55.000Z</time>
      </trkpt>
      <trkpt lat="43.49646" lon="6.94585">
        <ele>113</ele>
        <time>2011-12-09T10:47:58.000Z</time>
      </trkpt>
      <trkpt lat="43.4964" lon="6.94582">
        <ele>111.59999847412</ele>
        <time>2011-12-09T10:48:00.000Z</time>
      </trkpt>
      <trkpt lat="43.49629" lon="6.94563">
        <ele>110.59999847412</ele>
        <time>2011-12-09T10:48:05.000Z</time>
      </trkpt>
      <trkpt lat="43.49628" lon="6.9454">
        <ele>113.59999847412</ele>
        <time>2011-12-09T10:48:09.000Z</time>
      </trkpt>
      <trkpt lat="43.49631" lon="6.94504">
        <ele>119.40000152588</ele>
        <time>2011-12-09T10:48:15.000Z</time>
      </trkpt>
      <trkpt lat="43.49632" lon="6.94498">
        <ele>120.80000305176</ele>
        <time>2011-12-09T10:48:16.000Z</time>
      </trkpt>
      <trkpt lat="43.49634" lon="6.94487">
        <ele>123.59999847412</ele>
        <time>2011-12-09T10:48:18.000Z</time>
      </trkpt>
      <trkpt lat="43.49636" lon="6.94462">
        <ele>129.39999389648</ele>
        <time>2011-12-09T10:48:22.000Z</time>
      </trkpt>
      <trkpt lat="43.49638" lon="6.94447">
        <ele>133</ele>
        <time>2011-12-09T10:48:25.000Z</time>
      </trkpt>
      <trkpt lat="43.49638" lon="6.94434">
        <ele>135.19999694824</ele>
        <time>2011-12-09T10:48:28.000Z</time>
      </trkpt>
      <trkpt lat="43.49629" lon="6.94429">
        <ele>134.60000610352</ele>
        <time>2011-12-09T10:48:32.000Z</time>
      </trkpt>
      <trkpt lat="43.49628" lon="6.94429">
        <ele>134.39999389648</ele>
        <time>2011-12-09T10:48:35.000Z</time>
      </trkpt>
      <trkpt lat="43.49627" lon="6.94425">
        <ele>135</ele>
        <time>2011-12-09T10:48:42.000Z</time>
      </trkpt>
      <trkpt lat="43.4962" lon="6.94421">
        <ele>134.60000610352</ele>
        <time>2011-12-09T10:48:49.000Z</time>
      </trkpt>
      <trkpt lat="43.49613" lon="6.94421">
        <ele>133.39999389648</ele>
        <time>2011-12-09T10:48:56.000Z</time>
      </trkpt>
      <trkpt lat="43.49606" lon="6.94422">
        <ele>131.80000305176</ele>
        <time>2011-12-09T10:49:03.000Z</time>
      </trkpt>
      <trkpt lat="43.49595" lon="6.94423">
        <ele>129.39999389648</ele>
        <time>2011-12-09T10:49:12.000Z</time>
      </trkpt>
      <trkpt lat="43.49589" lon="6.94425">
        <ele>127.59999847412</ele>
        <time>2011-12-09T10:49:19.000Z</time>
      </trkpt>
      <trkpt lat="43.49587" lon="6.94426">
        <ele>127</ele>
        <time>2011-12-09T10:49:25.000Z</time>
      </trkpt>
      <trkpt lat="43.49585" lon="6.94426">
        <ele>126.40000152588</ele>
        <time>2011-12-09T10:49:28.000Z</time>
      </trkpt>
      <trkpt lat="43.4958" lon="6.94426">
        <ele>126</ele>
        <time>2011-12-09T10:49:34.000Z</time>
      </trkpt>
      <trkpt lat="43.49574" lon="6.94427">
        <ele>125.40000152588</ele>
        <time>2011-12-09T10:49:42.000Z</time>
      </trkpt>
      <trkpt lat="43.49571" lon="6.94425">
        <ele>125.40000152588</ele>
        <time>2011-12-09T10:49:49.000Z</time>
      </trkpt>
      <trkpt lat="43.49566" lon="6.94427">
        <ele>124.59999847412</ele>
        <time>2011-12-09T10:49:56.000Z</time>
      </trkpt>
      <trkpt lat="43.49562" lon="6.94429">
        <ele>123.80000305176</ele>
        <time>2011-12-09T10:50:02.000Z</time>
      </trkpt>
      <trkpt lat="43.49558" lon="6.94428">
        <ele>123.59999847412</ele>
        <time>2011-12-09T10:50:07.000Z</time>
      </trkpt>
      <trkpt lat="43.49555" lon="6.94428">
        <ele>123.40000152588</ele>
        <time>2011-12-09T10:50:12.000Z</time>
      </trkpt>
      <trkpt lat="43.49543" lon="6.94428">
        <ele>122.40000152588</ele>
        <time>2011-12-09T10:50:17.000Z</time>
      </trkpt>
      <trkpt lat="43.49527" lon="6.94427">
        <ele>121.59999847412</ele>
        <time>2011-12-09T10:50:23.000Z</time>
      </trkpt>
      <trkpt lat="43.49524" lon="6.94426">
        <ele>121.80000305176</ele>
        <time>2011-12-09T10:50:27.000Z</time>
      </trkpt>
      <trkpt lat="43.49519" lon="6.94428">
        <ele>120.80000305176</ele>
        <time>2011-12-09T10:50:33.000Z</time>
      </trkpt>
      <trkpt lat="43.49514" lon="6.94428">
        <ele>120.19999694824</ele>
        <time>2011-12-09T10:50:39.000Z</time>
      </trkpt>
      <trkpt lat="43.49512" lon="6.94427">
        <ele>120.40000152588</ele>
        <time>2011-12-09T10:50:41.000Z</time>
      </trkpt>
      <trkpt lat="43.49509" lon="6.94428">
        <ele>120</ele>
        <time>2011-12-09T10:50:45.000Z</time>
      </trkpt>
      <trkpt lat="43.49508" lon="6.94428">
        <ele>119.80000305176</ele>
        <time>2011-12-09T10:50:47.000Z</time>
      </trkpt>
      <trkpt lat="43.49502" lon="6.94434">
        <ele>117.40000152588</ele>
        <time>2011-12-09T10:50:54.000Z</time>
      </trkpt>
      <trkpt lat="43.49501" lon="6.94433">
        <ele>117.59999847412</ele>
        <time>2011-12-09T10:50:55.000Z</time>
      </trkpt>
      <trkpt lat="43.49498" lon="6.9443">
        <ele>118</ele>
        <time>2011-12-09T10:50:58.000Z</time>
      </trkpt>
      <trkpt lat="43.49494" lon="6.94427">
        <ele>118.40000152588</ele>
        <time>2011-12-09T10:51:03.000Z</time>
      </trkpt>
      <trkpt lat="43.49492" lon="6.94429">
        <ele>117.80000305176</ele>
        <time>2011-12-09T10:51:06.000Z</time>
      </trkpt>
      <trkpt lat="43.49491" lon="6.9443">
        <ele>117.19999694824</ele>
        <time>2011-12-09T10:51:08.000Z</time>
      </trkpt>
      <trkpt lat="43.4949" lon="6.94431">
        <ele>116.59999847412</ele>
        <time>2011-12-09T10:51:09.000Z</time>
      </trkpt>
      <trkpt lat="43.49488" lon="6.94435">
        <ele>115.19999694824</ele>
        <time>2011-12-09T10:51:13.000Z</time>
      </trkpt>
      <trkpt lat="43.49488" lon="6.94438">
        <ele>114.19999694824</ele>
        <time>2011-12-09T10:51:15.000Z</time>
      </trkpt>
      <trkpt lat="43.49487" lon="6.94438">
        <ele>114</ele>
        <time>2011-12-09T10:51:18.000Z</time>
      </trkpt>
      <trkpt lat="43.49484" lon="6.94432">
        <ele>115.59999847412</ele>
        <time>2011-12-09T10:51:22.000Z</time>
      </trkpt>
      <trkpt lat="43.4948" lon="6.94412">
        <ele>121.40000152588</ele>
        <time>2011-12-09T10:51:27.000Z</time>
      </trkpt>
      <trkpt lat="43.49474" lon="6.94405">
        <ele>123</ele>
        <time>2011-12-09T10:51:30.000Z</time>
      </trkpt>
      <trkpt lat="43.49471" lon="6.94405">
        <ele>122.40000152588</ele>
        <time>2011-12-09T10:51:31.000Z</time>
      </trkpt>
      <trkpt lat="43.49455" lon="6.944">
        <ele>121.80000305176</ele>
        <time>2011-12-09T10:51:36.000Z</time>
      </trkpt>
      <trkpt lat="43.49435" lon="6.94399">
        <ele>119.19999694824</ele>
        <time>2011-12-09T10:51:41.000Z</time>
      </trkpt>
      <trkpt lat="43.49417" lon="6.94401">
        <ele>116</ele>
        <time>2011-12-09T10:51:46.000Z</time>
      </trkpt>
      <trkpt lat="43.49404" lon="6.94392">
        <ele>120</ele>
        <time>2011-12-09T10:51:50.000Z</time>
      </trkpt>
      <trkpt lat="43.49399" lon="6.94392">
        <ele>120.19999694824</ele>
        <time>2011-12-09T10:51:52.000Z</time>
      </trkpt>
      <trkpt lat="43.49397" lon="6.94396">
        <ele>119</ele>
        <time>2011-12-09T10:51:53.000Z</time>
      </trkpt>
      <trkpt lat="43.49388" lon="6.94412">
        <ele>114</ele>
        <time>2011-12-09T10:51:57.000Z</time>
      </trkpt>
      <trkpt lat="43.49382" lon="6.94423">
        <ele>110.80000305176</ele>
        <time>2011-12-09T10:52:00.000Z</time>
      </trkpt>
      <trkpt lat="43.49376" lon="6.94435">
        <ele>108</ele>
        <time>2011-12-09T10:52:03.000Z</time>
      </trkpt>
      <trkpt lat="43.49362" lon="6.94447">
        <ele>105.80000305176</ele>
        <time>2011-12-09T10:52:07.000Z</time>
      </trkpt>
      <trkpt lat="43.49337" lon="6.9446">
        <ele>104.19999694824</ele>
        <time>2011-12-09T10:52:13.000Z</time>
      </trkpt>
      <trkpt lat="43.4931" lon="6.94464">
        <ele>100.19999694824</ele>
        <time>2011-12-09T10:52:19.000Z</time>
      </trkpt>
      <trkpt lat="43.493" lon="6.94463">
        <ele>99</ele>
        <time>2011-12-09T10:52:21.000Z</time>
      </trkpt>
      <trkpt lat="43.49286" lon="6.94458">
        <ele>98</ele>
        <time>2011-12-09T10:52:24.000Z</time>
      </trkpt>
      <trkpt lat="43.49269" lon="6.94448">
        <ele>97.400001525879</ele>
        <time>2011-12-09T10:52:28.000Z</time>
      </trkpt>
      <trkpt lat="43.49262" lon="6.94439">
        <ele>98</ele>
        <time>2011-12-09T10:52:30.000Z</time>
      </trkpt>
      <trkpt lat="43.49242" lon="6.94408">
        <ele>98.599998474121</ele>
        <time>2011-12-09T10:52:36.000Z</time>
      </trkpt>
      <trkpt lat="43.4924" lon="6.94401">
        <ele>99</ele>
        <time>2011-12-09T10:52:37.000Z</time>
      </trkpt>
      <trkpt lat="43.49233" lon="6.94382">
        <ele>99.800003051758</ele>
        <time>2011-12-09T10:52:40.000Z</time>
      </trkpt>
      <trkpt lat="43.49231" lon="6.94375">
        <ele>100.19999694824</ele>
        <time>2011-12-09T10:52:41.000Z</time>
      </trkpt>
      <trkpt lat="43.49227" lon="6.94334">
        <ele>106</ele>
        <time>2011-12-09T10:52:47.000Z</time>
      </trkpt>
      <trkpt lat="43.49227" lon="6.94329">
        <ele>107</ele>
        <time>2011-12-09T10:52:48.000Z</time>
      </trkpt>
      <trkpt lat="43.49221" lon="6.94322">
        <ele>107</ele>
        <time>2011-12-09T10:52:50.000Z</time>
      </trkpt>
      <trkpt lat="43.49213" lon="6.94319">
        <ele>105.19999694824</ele>
        <time>2011-12-09T10:52:52.000Z</time>
      </trkpt>
      <trkpt lat="43.49209" lon="6.94316">
        <ele>104.59999847412</ele>
        <time>2011-12-09T10:52:53.000Z</time>
      </trkpt>
      <trkpt lat="43.49205" lon="6.94313">
        <ele>104</ele>
        <time>2011-12-09T10:52:54.000Z</time>
      </trkpt>
      <trkpt lat="43.49184" lon="6.94294">
        <ele>102.19999694824</ele>
        <time>2011-12-09T10:52:59.000Z</time>
      </trkpt>
      <trkpt lat="43.49181" lon="6.94289">
        <ele>102.59999847412</ele>
        <time>2011-12-09T10:53:00.000Z</time>
      </trkpt>
      <trkpt lat="43.49174" lon="6.94272">
        <ele>105.19999694824</ele>
        <time>2011-12-09T10:53:03.000Z</time>
      </trkpt>
      <trkpt lat="43.49168" lon="6.94262">
        <ele>106</ele>
        <time>2011-12-09T10:53:05.000Z</time>
      </trkpt>
      <trkpt lat="43.49152" lon="6.94253">
        <ele>106</ele>
        <time>2011-12-09T10:53:09.000Z</time>
      </trkpt>
      <trkpt lat="43.49147" lon="6.94252">
        <ele>105.40000152588</ele>
        <time>2011-12-09T10:53:10.000Z</time>
      </trkpt>
      <trkpt lat="43.49122" lon="6.94248">
        <ele>102.40000152588</ele>
        <time>2011-12-09T10:53:16.000Z</time>
      </trkpt>
      <trkpt lat="43.49102" lon="6.94242">
        <ele>100.80000305176</ele>
        <time>2011-12-09T10:53:21.000Z</time>
      </trkpt>
      <trkpt lat="43.49096" lon="6.94236">
        <ele>100.80000305176</ele>
        <time>2011-12-09T10:53:23.000Z</time>
      </trkpt>
      <trkpt lat="43.4909" lon="6.94229">
        <ele>101</ele>
        <time>2011-12-09T10:53:25.000Z</time>
      </trkpt>
      <trkpt lat="43.49082" lon="6.94215">
        <ele>102.19999694824</ele>
        <time>2011-12-09T10:53:29.000Z</time>
      </trkpt>
      <trkpt lat="43.4907" lon="6.94192">
        <ele>106.40000152588</ele>
        <time>2011-12-09T10:53:36.000Z</time>
      </trkpt>
      <trkpt lat="43.49056" lon="6.94169">
        <ele>110.40000152588</ele>
        <time>2011-12-09T10:53:44.000Z</time>
      </trkpt>
      <trkpt lat="43.49051" lon="6.94155">
        <ele>110.40000152588</ele>
        <time>2011-12-09T10:53:50.000Z</time>
      </trkpt>
      <trkpt lat="43.4905" lon="6.94148">
        <ele>110.19999694824</ele>
        <time>2011-12-09T10:53:52.000Z</time>
      </trkpt>
      <trkpt lat="43.49052" lon="6.94141">
        <ele>110</ele>
        <time>2011-12-09T10:53:54.000Z</time>
      </trkpt>
      <trkpt lat="43.49056" lon="6.94135">
        <ele>110</ele>
        <time>2011-12-09T10:53:56.000Z</time>
      </trkpt>
      <trkpt lat="43.49065" lon="6.94119">
        <ele>110.19999694824</ele>
        <time>2011-12-09T10:54:02.000Z</time>
      </trkpt>
      <trkpt lat="43.49075" lon="6.94101">
        <ele>110.40000152588</ele>
        <time>2011-12-09T10:54:08.000Z</time>
      </trkpt>
      <trkpt lat="43.49085" lon="6.94079">
        <ele>111.40000152588</ele>
        <time>2011-12-09T10:54:14.000Z</time>
      </trkpt>
      <trkpt lat="43.49094" lon="6.94048">
        <ele>113.40000152588</ele>
        <time>2011-12-09T10:54:22.000Z</time>
      </trkpt>
      <trkpt lat="43.49099" lon="6.94016">
        <ele>114</ele>
        <time>2011-12-09T10:54:30.000Z</time>
      </trkpt>
      <trkpt lat="43.49106" lon="6.93973">
        <ele>114</ele>
        <time>2011-12-09T10:54:40.000Z</time>
      </trkpt>
      <trkpt lat="43.4911" lon="6.93943">
        <ele>113.80000305176</ele>
        <time>2011-12-09T10:54:47.000Z</time>
      </trkpt>
      <trkpt lat="43.49113" lon="6.93905">
        <ele>112</ele>
        <time>2011-12-09T10:54:56.000Z</time>
      </trkpt>
      <trkpt lat="43.49123" lon="6.9387">
        <ele>112.40000152588</ele>
        <time>2011-12-09T10:55:05.000Z</time>
      </trkpt>
      <trkpt lat="43.49135" lon="6.93858">
        <ele>116</ele>
        <time>2011-12-09T10:55:11.000Z</time>
      </trkpt>
      <trkpt lat="43.49146" lon="6.9385">
        <ele>119</ele>
        <time>2011-12-09T10:55:16.000Z</time>
      </trkpt>
      <trkpt lat="43.49153" lon="6.93836">
        <ele>120.19999694824</ele>
        <time>2011-12-09T10:55:22.000Z</time>
      </trkpt>
      <trkpt lat="43.49153" lon="6.93832">
        <ele>120</ele>
        <time>2011-12-09T10:55:25.000Z</time>
      </trkpt>
      <trkpt lat="43.49154" lon="6.9383">
        <ele>120</ele>
        <time>2011-12-09T10:55:26.000Z</time>
      </trkpt>
      <trkpt lat="43.49155" lon="6.93819">
        <ele>120.40000152588</ele>
        <time>2011-12-09T10:55:29.000Z</time>
      </trkpt>
      <trkpt lat="43.49158" lon="6.93812">
        <ele>121.19999694824</ele>
        <time>2011-12-09T10:55:31.000Z</time>
      </trkpt>
      <trkpt lat="43.49164" lon="6.93782">
        <ele>122.80000305176</ele>
        <time>2011-12-09T10:55:38.000Z</time>
      </trkpt>
      <trkpt lat="43.4916" lon="6.93758">
        <ele>120.40000152588</ele>
        <time>2011-12-09T10:55:44.000Z</time>
      </trkpt>
      <trkpt lat="43.49147" lon="6.93739">
        <ele>115.40000152588</ele>
        <time>2011-12-09T10:55:50.000Z</time>
      </trkpt>
      <trkpt lat="43.4914" lon="6.93716">
        <ele>112.80000305176</ele>
        <time>2011-12-09T10:55:56.000Z</time>
      </trkpt>
      <trkpt lat="43.49143" lon="6.93691">
        <ele>114.59999847412</ele>
        <time>2011-12-09T10:56:02.000Z</time>
      </trkpt>
      <trkpt lat="43.4915" lon="6.93665">
        <ele>117.40000152588</ele>
        <time>2011-12-09T10:56:09.000Z</time>
      </trkpt>
      <trkpt lat="43.49157" lon="6.93637">
        <ele>117.19999694824</ele>
        <time>2011-12-09T10:56:16.000Z</time>
      </trkpt>
      <trkpt lat="43.49168" lon="6.93618">
        <ele>118.80000305176</ele>
        <time>2011-12-09T10:56:22.000Z</time>
      </trkpt>
      <trkpt lat="43.49183" lon="6.93601">
        <ele>122.59999847412</ele>
        <time>2011-12-09T10:56:29.000Z</time>
      </trkpt>
      <trkpt lat="43.49196" lon="6.93584">
        <ele>125.40000152588</ele>
        <time>2011-12-09T10:56:35.000Z</time>
      </trkpt>
      <trkpt lat="43.49199" lon="6.93583">
        <ele>126.59999847412</ele>
        <time>2011-12-09T10:56:36.000Z</time>
      </trkpt>
      <trkpt lat="43.49207" lon="6.93578">
        <ele>129.39999389648</ele>
        <time>2011-12-09T10:56:39.000Z</time>
      </trkpt>
      <trkpt lat="43.49216" lon="6.93564">
        <ele>132.80000305176</ele>
        <time>2011-12-09T10:56:44.000Z</time>
      </trkpt>
      <trkpt lat="43.49215" lon="6.93559">
        <ele>132.39999389648</ele>
        <time>2011-12-09T10:56:45.000Z</time>
      </trkpt>
      <trkpt lat="43.49211" lon="6.9354">
        <ele>130.80000305176</ele>
        <time>2011-12-09T10:56:50.000Z</time>
      </trkpt>
      <trkpt lat="43.49211" lon="6.93536">
        <ele>130.60000610352</ele>
        <time>2011-12-09T10:56:51.000Z</time>
      </trkpt>
      <trkpt lat="43.49209" lon="6.93531">
        <ele>129.60000610352</ele>
        <time>2011-12-09T10:56:53.000Z</time>
      </trkpt>
      <trkpt lat="43.49205" lon="6.93526">
        <ele>127.80000305176</ele>
        <time>2011-12-09T10:56:55.000Z</time>
      </trkpt>
      <trkpt lat="43.49198" lon="6.93511">
        <ele>124.19999694824</ele>
        <time>2011-12-09T10:57:01.000Z</time>
      </trkpt>
      <trkpt lat="43.49196" lon="6.93496">
        <ele>123.19999694824</ele>
        <time>2011-12-09T10:57:05.000Z</time>
      </trkpt>
      <trkpt lat="43.49196" lon="6.93493">
        <ele>122.80000305176</ele>
        <time>2011-12-09T10:57:06.000Z</time>
      </trkpt>
      <trkpt lat="43.49196" lon="6.93471">
        <ele>122.40000152588</ele>
        <time>2011-12-09T10:57:12.000Z</time>
      </trkpt>
      <trkpt lat="43.49203" lon="6.93445">
        <ele>125.19999694824</ele>
        <time>2011-12-09T10:57:20.000Z</time>
      </trkpt>
      <trkpt lat="43.4921" lon="6.93417">
        <ele>128.19999694824</ele>
        <time>2011-12-09T10:57:28.000Z</time>
      </trkpt>
      <trkpt lat="43.49215" lon="6.93399">
        <ele>129.60000610352</ele>
        <time>2011-12-09T10:57:33.000Z</time>
      </trkpt>
      <trkpt lat="43.49221" lon="6.93381">
        <ele>131.60000610352</ele>
        <time>2011-12-09T10:57:38.000Z</time>
      </trkpt>
      <trkpt lat="43.49227" lon="6.93358">
        <ele>132.80000305176</ele>
        <time>2011-12-09T10:57:44.000Z</time>
      </trkpt>
      <trkpt lat="43.49231" lon="6.93336">
        <ele>133.80000305176</ele>
        <time>2011-12-09T10:57:50.000Z</time>
      </trkpt>
      <trkpt lat="43.49237" lon="6.93307">
        <ele>133.39999389648</ele>
        <time>2011-12-09T10:57:58.000Z</time>
      </trkpt>
      <trkpt lat="43.49238" lon="6.93283">
        <ele>130.80000305176</ele>
        <time>2011-12-09T10:58:04.000Z</time>
      </trkpt>
      <trkpt lat="43.49235" lon="6.93271">
        <ele>128.39999389648</ele>
        <time>2011-12-09T10:58:09.000Z</time>
      </trkpt>
      <trkpt lat="43.49235" lon="6.9327">
        <ele>128</ele>
        <time>2011-12-09T10:58:19.000Z</time>
      </trkpt>
      <trkpt lat="43.49233" lon="6.93266">
        <ele>126.80000305176</ele>
        <time>2011-12-09T10:58:25.000Z</time>
      </trkpt>
      <trkpt lat="43.49228" lon="6.93254">
        <ele>123.19999694824</ele>
        <time>2011-12-09T10:58:30.000Z</time>
      </trkpt>
      <trkpt lat="43.49217" lon="6.93244">
        <ele>117.59999847412</ele>
        <time>2011-12-09T10:58:35.000Z</time>
      </trkpt>
      <trkpt lat="43.49216" lon="6.93241">
        <ele>116.80000305176</ele>
        <time>2011-12-09T10:58:36.000Z</time>
      </trkpt>
      <trkpt lat="43.49215" lon="6.93239">
        <ele>115.59999847412</ele>
        <time>2011-12-09T10:58:38.000Z</time>
      </trkpt>
      <trkpt lat="43.4921" lon="6.93233">
        <ele>113.19999694824</ele>
        <time>2011-12-09T10:58:42.000Z</time>
      </trkpt>
      <trkpt lat="43.49211" lon="6.93226">
        <ele>112.40000152588</ele>
        <time>2011-12-09T10:58:47.000Z</time>
      </trkpt>
      <trkpt lat="43.4921" lon="6.93225">
        <ele>112</ele>
        <time>2011-12-09T10:58:49.000Z</time>
      </trkpt>
      <trkpt lat="43.4921" lon="6.93225">
        <ele>111.59999847412</ele>
        <time>2011-12-09T10:58:51.000Z</time>
      </trkpt>
      <trkpt lat="43.49205" lon="6.93225">
        <ele>110.19999694824</ele>
        <time>2011-12-09T10:58:55.000Z</time>
      </trkpt>
      <trkpt lat="43.49202" lon="6.93222">
        <ele>108.59999847412</ele>
        <time>2011-12-09T10:59:00.000Z</time>
      </trkpt>
      <trkpt lat="43.49201" lon="6.93216">
        <ele>107.59999847412</ele>
        <time>2011-12-09T10:59:06.000Z</time>
      </trkpt>
      <trkpt lat="43.49201" lon="6.93214">
        <ele>107</ele>
        <time>2011-12-09T10:59:13.000Z</time>
      </trkpt>
      <trkpt lat="43.49201" lon="6.93207">
        <ele>106</ele>
        <time>2011-12-09T10:59:20.000Z</time>
      </trkpt>
      <trkpt lat="43.49201" lon="6.93207">
        <ele>106.19999694824</ele>
        <time>2011-12-09T10:59:25.000Z</time>
      </trkpt>
      <trkpt lat="43.49202" lon="6.93208">
        <ele>106.59999847412</ele>
        <time>2011-12-09T10:59:35.000Z</time>
      </trkpt>
      <trkpt lat="43.49201" lon="6.93207">
        <ele>106.19999694824</ele>
        <time>2011-12-09T10:59:41.000Z</time>
      </trkpt>
      <trkpt lat="43.49198" lon="6.93206">
        <ele>105</ele>
        <time>2011-12-09T10:59:50.000Z</time>
      </trkpt>
      <trkpt lat="43.49192" lon="6.93207">
        <ele>103.19999694824</ele>
        <time>2011-12-09T10:59:55.000Z</time>
      </trkpt>
      <trkpt lat="43.49188" lon="6.93207">
        <ele>101.80000305176</ele>
        <time>2011-12-09T10:59:58.000Z</time>
      </trkpt>
      <trkpt lat="43.49185" lon="6.93207">
        <ele>101</ele>
        <time>2011-12-09T11:00:00.000Z</time>
      </trkpt>
      <trkpt lat="43.4918" lon="6.93212">
        <ele>99.599998474121</ele>
        <time>2011-12-09T11:00:04.000Z</time>
      </trkpt>
      <trkpt lat="43.4918" lon="6.93212">
        <ele>99.599998474121</ele>
        <time>2011-12-09T11:00:05.000Z</time>
      </trkpt>
      <trkpt lat="43.49178" lon="6.93211">
        <ele>99</ele>
        <time>2011-12-09T11:00:10.000Z</time>
      </trkpt>
      <trkpt lat="43.49175" lon="6.93209">
        <ele>97.800003051758</ele>
        <time>2011-12-09T11:00:12.000Z</time>
      </trkpt>
      <trkpt lat="43.49173" lon="6.93206">
        <ele>96.800003051758</ele>
        <time>2011-12-09T11:00:14.000Z</time>
      </trkpt>
      <trkpt lat="43.49171" lon="6.93204">
        <ele>96</ele>
        <time>2011-12-09T11:00:17.000Z</time>
      </trkpt>
      <trkpt lat="43.4917" lon="6.93203">
        <ele>95.599998474121</ele>
        <time>2011-12-09T11:00:18.000Z</time>
      </trkpt>
      <trkpt lat="43.49165" lon="6.932">
        <ele>94</ele>
        <time>2011-12-09T11:00:24.000Z</time>
      </trkpt>
      <trkpt lat="43.49159" lon="6.93196">
        <ele>92.599998474121</ele>
        <time>2011-12-09T11:00:29.000Z</time>
      </trkpt>
      <trkpt lat="43.49153" lon="6.93197">
        <ele>91.199996948242</ele>
        <time>2011-12-09T11:00:36.000Z</time>
      </trkpt>
      <trkpt lat="43.49148" lon="6.93187">
        <ele>89.800003051758</ele>
        <time>2011-12-09T11:00:41.000Z</time>
      </trkpt>
      <trkpt lat="43.49143" lon="6.93182">
        <ele>88.599998474121</ele>
        <time>2011-12-09T11:00:45.000Z</time>
      </trkpt>
      <trkpt lat="43.49128" lon="6.93173">
        <ele>86</ele>
        <time>2011-12-09T11:00:50.000Z</time>
      </trkpt>
      <trkpt lat="43.4912" lon="6.93168">
        <ele>84.599998474121</ele>
        <time>2011-12-09T11:00:54.000Z</time>
      </trkpt>
      <trkpt lat="43.49116" lon="6.93168">
        <ele>84.199996948242</ele>
        <time>2011-12-09T11:00:55.000Z</time>
      </trkpt>
      <trkpt lat="43.49101" lon="6.93169">
        <ele>81.599998474121</ele>
        <time>2011-12-09T11:01:01.000Z</time>
      </trkpt>
      <trkpt lat="43.49085" lon="6.93167">
        <ele>79.199996948242</ele>
        <time>2011-12-09T11:01:06.000Z</time>
      </trkpt>
      <trkpt lat="43.49081" lon="6.93161">
        <ele>78</ele>
        <time>2011-12-09T11:01:09.000Z</time>
      </trkpt>
      <trkpt lat="43.49081" lon="6.9316">
        <ele>77.599998474121</ele>
        <time>2011-12-09T11:01:10.000Z</time>
      </trkpt>
      <trkpt lat="43.49074" lon="6.93148">
        <ele>74.800003051758</ele>
        <time>2011-12-09T11:01:13.000Z</time>
      </trkpt>
      <trkpt lat="43.49067" lon="6.93143">
        <ele>72.800003051758</ele>
        <time>2011-12-09T11:01:15.000Z</time>
      </trkpt>
      <trkpt lat="43.49062" lon="6.93138">
        <ele>71.199996948242</ele>
        <time>2011-12-09T11:01:17.000Z</time>
      </trkpt>
      <trkpt lat="43.49059" lon="6.93138">
        <ele>70.599998474121</ele>
        <time>2011-12-09T11:01:18.000Z</time>
      </trkpt>
      <trkpt lat="43.49054" lon="6.93142">
        <ele>70.599998474121</ele>
        <time>2011-12-09T11:01:20.000Z</time>
      </trkpt>
      <trkpt lat="43.4905" lon="6.93148">
        <ele>70.599998474121</ele>
        <time>2011-12-09T11:01:22.000Z</time>
      </trkpt>
      <trkpt lat="43.49045" lon="6.93149">
        <ele>70</ele>
        <time>2011-12-09T11:01:24.000Z</time>
      </trkpt>
      <trkpt lat="43.49043" lon="6.93149">
        <ele>69.599998474121</ele>
        <time>2011-12-09T11:01:25.000Z</time>
      </trkpt>
      <trkpt lat="43.49038" lon="6.93153">
        <ele>69.199996948242</ele>
        <time>2011-12-09T11:01:29.000Z</time>
      </trkpt>
      <trkpt lat="43.49033" lon="6.93151">
        <ele>68.199996948242</ele>
        <time>2011-12-09T11:01:31.000Z</time>
      </trkpt>
      <trkpt lat="43.49031" lon="6.93151">
        <ele>68</ele>
        <time>2011-12-09T11:01:33.000Z</time>
      </trkpt>
      <trkpt lat="43.49029" lon="6.93154">
        <ele>68</ele>
        <time>2011-12-09T11:01:38.000Z</time>
      </trkpt>
      <trkpt lat="43.49027" lon="6.93154">
        <ele>67.599998474121</ele>
        <time>2011-12-09T11:01:43.000Z</time>
      </trkpt>
      <trkpt lat="43.49024" lon="6.93158">
        <ele>67.800003051758</ele>
        <time>2011-12-09T11:01:48.000Z</time>
      </trkpt>
      <trkpt lat="43.49025" lon="6.93158">
        <ele>68</ele>
        <time>2011-12-09T11:01:53.000Z</time>
      </trkpt>
      <trkpt lat="43.49024" lon="6.93164">
        <ele>68.599998474121</ele>
        <time>2011-12-09T11:02:02.000Z</time>
      </trkpt>
      <trkpt lat="43.49023" lon="6.93164">
        <ele>68.400001525879</ele>
        <time>2011-12-09T11:02:03.000Z</time>
      </trkpt>
      <trkpt lat="43.49018" lon="6.93165">
        <ele>67.800003051758</ele>
        <time>2011-12-09T11:02:07.000Z</time>
      </trkpt>
      <trkpt lat="43.49015" lon="6.93165">
        <ele>67.199996948242</ele>
        <time>2011-12-09T11:02:10.000Z</time>
      </trkpt>
      <trkpt lat="43.49013" lon="6.93164">
        <ele>66.800003051758</ele>
        <time>2011-12-09T11:02:12.000Z</time>
      </trkpt>
      <trkpt lat="43.49009" lon="6.93167">
        <ele>66.599998474121</ele>
        <time>2011-12-09T11:02:17.000Z</time>
      </trkpt>
      <trkpt lat="43.49002" lon="6.93177">
        <ele>64.599998474121</ele>
        <time>2011-12-09T11:02:22.000Z</time>
      </trkpt>
      <trkpt lat="43.48992" lon="6.93179">
        <ele>62.599998474121</ele>
        <time>2011-12-09T11:02:26.000Z</time>
      </trkpt>
      <trkpt lat="43.4899" lon="6.9318">
        <ele>61.799999237061</ele>
        <time>2011-12-09T11:02:27.000Z</time>
      </trkpt>
      <trkpt lat="43.48978" lon="6.93187">
        <ele>59</ele>
        <time>2011-12-09T11:02:32.000Z</time>
      </trkpt>
      <trkpt lat="43.48974" lon="6.93186">
        <ele>58.400001525879</ele>
        <time>2011-12-09T11:02:37.000Z</time>
      </trkpt>
      <trkpt lat="43.48972" lon="6.93183">
        <ele>58</ele>
        <time>2011-12-09T11:02:42.000Z</time>
      </trkpt>
      <trkpt lat="43.48966" lon="6.9318">
        <ele>57</ele>
        <time>2011-12-09T11:02:48.000Z</time>
      </trkpt>
      <trkpt lat="43.48965" lon="6.93179">
        <ele>56.799999237061</ele>
        <time>2011-12-09T11:02:49.000Z</time>
      </trkpt>
      <trkpt lat="43.48966" lon="6.93177">
        <ele>56.799999237061</ele>
        <time>2011-12-09T11:02:52.000Z</time>
      </trkpt>
      <trkpt lat="43.48968" lon="6.93172">
        <ele>57.400001525879</ele>
        <time>2011-12-09T11:02:59.000Z</time>
      </trkpt>
      <trkpt lat="43.4897" lon="6.93171">
        <ele>58</ele>
        <time>2011-12-09T11:03:00.000Z</time>
      </trkpt>
      <trkpt lat="43.48981" lon="6.9316">
        <ele>59.799999237061</ele>
        <time>2011-12-09T11:03:06.000Z</time>
      </trkpt>
      <trkpt lat="43.48993" lon="6.93141">
        <ele>59.799999237061</ele>
        <time>2011-12-09T11:03:13.000Z</time>
      </trkpt>
      <trkpt lat="43.48998" lon="6.93126">
        <ele>58.200000762939</ele>
        <time>2011-12-09T11:03:18.000Z</time>
      </trkpt>
      <trkpt lat="43.49008" lon="6.93111">
        <ele>57.799999237061</ele>
        <time>2011-12-09T11:03:25.000Z</time>
      </trkpt>
      <trkpt lat="43.49022" lon="6.93104">
        <ele>59.200000762939</ele>
        <time>2011-12-09T11:03:31.000Z</time>
      </trkpt>
      <trkpt lat="43.49037" lon="6.931">
        <ele>61.200000762939</ele>
        <time>2011-12-09T11:03:38.000Z</time>
      </trkpt>
      <trkpt lat="43.49053" lon="6.93096">
        <ele>63.400001525879</ele>
        <time>2011-12-09T11:03:45.000Z</time>
      </trkpt>
      <trkpt lat="43.49063" lon="6.93087">
        <ele>63.799999237061</ele>
        <time>2011-12-09T11:03:51.000Z</time>
      </trkpt>
      <trkpt lat="43.49077" lon="6.93081">
        <ele>65.400001525879</ele>
        <time>2011-12-09T11:03:58.000Z</time>
      </trkpt>
      <trkpt lat="43.49093" lon="6.93081">
        <ele>67</ele>
        <time>2011-12-09T11:04:06.000Z</time>
      </trkpt>
      <trkpt lat="43.49106" lon="6.93091">
        <ele>69.599998474121</ele>
        <time>2011-12-09T11:04:13.000Z</time>
      </trkpt>
      <trkpt lat="43.49122" lon="6.93106">
        <ele>73.599998474121</ele>
        <time>2011-12-09T11:04:22.000Z</time>
      </trkpt>
      <trkpt lat="43.49141" lon="6.93113">
        <ele>76.800003051758</ele>
        <time>2011-12-09T11:04:31.000Z</time>
      </trkpt>
      <trkpt lat="43.49158" lon="6.93121">
        <ele>80.199996948242</ele>
        <time>2011-12-09T11:04:39.000Z</time>
      </trkpt>
      <trkpt lat="43.49171" lon="6.93123">
        <ele>82.599998474121</ele>
        <time>2011-12-09T11:04:45.000Z</time>
      </trkpt>
      <trkpt lat="43.49189" lon="6.93127">
        <ele>88.599998474121</ele>
        <time>2011-12-09T11:04:53.000Z</time>
      </trkpt>
      <trkpt lat="43.49204" lon="6.93129">
        <ele>93</ele>
        <time>2011-12-09T11:05:00.000Z</time>
      </trkpt>
      <trkpt lat="43.49219" lon="6.93121">
        <ele>95.199996948242</ele>
        <time>2011-12-09T11:05:07.000Z</time>
      </trkpt>
      <trkpt lat="43.49223" lon="6.93108">
        <ele>93.599998474121</ele>
        <time>2011-12-09T11:05:12.000Z</time>
      </trkpt>
      <trkpt lat="43.4922" lon="6.93086">
        <ele>88.199996948242</ele>
        <time>2011-12-09T11:05:19.000Z</time>
      </trkpt>
      <trkpt lat="43.49224" lon="6.93061">
        <ele>84.800003051758</ele>
        <time>2011-12-09T11:05:27.000Z</time>
      </trkpt>
      <trkpt lat="43.49236" lon="6.93047">
        <ele>85.400001525879</ele>
        <time>2011-12-09T11:05:34.000Z</time>
      </trkpt>
      <trkpt lat="43.49247" lon="6.93041">
        <ele>87.400001525879</ele>
        <time>2011-12-09T11:05:40.000Z</time>
      </trkpt>
      <trkpt lat="43.49261" lon="6.93037">
        <ele>92.199996948242</ele>
        <time>2011-12-09T11:05:47.000Z</time>
      </trkpt>
      <trkpt lat="43.49273" lon="6.9303">
        <ele>96</ele>
        <time>2011-12-09T11:05:53.000Z</time>
      </trkpt>
      <trkpt lat="43.49283" lon="6.93016">
        <ele>98</ele>
        <time>2011-12-09T11:06:00.000Z</time>
      </trkpt>
      <trkpt lat="43.49281" lon="6.92997">
        <ele>93.599998474121</ele>
        <time>2011-12-09T11:06:06.000Z</time>
      </trkpt>
      <trkpt lat="43.49281" lon="6.92972">
        <ele>90.400001525879</ele>
        <time>2011-12-09T11:06:14.000Z</time>
      </trkpt>
      <trkpt lat="43.49289" lon="6.92952">
        <ele>91.599998474121</ele>
        <time>2011-12-09T11:06:22.000Z</time>
      </trkpt>
      <trkpt lat="43.49297" lon="6.9294">
        <ele>93.199996948242</ele>
        <time>2011-12-09T11:06:29.000Z</time>
      </trkpt>
      <trkpt lat="43.49307" lon="6.92931">
        <ele>96</ele>
        <time>2011-12-09T11:06:37.000Z</time>
      </trkpt>
      <trkpt lat="43.49312" lon="6.92927">
        <ele>97.599998474121</ele>
        <time>2011-12-09T11:06:41.000Z</time>
      </trkpt>
      <trkpt lat="43.49315" lon="6.92925">
        <ele>98.400001525879</ele>
        <time>2011-12-09T11:06:43.000Z</time>
      </trkpt>
      <trkpt lat="43.49327" lon="6.92916">
        <ele>102.59999847412</ele>
        <time>2011-12-09T11:06:52.000Z</time>
      </trkpt>
      <trkpt lat="43.49337" lon="6.92911">
        <ele>105.40000152588</ele>
        <time>2011-12-09T11:06:59.000Z</time>
      </trkpt>
      <trkpt lat="43.49341" lon="6.92897">
        <ele>105.19999694824</ele>
        <time>2011-12-09T11:07:06.000Z</time>
      </trkpt>
      <trkpt lat="43.49342" lon="6.9288">
        <ele>103.40000152588</ele>
        <time>2011-12-09T11:07:14.000Z</time>
      </trkpt>
      <trkpt lat="43.49345" lon="6.9286">
        <ele>102</ele>
        <time>2011-12-09T11:07:23.000Z</time>
      </trkpt>
      <trkpt lat="43.49351" lon="6.9284">
        <ele>101.19999694824</ele>
        <time>2011-12-09T11:07:33.000Z</time>
      </trkpt>
      <trkpt lat="43.49358" lon="6.92825">
        <ele>101.80000305176</ele>
        <time>2011-12-09T11:07:41.000Z</time>
      </trkpt>
      <trkpt lat="43.49365" lon="6.92811">
        <ele>102.40000152588</ele>
        <time>2011-12-09T11:07:49.000Z</time>
      </trkpt>
      <trkpt lat="43.49373" lon="6.92801">
        <ele>103.59999847412</ele>
        <time>2011-12-09T11:07:56.000Z</time>
      </trkpt>
      <trkpt lat="43.49387" lon="6.92791">
        <ele>106</ele>
        <time>2011-12-09T11:08:05.000Z</time>
      </trkpt>
      <trkpt lat="43.49397" lon="6.92788">
        <ele>108</ele>
        <time>2011-12-09T11:08:12.000Z</time>
      </trkpt>
      <trkpt lat="43.4941" lon="6.92785">
        <ele>110.59999847412</ele>
        <time>2011-12-09T11:08:20.000Z</time>
      </trkpt>
      <trkpt lat="43.49422" lon="6.92786">
        <ele>113</ele>
        <time>2011-12-09T11:08:27.000Z</time>
      </trkpt>
      <trkpt lat="43.49437" lon="6.92796">
        <ele>116.19999694824</ele>
        <time>2011-12-09T11:08:36.000Z</time>
      </trkpt>
      <trkpt lat="43.4945" lon="6.92802">
        <ele>118</ele>
        <time>2011-12-09T11:08:44.000Z</time>
      </trkpt>
      <trkpt lat="43.49452" lon="6.92801">
        <ele>118</ele>
        <time>2011-12-09T11:08:45.000Z</time>
      </trkpt>
      <trkpt lat="43.49457" lon="6.92794">
        <ele>117.59999847412</ele>
        <time>2011-12-09T11:08:49.000Z</time>
      </trkpt>
      <trkpt lat="43.49469" lon="6.92784">
        <ele>117.80000305176</ele>
        <time>2011-12-09T11:08:57.000Z</time>
      </trkpt>
      <trkpt lat="43.49478" lon="6.92772">
        <ele>118</ele>
        <time>2011-12-09T11:09:04.000Z</time>
      </trkpt>
      <trkpt lat="43.49484" lon="6.92765">
        <ele>118.19999694824</ele>
        <time>2011-12-09T11:09:10.000Z</time>
      </trkpt>
      <trkpt lat="43.49487" lon="6.92761">
        <ele>118.40000152588</ele>
        <time>2011-12-09T11:09:42.000Z</time>
      </trkpt>
      <trkpt lat="43.49488" lon="6.92761">
        <ele>118.59999847412</ele>
        <time>2011-12-09T11:09:43.000Z</time>
      </trkpt>
      <trkpt lat="43.49489" lon="6.92762">
        <ele>118.80000305176</ele>
        <time>2011-12-09T11:09:46.000Z</time>
      </trkpt>
      <trkpt lat="43.49494" lon="6.92764">
        <ele>119.59999847412</ele>
        <time>2011-12-09T11:10:06.000Z</time>
      </trkpt>
      <trkpt lat="43.49494" lon="6.92764">
        <ele>119.59999847412</ele>
        <time>2011-12-09T11:10:08.000Z</time>
      </trkpt>
      <trkpt lat="43.49492" lon="6.92763">
        <ele>119.19999694824</ele>
        <time>2011-12-09T11:13:37.000Z</time>
      </trkpt>
      <trkpt lat="43.49489" lon="6.92771">
        <ele>119.40000152588</ele>
        <time>2011-12-09T11:13:43.000Z</time>
      </trkpt>
      <trkpt lat="43.49497" lon="6.92776">
        <ele>120.59999847412</ele>
        <time>2011-12-09T11:13:47.000Z</time>
      </trkpt>
      <trkpt lat="43.49504" lon="6.92785">
        <ele>120.59999847412</ele>
        <time>2011-12-09T11:13:51.000Z</time>
      </trkpt>
      <trkpt lat="43.49517" lon="6.92808">
        <ele>118.59999847412</ele>
        <time>2011-12-09T11:13:56.000Z</time>
      </trkpt>
      <trkpt lat="43.49519" lon="6.9282">
        <ele>118.19999694824</ele>
        <time>2011-12-09T11:13:58.000Z</time>
      </trkpt>
      <trkpt lat="43.4952" lon="6.92824">
        <ele>117.80000305176</ele>
        <time>2011-12-09T11:13:59.000Z</time>
      </trkpt>
      <trkpt lat="43.49527" lon="6.92831">
        <ele>116.19999694824</ele>
        <time>2011-12-09T11:14:02.000Z</time>
      </trkpt>
      <trkpt lat="43.49539" lon="6.92836">
        <ele>113.40000152588</ele>
        <time>2011-12-09T11:14:05.000Z</time>
      </trkpt>
      <trkpt lat="43.49544" lon="6.92839">
        <ele>112.59999847412</ele>
        <time>2011-12-09T11:14:06.000Z</time>
      </trkpt>
      <trkpt lat="43.49547" lon="6.92842">
        <ele>112</ele>
        <time>2011-12-09T11:14:07.000Z</time>
      </trkpt>
      <trkpt lat="43.49553" lon="6.92854">
        <ele>111.80000305176</ele>
        <time>2011-12-09T11:14:09.000Z</time>
      </trkpt>
      <trkpt lat="43.49562" lon="6.92867">
        <ele>110.19999694824</ele>
        <time>2011-12-09T11:14:12.000Z</time>
      </trkpt>
      <trkpt lat="43.49565" lon="6.9287">
        <ele>109.59999847412</ele>
        <time>2011-12-09T11:14:13.000Z</time>
      </trkpt>
      <trkpt lat="43.49575" lon="6.92876">
        <ele>107.19999694824</ele>
        <time>2011-12-09T11:14:16.000Z</time>
      </trkpt>
      <trkpt lat="43.49584" lon="6.92883">
        <ele>105</ele>
        <time>2011-12-09T11:14:18.000Z</time>
      </trkpt>
      <trkpt lat="43.49591" lon="6.92898">
        <ele>105</ele>
        <time>2011-12-09T11:14:21.000Z</time>
      </trkpt>
      <trkpt lat="43.49597" lon="6.92907">
        <ele>104.40000152588</ele>
        <time>2011-12-09T11:14:23.000Z</time>
      </trkpt>
      <trkpt lat="43.49599" lon="6.92911">
        <ele>104.40000152588</ele>
        <time>2011-12-09T11:14:24.000Z</time>
      </trkpt>
      <trkpt lat="43.496" lon="6.92914">
        <ele>104.19999694824</ele>
        <time>2011-12-09T11:14:25.000Z</time>
      </trkpt>
      <trkpt lat="43.49607" lon="6.92926">
        <ele>103.40000152588</ele>
        <time>2011-12-09T11:14:28.000Z</time>
      </trkpt>
      <trkpt lat="43.49609" lon="6.9293">
        <ele>103.40000152588</ele>
        <time>2011-12-09T11:14:29.000Z</time>
      </trkpt>
      <trkpt lat="43.49611" lon="6.92934">
        <ele>103.19999694824</ele>
        <time>2011-12-09T11:14:30.000Z</time>
      </trkpt>
      <trkpt lat="43.49621" lon="6.92944">
        <ele>101.80000305176</ele>
        <time>2011-12-09T11:14:34.000Z</time>
      </trkpt>
      <trkpt lat="43.49625" lon="6.92946">
        <ele>101</ele>
        <time>2011-12-09T11:14:35.000Z</time>
      </trkpt>
      <trkpt lat="43.49639" lon="6.92951">
        <ele>98.400001525879</ele>
        <time>2011-12-09T11:14:39.000Z</time>
      </trkpt>
      <trkpt lat="43.49644" lon="6.92952">
        <ele>97.400001525879</ele>
        <time>2011-12-09T11:14:40.000Z</time>
      </trkpt>
      <trkpt lat="43.49657" lon="6.92956">
        <ele>94.800003051758</ele>
        <time>2011-12-09T11:14:43.000Z</time>
      </trkpt>
      <trkpt lat="43.49669" lon="6.92965">
        <ele>93.199996948242</ele>
        <time>2011-12-09T11:14:47.000Z</time>
      </trkpt>
      <trkpt lat="43.49684" lon="6.92983">
        <ele>93.199996948242</ele>
        <time>2011-12-09T11:14:52.000Z</time>
      </trkpt>
      <trkpt lat="43.49696" lon="6.92999">
        <ele>92.400001525879</ele>
        <time>2011-12-09T11:14:57.000Z</time>
      </trkpt>
      <trkpt lat="43.49702" lon="6.93004">
        <ele>91.800003051758</ele>
        <time>2011-12-09T11:15:00.000Z</time>
      </trkpt>
      <trkpt lat="43.49706" lon="6.93005">
        <ele>91.800003051758</ele>
        <time>2011-12-09T11:15:01.000Z</time>
      </trkpt>
      <trkpt lat="43.49715" lon="6.93015">
        <ele>90.599998474121</ele>
        <time>2011-12-09T11:15:04.000Z</time>
      </trkpt>
      <trkpt lat="43.49715" lon="6.9302">
        <ele>90.199996948242</ele>
        <time>2011-12-09T11:15:05.000Z</time>
      </trkpt>
      <trkpt lat="43.49721" lon="6.93039">
        <ele>88.199996948242</ele>
        <time>2011-12-09T11:15:09.000Z</time>
      </trkpt>
      <trkpt lat="43.49719" lon="6.93063">
        <ele>86.400001525879</ele>
        <time>2011-12-09T11:15:13.000Z</time>
      </trkpt>
      <trkpt lat="43.49716" lon="6.93075">
        <ele>85.800003051758</ele>
        <time>2011-12-09T11:15:15.000Z</time>
      </trkpt>
      <trkpt lat="43.4971" lon="6.93086">
        <ele>85.599998474121</ele>
        <time>2011-12-09T11:15:17.000Z</time>
      </trkpt>
      <trkpt lat="43.49707" lon="6.931">
        <ele>85</ele>
        <time>2011-12-09T11:15:19.000Z</time>
      </trkpt>
      <trkpt lat="43.49703" lon="6.93116">
        <ele>84.199996948242</ele>
        <time>2011-12-09T11:15:21.000Z</time>
      </trkpt>
      <trkpt lat="43.4969" lon="6.93147">
        <ele>82.199996948242</ele>
        <time>2011-12-09T11:15:25.000Z</time>
      </trkpt>
      <trkpt lat="43.49679" lon="6.93175">
        <ele>80</ele>
        <time>2011-12-09T11:15:29.000Z</time>
      </trkpt>
      <trkpt lat="43.49672" lon="6.93183">
        <ele>79.400001525879</ele>
        <time>2011-12-09T11:15:31.000Z</time>
      </trkpt>
      <trkpt lat="43.49668" lon="6.93195">
        <ele>78.800003051758</ele>
        <time>2011-12-09T11:15:34.000Z</time>
      </trkpt>
      <trkpt lat="43.49674" lon="6.93204">
        <ele>78.599998474121</ele>
        <time>2011-12-09T11:15:37.000Z</time>
      </trkpt>
      <trkpt lat="43.49675" lon="6.93209">
        <ele>78.599998474121</ele>
        <time>2011-12-09T11:15:38.000Z</time>
      </trkpt>
      <trkpt lat="43.49675" lon="6.93219">
        <ele>78.199996948242</ele>
        <time>2011-12-09T11:15:41.000Z</time>
      </trkpt>
      <trkpt lat="43.49674" lon="6.93223">
        <ele>78</ele>
        <time>2011-12-09T11:15:42.000Z</time>
      </trkpt>
      <trkpt lat="43.49675" lon="6.93237">
        <ele>77.599998474121</ele>
        <time>2011-12-09T11:15:45.000Z</time>
      </trkpt>
      <trkpt lat="43.49676" lon="6.93265">
        <ele>76</ele>
        <time>2011-12-09T11:15:51.000Z</time>
      </trkpt>
      <trkpt lat="43.4967" lon="6.93287">
        <ele>73.400001525879</ele>
        <time>2011-12-09T11:15:55.000Z</time>
      </trkpt>
      <trkpt lat="43.49664" lon="6.93314">
        <ele>71.599998474121</ele>
        <time>2011-12-09T11:16:00.000Z</time>
      </trkpt>
      <trkpt lat="43.49664" lon="6.9332">
        <ele>71.199996948242</ele>
        <time>2011-12-09T11:16:01.000Z</time>
      </trkpt>
      <trkpt lat="43.49662" lon="6.93332">
        <ele>70.599998474121</ele>
        <time>2011-12-09T11:16:03.000Z</time>
      </trkpt>
      <trkpt lat="43.4966" lon="6.93343">
        <ele>71</ele>
        <time>2011-12-09T11:16:05.000Z</time>
      </trkpt>
      <trkpt lat="43.49667" lon="6.93354">
        <ele>68.800003051758</ele>
        <time>2011-12-09T11:16:08.000Z</time>
      </trkpt>
      <trkpt lat="43.49673" lon="6.93362">
        <ele>69.599998474121</ele>
        <time>2011-12-09T11:16:11.000Z</time>
      </trkpt>
      <trkpt lat="43.49677" lon="6.9337">
        <ele>70</ele>
        <time>2011-12-09T11:16:13.000Z</time>
      </trkpt>
      <trkpt lat="43.49679" lon="6.9338">
        <ele>69.800003051758</ele>
        <time>2011-12-09T11:16:15.000Z</time>
      </trkpt>
      <trkpt lat="43.49685" lon="6.93397">
        <ele>69.800003051758</ele>
        <time>2011-12-09T11:16:19.000Z</time>
      </trkpt>
      <trkpt lat="43.4969" lon="6.93405">
        <ele>70</ele>
        <time>2011-12-09T11:16:22.000Z</time>
      </trkpt>
      <trkpt lat="43.49692" lon="6.93408">
        <ele>70</ele>
        <time>2011-12-09T11:16:23.000Z</time>
      </trkpt>
      <trkpt lat="43.497" lon="6.9343">
        <ele>69.199996948242</ele>
        <time>2011-12-09T11:16:28.000Z</time>
      </trkpt>
      <trkpt lat="43.49706" lon="6.93461">
        <ele>67.400001525879</ele>
        <time>2011-12-09T11:16:33.000Z</time>
      </trkpt>
      <trkpt lat="43.49709" lon="6.93473">
        <ele>66.400001525879</ele>
        <time>2011-12-09T11:16:35.000Z</time>
      </trkpt>
      <trkpt lat="43.49712" lon="6.93485">
        <ele>65.199996948242</ele>
        <time>2011-12-09T11:16:37.000Z</time>
      </trkpt>
      <trkpt lat="43.49713" lon="6.93497">
        <ele>64.199996948242</ele>
        <time>2011-12-09T11:16:39.000Z</time>
      </trkpt>
      <trkpt lat="43.49712" lon="6.93507">
        <ele>64</ele>
        <time>2011-12-09T11:16:41.000Z</time>
      </trkpt>
      <trkpt lat="43.49707" lon="6.93514">
        <ele>64.400001525879</ele>
        <time>2011-12-09T11:16:43.000Z</time>
      </trkpt>
      <trkpt lat="43.49695" lon="6.93523">
        <ele>65.199996948242</ele>
        <time>2011-12-09T11:16:47.000Z</time>
      </trkpt>
      <trkpt lat="43.49692" lon="6.93526">
        <ele>65.400001525879</ele>
        <time>2011-12-09T11:16:48.000Z</time>
      </trkpt>
      <trkpt lat="43.49683" lon="6.9355">
        <ele>65.599998474121</ele>
        <time>2011-12-09T11:16:53.000Z</time>
      </trkpt>
      <trkpt lat="43.49675" lon="6.93569">
        <ele>65.800003051758</ele>
        <time>2011-12-09T11:16:57.000Z</time>
      </trkpt>
      <trkpt lat="43.49677" lon="6.93571">
        <ele>65.599998474121</ele>
        <time>2011-12-09T11:16:58.000Z</time>
      </trkpt>
      <trkpt lat="43.49681" lon="6.93564">
        <ele>65.400001525879</ele>
        <time>2011-12-09T11:17:00.000Z</time>
      </trkpt>
      <trkpt lat="43.49693" lon="6.93547">
        <ele>64.800003051758</ele>
        <time>2011-12-09T11:17:06.000Z</time>
      </trkpt>
      <trkpt lat="43.49713" lon="6.93539">
        <ele>63</ele>
        <time>2011-12-09T11:17:12.000Z</time>
      </trkpt>
      <trkpt lat="43.49726" lon="6.93546">
        <ele>61.799999237061</ele>
        <time>2011-12-09T11:17:16.000Z</time>
      </trkpt>
      <trkpt lat="43.49744" lon="6.93553">
        <ele>59.799999237061</ele>
        <time>2011-12-09T11:17:20.000Z</time>
      </trkpt>
      <trkpt lat="43.49762" lon="6.93562">
        <ele>58.200000762939</ele>
        <time>2011-12-09T11:17:24.000Z</time>
      </trkpt>
      <trkpt lat="43.49767" lon="6.93564">
        <ele>57.799999237061</ele>
        <time>2011-12-09T11:17:25.000Z</time>
      </trkpt>
      <trkpt lat="43.4978" lon="6.93571">
        <ele>56</ele>
        <time>2011-12-09T11:17:28.000Z</time>
      </trkpt>
      <trkpt lat="43.49785" lon="6.93572">
        <ele>55.200000762939</ele>
        <time>2011-12-09T11:17:29.000Z</time>
      </trkpt>
      <trkpt lat="43.49806" lon="6.93582">
        <ele>51.200000762939</ele>
        <time>2011-12-09T11:17:34.000Z</time>
      </trkpt>
      <trkpt lat="43.49814" lon="6.93585">
        <ele>50</ele>
        <time>2011-12-09T11:17:36.000Z</time>
      </trkpt>
      <trkpt lat="43.49819" lon="6.93588">
        <ele>49.599998474121</ele>
        <time>2011-12-09T11:17:38.000Z</time>
      </trkpt>
      <trkpt lat="43.4982" lon="6.93591">
        <ele>50</ele>
        <time>2011-12-09T11:17:39.000Z</time>
      </trkpt>
      <trkpt lat="43.4983" lon="6.93606">
        <ele>50</ele>
        <time>2011-12-09T11:17:43.000Z</time>
      </trkpt>
      <trkpt lat="43.49836" lon="6.93621">
        <ele>51</ele>
        <time>2011-12-09T11:17:46.000Z</time>
      </trkpt>
      <trkpt lat="43.4984" lon="6.93624">
        <ele>51.200000762939</ele>
        <time>2011-12-09T11:17:47.000Z</time>
      </trkpt>
      <trkpt lat="43.49856" lon="6.93633">
        <ele>51</ele>
        <time>2011-12-09T11:17:51.000Z</time>
      </trkpt>
      <trkpt lat="43.49859" lon="6.93634">
        <ele>50.799999237061</ele>
        <time>2011-12-09T11:17:52.000Z</time>
      </trkpt>
      <trkpt lat="43.49867" lon="6.93634">
        <ele>50.400001525879</ele>
        <time>2011-12-09T11:17:54.000Z</time>
      </trkpt>
      <trkpt lat="43.49876" lon="6.93631">
        <ele>49.599998474121</ele>
        <time>2011-12-09T11:17:56.000Z</time>
      </trkpt>
      <trkpt lat="43.49894" lon="6.93634">
        <ele>48.599998474121</ele>
        <time>2011-12-09T11:18:00.000Z</time>
      </trkpt>
      <trkpt lat="43.49898" lon="6.93638">
        <ele>48.400001525879</ele>
        <time>2011-12-09T11:18:02.000Z</time>
      </trkpt>
      <trkpt lat="43.499" lon="6.93639">
        <ele>48.200000762939</ele>
        <time>2011-12-09T11:18:03.000Z</time>
      </trkpt>
      <trkpt lat="43.49911" lon="6.93638">
        <ele>47.400001525879</ele>
        <time>2011-12-09T11:18:07.000Z</time>
      </trkpt>
      <trkpt lat="43.49922" lon="6.93637">
        <ele>47</ele>
        <time>2011-12-09T11:18:11.000Z</time>
      </trkpt>
      <trkpt lat="43.49935" lon="6.93646">
        <ele>46</ele>
        <time>2011-12-09T11:18:15.000Z</time>
      </trkpt>
      <trkpt lat="43.49951" lon="6.93655">
        <ele>44.400001525879</ele>
        <time>2011-12-09T11:18:19.000Z</time>
      </trkpt>
      <trkpt lat="43.49974" lon="6.93664">
        <ele>41.799999237061</ele>
        <time>2011-12-09T11:18:24.000Z</time>
      </trkpt>
      <trkpt lat="43.49977" lon="6.93666">
        <ele>41</ele>
        <time>2011-12-09T11:18:25.000Z</time>
      </trkpt>
      <trkpt lat="43.49995" lon="6.93677">
        <ele>41.599998474121</ele>
        <time>2011-12-09T11:18:29.000Z</time>
      </trkpt>
      <trkpt lat="43.50005" lon="6.93683">
        <ele>42.200000762939</ele>
        <time>2011-12-09T11:18:31.000Z</time>
      </trkpt>
      <trkpt lat="43.50015" lon="6.93693">
        <ele>44.400001525879</ele>
        <time>2011-12-09T11:18:34.000Z</time>
      </trkpt>
      <trkpt lat="43.50016" lon="6.93695">
        <ele>44.799999237061</ele>
        <time>2011-12-09T11:18:35.000Z</time>
      </trkpt>
      <trkpt lat="43.50018" lon="6.93697">
        <ele>45.200000762939</ele>
        <time>2011-12-09T11:18:36.000Z</time>
      </trkpt>
      <trkpt lat="43.50024" lon="6.93701">
        <ele>45.799999237061</ele>
        <time>2011-12-09T11:18:38.000Z</time>
      </trkpt>
      <trkpt lat="43.50044" lon="6.93702">
        <ele>46</ele>
        <time>2011-12-09T11:18:42.000Z</time>
      </trkpt>
      <trkpt lat="43.5007" lon="6.93695">
        <ele>45.799999237061</ele>
        <time>2011-12-09T11:18:46.000Z</time>
      </trkpt>
      <trkpt lat="43.50076" lon="6.93694">
        <ele>45.799999237061</ele>
        <time>2011-12-09T11:18:47.000Z</time>
      </trkpt>
      <trkpt lat="43.50092" lon="6.937">
        <ele>46.799999237061</ele>
        <time>2011-12-09T11:18:50.000Z</time>
      </trkpt>
      <trkpt lat="43.50102" lon="6.93706">
        <ele>47.400001525879</ele>
        <time>2011-12-09T11:18:52.000Z</time>
      </trkpt>
      <trkpt lat="43.50111" lon="6.9371">
        <ele>48</ele>
        <time>2011-12-09T11:18:54.000Z</time>
      </trkpt>
      <trkpt lat="43.50117" lon="6.93711">
        <ele>48.200000762939</ele>
        <time>2011-12-09T11:18:55.000Z</time>
      </trkpt>
      <trkpt lat="43.50133" lon="6.93715">
        <ele>49</ele>
        <time>2011-12-09T11:18:58.000Z</time>
      </trkpt>
      <trkpt lat="43.50143" lon="6.93715">
        <ele>49.400001525879</ele>
        <time>2011-12-09T11:19:00.000Z</time>
      </trkpt>
      <trkpt lat="43.50169" lon="6.93711">
        <ele>50.799999237061</ele>
        <time>2011-12-09T11:19:05.000Z</time>
      </trkpt>
      <trkpt lat="43.50174" lon="6.93708">
        <ele>50.799999237061</ele>
        <time>2011-12-09T11:19:06.000Z</time>
      </trkpt>
      <trkpt lat="43.50189" lon="6.93706">
        <ele>50.400001525879</ele>
        <time>2011-12-09T11:19:09.000Z</time>
      </trkpt>
      <trkpt lat="43.50199" lon="6.93709">
        <ele>49.799999237061</ele>
        <time>2011-12-09T11:19:11.000Z</time>
      </trkpt>
      <trkpt lat="43.50216" lon="6.93713">
        <ele>49</ele>
        <time>2011-12-09T11:19:15.000Z</time>
      </trkpt>
      <trkpt lat="43.50236" lon="6.93707">
        <ele>48.599998474121</ele>
        <time>2011-12-09T11:19:19.000Z</time>
      </trkpt>
      <trkpt lat="43.50241" lon="6.93706">
        <ele>48.400001525879</ele>
        <time>2011-12-09T11:19:20.000Z</time>
      </trkpt>
      <trkpt lat="43.50266" lon="6.93697">
        <ele>46.400001525879</ele>
        <time>2011-12-09T11:19:25.000Z</time>
      </trkpt>
      <trkpt lat="43.50274" lon="6.93694">
        <ele>45.400001525879</ele>
        <time>2011-12-09T11:19:27.000Z</time>
      </trkpt>
      <trkpt lat="43.50287" lon="6.93695">
        <ele>43.799999237061</ele>
        <time>2011-12-09T11:19:30.000Z</time>
      </trkpt>
      <trkpt lat="43.50288" lon="6.93694">
        <ele>43.599998474121</ele>
        <time>2011-12-09T11:19:31.000Z</time>
      </trkpt>
      <trkpt lat="43.5029" lon="6.93694">
        <ele>43.400001525879</ele>
        <time>2011-12-09T11:19:32.000Z</time>
      </trkpt>
      <trkpt lat="43.50292" lon="6.93694">
        <ele>43.200000762939</ele>
        <time>2011-12-09T11:19:33.000Z</time>
      </trkpt>
      <trkpt lat="43.50305" lon="6.93701">
        <ele>41.400001525879</ele>
        <time>2011-12-09T11:19:36.000Z</time>
      </trkpt>
      <trkpt lat="43.50321" lon="6.93717">
        <ele>39.400001525879</ele>
        <time>2011-12-09T11:19:39.000Z</time>
      </trkpt>
      <trkpt lat="43.50326" lon="6.93723">
        <ele>38.799999237061</ele>
        <time>2011-12-09T11:19:40.000Z</time>
      </trkpt>
      <trkpt lat="43.5034" lon="6.93734">
        <ele>37.599998474121</ele>
        <time>2011-12-09T11:19:43.000Z</time>
      </trkpt>
      <trkpt lat="43.50344" lon="6.93736">
        <ele>37.200000762939</ele>
        <time>2011-12-09T11:19:44.000Z</time>
      </trkpt>
      <trkpt lat="43.50374" lon="6.93753">
        <ele>34</ele>
        <time>2011-12-09T11:19:50.000Z</time>
      </trkpt>
      <trkpt lat="43.50386" lon="6.93761">
        <ele>33.200000762939</ele>
        <time>2011-12-09T11:19:52.000Z</time>
      </trkpt>
      <trkpt lat="43.50401" lon="6.93779">
        <ele>31.39999961853</ele>
        <time>2011-12-09T11:19:55.000Z</time>
      </trkpt>
      <trkpt lat="43.50432" lon="6.93826">
        <ele>26</ele>
        <time>2011-12-09T11:20:01.000Z</time>
      </trkpt>
      <trkpt lat="43.50443" lon="6.9384">
        <ele>25.200000762939</ele>
        <time>2011-12-09T11:20:03.000Z</time>
      </trkpt>
      <trkpt lat="43.50457" lon="6.93849">
        <ele>24.39999961853</ele>
        <time>2011-12-09T11:20:05.000Z</time>
      </trkpt>
      <trkpt lat="43.50488" lon="6.93869">
        <ele>20.200000762939</ele>
        <time>2011-12-09T11:20:10.000Z</time>
      </trkpt>
      <trkpt lat="43.50496" lon="6.93876">
        <ele>18.799999237061</ele>
        <time>2011-12-09T11:20:13.000Z</time>
      </trkpt>
      <trkpt lat="43.50499" lon="6.93877">
        <ele>18.200000762939</ele>
        <time>2011-12-09T11:20:14.000Z</time>
      </trkpt>
      <trkpt lat="43.5052" lon="6.93893">
        <ele>17.200000762939</ele>
        <time>2011-12-09T11:20:19.000Z</time>
      </trkpt>
      <trkpt lat="43.50555" lon="6.93916">
        <ele>13</ele>
        <time>2011-12-09T11:20:26.000Z</time>
      </trkpt>
      <trkpt lat="43.50576" lon="6.93944">
        <ele>12</ele>
        <time>2011-12-09T11:20:31.000Z</time>
      </trkpt>
      <trkpt lat="43.50592" lon="6.93965">
        <ele>11.39999961853</ele>
        <time>2011-12-09T11:20:35.000Z</time>
      </trkpt>
      <trkpt lat="43.50606" lon="6.93979">
        <ele>11.39999961853</ele>
        <time>2011-12-09T11:20:38.000Z</time>
      </trkpt>
      <trkpt lat="43.50608" lon="6.93997">
        <ele>10.800000190735</ele>
        <time>2011-12-09T11:20:41.000Z</time>
      </trkpt>
      <trkpt lat="43.50618" lon="6.94005">
        <ele>11</ele>
        <time>2011-12-09T11:20:44.000Z</time>
      </trkpt>
      <trkpt lat="43.50626" lon="6.94012">
        <ele>11.39999961853</ele>
        <time>2011-12-09T11:20:48.000Z</time>
      </trkpt>
      <trkpt lat="43.50631" lon="6.94019">
        <ele>11.800000190735</ele>
        <time>2011-12-09T11:20:51.000Z</time>
      </trkpt>
      <trkpt lat="43.50636" lon="6.94025">
        <ele>11.800000190735</ele>
        <time>2011-12-09T11:20:53.000Z</time>
      </trkpt>
      <trkpt lat="43.50657" lon="6.94055">
        <ele>10.199999809265</ele>
        <time>2011-12-09T11:21:00.000Z</time>
      </trkpt>
      <trkpt lat="43.50684" lon="6.94095">
        <ele>8.6000003814697</ele>
        <time>2011-12-09T11:21:09.000Z</time>
      </trkpt>
      <trkpt lat="43.50689" lon="6.94102">
        <ele>8.8000001907349</ele>
        <time>2011-12-09T11:21:11.000Z</time>
      </trkpt>
      <trkpt lat="43.50698" lon="6.94109">
        <ele>8.8000001907349</ele>
        <time>2011-12-09T11:21:14.000Z</time>
      </trkpt>
      <trkpt lat="43.50712" lon="6.94131">
        <ele>8.1999998092651</ele>
        <time>2011-12-09T11:21:20.000Z</time>
      </trkpt>
      <trkpt lat="43.50723" lon="6.94152">
        <ele>7.1999998092651</ele>
        <time>2011-12-09T11:21:25.000Z</time>
      </trkpt>
      <trkpt lat="43.50734" lon="6.9417">
        <ele>5.8000001907349</ele>
        <time>2011-12-09T11:21:30.000Z</time>
      </trkpt>
      <trkpt lat="43.50739" lon="6.94176">
        <ele>5.1999998092651</ele>
        <time>2011-12-09T11:21:33.000Z</time>
      </trkpt>
      <trkpt lat="43.50743" lon="6.94177">
        <ele>4.8000001907349</ele>
        <time>2011-12-09T11:21:34.000Z</time>
      </trkpt>
      <trkpt lat="43.50755" lon="6.94179">
        <ele>4.4000000953674</ele>
        <time>2011-12-09T11:21:38.000Z</time>
      </trkpt>
      <trkpt lat="43.50776" lon="6.94176">
        <ele>5.1999998092651</ele>
        <time>2011-12-09T11:21:43.000Z</time>
      </trkpt>
      <trkpt lat="43.50814" lon="6.94169">
        <ele>6.4000000953674</ele>
        <time>2011-12-09T11:21:51.000Z</time>
      </trkpt>
      <trkpt lat="43.50826" lon="6.94161">
        <ele>7</ele>
        <time>2011-12-09T11:21:54.000Z</time>
      </trkpt>
      <trkpt lat="43.50833" lon="6.94154">
        <ele>7.4000000953674</ele>
        <time>2011-12-09T11:21:56.000Z</time>
      </trkpt>
      <trkpt lat="43.50851" lon="6.94133">
        <ele>6.5999999046326</ele>
        <time>2011-12-09T11:22:02.000Z</time>
      </trkpt>
      <trkpt lat="43.50854" lon="6.94131">
        <ele>6.1999998092651</ele>
        <time>2011-12-09T11:22:03.000Z</time>
      </trkpt>
      <trkpt lat="43.5086" lon="6.94128">
        <ele>5.8000001907349</ele>
        <time>2011-12-09T11:22:08.000Z</time>
      </trkpt>
    </trkseg>
  </trk>
</gpx>